Wetterdaten: Samstag, 23.01.2021
Datum Zeit Temp. 2m Temp +5 cm Feuchte A. Luftdruck Regen Wind Richtung Richtung Sonnenschein UV Solar Taupunkt Windchill Windben
23.01.2021 00:00 -0,3 C -1,1 C 95 % 999,6 hPa 0,0 l/m 3,2 km/h (1 Bft) S-SW 202 0 min 0,0 UV-I 0 W/m -1,0 C -0,3 C 3,2 km/h (1 Bft)
23.01.2021 00:01 -0,3 C -1,1 C 95 % 999,6 hPa 0,0 l/m 3,2 km/h (1 Bft) S-SW 202 0 min 0,0 UV-I 0 W/m -1,0 C -0,3 C 3,2 km/h (1 Bft)
23.01.2021 00:02 -0,3 C -1,1 C 95 % 999,6 hPa 0,0 l/m 3,2 km/h (1 Bft) S-SW 202 0 min 0,0 UV-I 0 W/m -1,0 C -0,3 C 3,2 km/h (1 Bft)
23.01.2021 00:03 -0,3 C -1,1 C 95 % 999,7 hPa 0,0 l/m 3,2 km/h (1 Bft) S-SW 202 0 min 0,0 UV-I 0 W/m -1,0 C -0,3 C 4,8 km/h (1 Bft)
23.01.2021 00:04 -0,3 C -1,1 C 95 % 999,6 hPa 0,0 l/m 3,2 km/h (1 Bft) S-SW 202 0 min 0,0 UV-I 0 W/m -1,0 C -0,3 C 3,2 km/h (1 Bft)
23.01.2021 00:05 -0,3 C -1,1 C 95 % 999,6 hPa 0,0 l/m 3,2 km/h (1 Bft) S-SW 202 0 min 0,0 UV-I 0 W/m -1,0 C -0,3 C 3,2 km/h (1 Bft)
23.01.2021 00:06 -0,3 C -1,1 C 95 % 999,7 hPa 0,0 l/m 1,6 km/h (1 Bft) S-SW 202 0 min 0,0 UV-I 0 W/m -1,0 C -0,3 C 3,2 km/h (1 Bft)
23.01.2021 00:07 -0,3 C -1,1 C 95 % 999,6 hPa 0,0 l/m 3,2 km/h (1 Bft) S-SW 202 0 min 0,0 UV-I 0 W/m -1,0 C -0,3 C 4,8 km/h (1 Bft)
23.01.2021 00:08 -0,3 C -1,1 C 95 % 999,7 hPa 0,0 l/m 3,2 km/h (1 Bft) S-SW 202 0 min 0,0 UV-I 0 W/m -1,0 C -0,3 C 4,8 km/h (1 Bft)
23.01.2021 00:09 -0,4 C -1,1 C 95 % 999,7 hPa 0,0 l/m 3,2 km/h (1 Bft) S-SW 202 0 min 0,0 UV-I 0 W/m -1,1 C -0,4 C 4,8 km/h (1 Bft)
23.01.2021 00:10 -0,3 C -1,1 C 95 % 999,7 hPa 0,0 l/m 3,2 km/h (1 Bft) S-SW 202 0 min 0,0 UV-I 0 W/m -1,0 C -0,3 C 4,8 km/h (1 Bft)
23.01.2021 00:11 -0,3 C -1,1 C 95 % 999,8 hPa 0,0 l/m 1,6 km/h (1 Bft) S-SW 202 0 min 0,0 UV-I 0 W/m -1,0 C -0,3 C 3,2 km/h (1 Bft)
23.01.2021 00:12 -0,4 C -1,1 C 95 % 999,7 hPa 0,0 l/m 3,2 km/h (1 Bft) S-SW 202 0 min 0,0 UV-I 0 W/m -1,1 C -0,4 C 3,2 km/h (1 Bft)
23.01.2021 00:13 -0,4 C -1,1 C 95 % 999,8 hPa 0,0 l/m 3,2 km/h (1 Bft) S-SW 202 0 min 0,0 UV-I 0 W/m -1,1 C -0,4 C 4,8 km/h (1 Bft)
23.01.2021 00:14 -0,4 C -1,1 C 95 % 999,7 hPa 0,0 l/m 3,2 km/h (1 Bft) S-SW 202 0 min 0,0 UV-I 0 W/m -1,1 C -0,4 C 4,8 km/h (1 Bft)
23.01.2021 00:15 -0,4 C -1,1 C 95 % 999,7 hPa 0,0 l/m 3,2 km/h (1 Bft) S-SW 202 0 min 0,0 UV-I 0 W/m -1,1 C -0,4 C 4,8 km/h (1 Bft)
23.01.2021 00:16 -0,4 C -1,1 C 95 % 999,8 hPa 0,0 l/m 3,2 km/h (1 Bft) S-SW 202 0 min 0,0 UV-I 0 W/m -1,1 C -0,4 C 4,8 km/h (1 Bft)
23.01.2021 00:17 -0,4 C -1,1 C 95 % 999,8 hPa 0,0 l/m 3,2 km/h (1 Bft) S-SW 202 0 min 0,0 UV-I 0 W/m -1,1 C -0,4 C 4,8 km/h (1 Bft)
23.01.2021 00:18 -0,4 C -1,1 C 95 % 999,8 hPa 0,0 l/m 4,8 km/h (1 Bft) S-SW 202 0 min 0,0 UV-I 0 W/m -1,1 C -0,4 C 4,8 km/h (1 Bft)
23.01.2021 00:19 -0,4 C -1,1 C 95 % 999,7 hPa 0,0 l/m 3,2 km/h (1 Bft) S-SW 202 0 min 0,0 UV-I 0 W/m -1,1 C -0,4 C 4,8 km/h (1 Bft)
23.01.2021 00:20 -0,4 C -1,1 C 95 % 999,8 hPa 0,0 l/m 3,2 km/h (1 Bft) S-SW 202 0 min 0,0 UV-I 0 W/m -1,1 C -0,4 C 3,2 km/h (1 Bft)
23.01.2021 00:21 -0,4 C -1,1 C 95 % 999,7 hPa 0,0 l/m 3,2 km/h (1 Bft) S-SW 202 0 min 0,0 UV-I 0 W/m -1,1 C -0,4 C 4,8 km/h (1 Bft)
23.01.2021 00:22 -0,4 C -1,1 C 95 % 999,8 hPa 0,0 l/m 3,2 km/h (1 Bft) S-SW 202 0 min 0,0 UV-I 0 W/m -1,1 C -0,4 C 4,8 km/h (1 Bft)
23.01.2021 00:23 -0,4 C -1,1 C 95 % 999,7 hPa 0,0 l/m 3,2 km/h (1 Bft) S-SW 202 0 min 0,0 UV-I 0 W/m -1,1 C -0,4 C 3,2 km/h (1 Bft)
23.01.2021 00:24 -0,5 C -1,7 C 95 % 999,8 hPa 0,0 l/m 3,2 km/h (1 Bft) S-SW 202 0 min 0,0 UV-I 0 W/m -1,2 C -0,5 C 4,8 km/h (1 Bft)
23.01.2021 00:25 -0,5 C -1,7 C 95 % 999,7 hPa 0,0 l/m 1,6 km/h (1 Bft) S-SW 202 0 min 0,0 UV-I 0 W/m -1,2 C -0,5 C 3,2 km/h (1 Bft)
23.01.2021 00:26 -0,5 C -1,7 C 95 % 999,8 hPa 0,0 l/m 3,2 km/h (1 Bft) S-SW 202 0 min 0,0 UV-I 0 W/m -1,2 C -0,5 C 4,8 km/h (1 Bft)
23.01.2021 00:27 -0,4 C -1,7 C 95 % 999,8 hPa 0,0 l/m 3,2 km/h (1 Bft) S-SW 202 0 min 0,0 UV-I 0 W/m -1,1 C -0,4 C 4,8 km/h (1 Bft)
23.01.2021 00:28 -0,4 C -1,7 C 95 % 999,8 hPa 0,0 l/m 1,6 km/h (1 Bft) S-SW 202 0 min 0,0 UV-I 0 W/m -1,1 C -0,4 C 3,2 km/h (1 Bft)
23.01.2021 00:29 -0,5 C -1,7 C 95 % 999,8 hPa 0,0 l/m 1,6 km/h (1 Bft) S-SW 202 0 min 0,0 UV-I 0 W/m -1,2 C -0,5 C 3,2 km/h (1 Bft)
23.01.2021 00:30 -0,5 C -1,7 C 95 % 999,8 hPa 0,0 l/m 3,2 km/h (1 Bft) S-SW 202 0 min 0,0 UV-I 0 W/m -1,2 C -0,5 C 3,2 km/h (1 Bft)
23.01.2021 00:31 -0,5 C -1,7 C 95 % 999,8 hPa 0,0 l/m 3,2 km/h (1 Bft) S-SW 202 0 min 0,0 UV-I 0 W/m -1,2 C -0,5 C 3,2 km/h (1 Bft)
23.01.2021 00:32 -0,5 C -1,7 C 95 % 999,8 hPa 0,0 l/m 4,8 km/h (1 Bft) S-SW 202 0 min 0,0 UV-I 0 W/m -1,2 C -0,5 C 8,0 km/h (2 Bft)
23.01.2021 00:33 -0,5 C -1,7 C 95 % 999,7 hPa 0,0 l/m 3,2 km/h (1 Bft) S-SW 202 0 min 0,0 UV-I 0 W/m -1,2 C -0,5 C 8,0 km/h (2 Bft)
23.01.2021 00:34 -0,5 C -1,7 C 95 % 999,7 hPa 0,0 l/m 3,2 km/h (1 Bft) S-SW 202 0 min 0,0 UV-I 0 W/m -1,2 C -0,5 C 4,8 km/h (1 Bft)
23.01.2021 00:35 -0,5 C -1,7 C 95 % 999,7 hPa 0,0 l/m 1,6 km/h (1 Bft) S-SW 202 0 min 0,0 UV-I 0 W/m -1,2 C -0,5 C 3,2 km/h (1 Bft)
23.01.2021 00:36 -0,6 C -1,7 C 95 % 999,8 hPa 0,0 l/m 4,8 km/h (1 Bft) S-SW 202 0 min 0,0 UV-I 0 W/m -1,3 C -0,6 C 8,0 km/h (2 Bft)
23.01.2021 00:37 -0,5 C -1,1 C 95 % 999,8 hPa 0,0 l/m 3,2 km/h (1 Bft) S-SW 202 0 min 0,0 UV-I 0 W/m -1,2 C -0,5 C 6,4 km/h (2 Bft)
23.01.2021 00:38 -0,5 C -1,1 C 95 % 999,8 hPa 0,0 l/m 3,2 km/h (1 Bft) S-SW 202 0 min 0,0 UV-I 0 W/m -1,2 C -0,5 C 4,8 km/h (1 Bft)
23.01.2021 00:39 -0,6 C -1,1 C 95 % 999,7 hPa 0,0 l/m 1,6 km/h (1 Bft) S-SW 202 0 min 0,0 UV-I 0 W/m -1,3 C -0,6 C 3,2 km/h (1 Bft)
23.01.2021 00:40 -0,5 C -1,7 C 95 % 999,7 hPa 0,0 l/m 3,2 km/h (1 Bft) S-SW 202 0 min 0,0 UV-I 0 W/m -1,2 C -0,5 C 4,8 km/h (1 Bft)
23.01.2021 00:41 -0,5 C -1,7 C 95 % 999,7 hPa 0,0 l/m 1,6 km/h (1 Bft) S-SW 202 0 min 0,0 UV-I 0 W/m -1,2 C -0,5 C 4,8 km/h (1 Bft)
23.01.2021 00:42 -0,5 C -1,7 C 95 % 999,6 hPa 0,0 l/m 3,2 km/h (1 Bft) S-SW 202 0 min 0,0 UV-I 0 W/m -1,2 C -0,5 C 4,8 km/h (1 Bft)
23.01.2021 00:43 -0,5 C -1,7 C 95 % 999,7 hPa 0,0 l/m 1,6 km/h (1 Bft) S-SW 202 0 min 0,0 UV-I 0 W/m -1,2 C -0,5 C 4,8 km/h (1 Bft)
23.01.2021 00:44 -0,5 C -1,1 C 95 % 999,6 hPa 0,0 l/m 1,6 km/h (1 Bft) S-SW 202 0 min 0,0 UV-I 0 W/m -1,2 C -0,5 C 3,2 km/h (1 Bft)
23.01.2021 00:45 -0,5 C -1,7 C 95 % 999,8 hPa 0,0 l/m 3,2 km/h (1 Bft) S-SW 202 0 min 0,0 UV-I 0 W/m -1,2 C -0,5 C 6,4 km/h (2 Bft)
23.01.2021 00:46 -0,5 C -1,7 C 95 % 999,7 hPa 0,0 l/m 4,8 km/h (1 Bft) S-SW 202 0 min 0,0 UV-I 0 W/m -1,2 C -0,5 C 6,4 km/h (2 Bft)
23.01.2021 00:47 -0,5 C -1,7 C 95 % 999,6 hPa 0,0 l/m 4,8 km/h (1 Bft) S-SW 202 0 min 0,0 UV-I 0 W/m -1,2 C -0,5 C 6,4 km/h (2 Bft)
23.01.2021 00:48 -0,5 C -1,7 C 95 % 999,7 hPa 0,0 l/m 3,2 km/h (1 Bft) S-SW 202 0 min 0,0 UV-I 0 W/m -1,2 C -0,5 C 4,8 km/h (1 Bft)
23.01.2021 00:49 -0,5 C -1,7 C 95 % 999,7 hPa 0,0 l/m 3,2 km/h (1 Bft) S-SW 202 0 min 0,0 UV-I 0 W/m -1,2 C -0,5 C 4,8 km/h (1 Bft)
23.01.2021 00:50 -0,6 C -1,7 C 95 % 999,6 hPa 0,0 l/m 3,2 km/h (1 Bft) S-SW 202 0 min 0,0 UV-I 0 W/m -1,3 C -0,6 C 3,2 km/h (1 Bft)
23.01.2021 00:51 -0,5 C -1,7 C 95 % 999,7 hPa 0,0 l/m 1,6 km/h (1 Bft) S-SW 202 0 min 0,0 UV-I 0 W/m -1,2 C -0,5 C 3,2 km/h (1 Bft)
23.01.2021 00:52 -0,5 C -1,7 C 95 % 999,7 hPa 0,0 l/m 1,6 km/h (1 Bft) S-SW 202 0 min 0,0 UV-I 0 W/m -1,2 C -0,5 C 4,8 km/h (1 Bft)
23.01.2021 00:53 -0,6 C -1,7 C 95 % 999,6 hPa 0,0 l/m 4,8 km/h (1 Bft) SW 225 0 min 0,0 UV-I 0 W/m -1,3 C -0,6 C 6,4 km/h (2 Bft)
23.01.2021 00:54 -0,6 C -1,7 C 95 % 999,7 hPa 0,0 l/m 3,2 km/h (1 Bft) SW 225 0 min 0,0 UV-I 0 W/m -1,3 C -0,6 C 4,8 km/h (1 Bft)
23.01.2021 00:55 -0,6 C -1,7 C 95 % 999,8 hPa 0,0 l/m 3,2 km/h (1 Bft) SW 225 0 min 0,0 UV-I 0 W/m -1,3 C -0,6 C 4,8 km/h (1 Bft)
23.01.2021 00:56 -0,5 C -1,7 C 95 % 999,8 hPa 0,0 l/m 3,2 km/h (1 Bft) SW 225 0 min 0,0 UV-I 0 W/m -1,2 C -0,5 C 6,4 km/h (2 Bft)
23.01.2021 00:57 -0,6 C -1,7 C 95 % 999,8 hPa 0,0 l/m 3,2 km/h (1 Bft) SW 225 0 min 0,0 UV-I 0 W/m -1,3 C -0,6 C 6,4 km/h (2 Bft)
23.01.2021 00:58 -0,6 C -1,7 C 95 % 999,8 hPa 0,0 l/m 6,4 km/h (2 Bft) SW 225 0 min 0,0 UV-I 0 W/m -1,3 C -0,6 C 9,7 km/h (2 Bft)
23.01.2021 00:59 -0,6 C -1,7 C 95 % 999,7 hPa 0,0 l/m 9,7 km/h (2 Bft) SW 225 0 min 0,0 UV-I 0 W/m -1,3 C -3,9 C 14,5 km/h (3 Bft)
23.01.2021 01:00 -0,6 C -1,1 C 95 % 999,8 hPa 0,0 l/m 9,7 km/h (2 Bft) SW 225 0 min 0,0 UV-I 0 W/m -1,3 C -3,9 C 14,5 km/h (3 Bft)
23.01.2021 01:01 -0,6 C -1,1 C 95 % 999,8 hPa 0,0 l/m 11,3 km/h (2 Bft) SW 225 0 min 0,0 UV-I 0 W/m -1,3 C -5,2 C 14,5 km/h (3 Bft)
23.01.2021 01:02 -0,6 C -1,1 C 95 % 999,8 hPa 0,0 l/m 9,7 km/h (2 Bft) S-SW 202 0 min 0,0 UV-I 0 W/m -1,3 C -3,9 C 12,9 km/h (3 Bft)
23.01.2021 01:03 -0,6 C -1,1 C 95 % 999,7 hPa 0,0 l/m 6,4 km/h (2 Bft) SW 225 0 min 0,0 UV-I 0 W/m -1,3 C -0,6 C 11,3 km/h (2 Bft)
23.01.2021 01:04 -0,6 C -1,1 C 95 % 999,8 hPa 0,0 l/m 8,0 km/h (2 Bft) SW 225 0 min 0,0 UV-I 0 W/m -1,3 C -2,3 C 9,7 km/h (2 Bft)
23.01.2021 01:05 -0,6 C -1,1 C 95 % 999,8 hPa 0,0 l/m 6,4 km/h (2 Bft) SW 225 0 min 0,0 UV-I 0 W/m -1,3 C -0,6 C 11,3 km/h (2 Bft)
23.01.2021 01:06 -0,6 C -1,1 C 95 % 999,8 hPa 0,0 l/m 8,0 km/h (2 Bft) S-SW 202 0 min 0,0 UV-I 0 W/m -1,3 C -2,3 C 12,9 km/h (3 Bft)
23.01.2021 01:07 -0,6 C -1,1 C 95 % 999,9 hPa 0,0 l/m 9,7 km/h (2 Bft) SW 225 0 min 0,0 UV-I 0 W/m -1,3 C -3,9 C 12,9 km/h (3 Bft)
23.01.2021 01:08 -0,6 C -1,1 C 95 % 999,9 hPa 0,0 l/m 9,7 km/h (2 Bft) SW 225 0 min 0,0 UV-I 0 W/m -1,3 C -3,9 C 14,5 km/h (3 Bft)
23.01.2021 01:09 -0,6 C -1,1 C 95 % 999,9 hPa 0,0 l/m 8,0 km/h (2 Bft) SW 225 0 min 0,0 UV-I 0 W/m -1,3 C -2,3 C 11,3 km/h (2 Bft)
23.01.2021 01:10 -0,6 C -1,1 C 95 % 999,8 hPa 0,0 l/m 8,0 km/h (2 Bft) SW 225 0 min 0,0 UV-I 0 W/m -1,3 C -2,3 C 9,7 km/h (2 Bft)
23.01.2021 01:11 -0,6 C -1,1 C 95 % 999,8 hPa 0,0 l/m 9,7 km/h (2 Bft) S-SW 202 0 min 0,0 UV-I 0 W/m -1,3 C -3,9 C 14,5 km/h (3 Bft)
23.01.2021 01:12 -0,6 C -1,1 C 95 % 999,9 hPa 0,0 l/m 9,7 km/h (2 Bft) SW 225 0 min 0,0 UV-I 0 W/m -1,3 C -3,9 C 14,5 km/h (3 Bft)
23.01.2021 01:13 -0,6 C -1,1 C 95 % 999,9 hPa 0,0 l/m 9,7 km/h (2 Bft) S-SW 202 0 min 0,0 UV-I 0 W/m -1,3 C -3,9 C 14,5 km/h (3 Bft)
23.01.2021 01:14 -0,6 C -1,1 C 95 % 999,9 hPa 0,0 l/m 6,4 km/h (2 Bft) SW 225 0 min 0,0 UV-I 0 W/m -1,3 C -0,6 C 9,7 km/h (2 Bft)
23.01.2021 01:15 -0,6 C -1,1 C 95 % 1000,0 hPa 0,0 l/m 8,0 km/h (2 Bft) S-SW 202 0 min 0,0 UV-I 0 W/m -1,3 C -2,3 C 11,3 km/h (2 Bft)
23.01.2021 01:16 -0,6 C -1,1 C 95 % 999,9 hPa 0,0 l/m 12,9 km/h (3 Bft) S-SW 202 0 min 0,0 UV-I 0 W/m -1,3 C -6,3 C 17,7 km/h (3 Bft)
23.01.2021 01:17 -0,6 C -1,1 C 95 % 999,9 hPa 0,0 l/m 12,9 km/h (3 Bft) S-SW 202 0 min 0,0 UV-I 0 W/m -1,3 C -6,3 C 19,3 km/h (3 Bft)
23.01.2021 01:18 -0,6 C -1,1 C 95 % 999,9 hPa 0,0 l/m 12,9 km/h (3 Bft) S-SW 202 0 min 0,0 UV-I 0 W/m -1,3 C -6,3 C 19,3 km/h (3 Bft)
23.01.2021 01:19 -0,6 C -1,1 C 95 % 999,9 hPa 0,0 l/m 11,3 km/h (2 Bft) S-SW 202 0 min 0,0 UV-I 0 W/m -1,3 C -5,2 C 16,1 km/h (3 Bft)
23.01.2021 01:20 -0,6 C -1,1 C 95 % 999,9 hPa 0,0 l/m 12,9 km/h (3 Bft) S-SW 202 0 min 0,0 UV-I 0 W/m -1,3 C -6,3 C 19,3 km/h (3 Bft)
23.01.2021 01:21 -0,6 C -1,1 C 95 % 999,9 hPa 0,0 l/m 11,3 km/h (2 Bft) S-SW 202 0 min 0,0 UV-I 0 W/m -1,3 C -5,2 C 14,5 km/h (3 Bft)
23.01.2021 01:22 -0,6 C -1,1 C 95 % 1000,0 hPa 0,0 l/m 12,9 km/h (3 Bft) SW 225 0 min 0,0 UV-I 0 W/m -1,3 C -6,3 C 20,9 km/h (4 Bft)
23.01.2021 01:23 -0,6 C -1,1 C 95 % 1000,0 hPa 0,0 l/m 11,3 km/h (2 Bft) SW 225 0 min 0,0 UV-I 0 W/m -1,3 C -5,2 C 20,9 km/h (4 Bft)
23.01.2021 01:24 -0,6 C -1,1 C 95 % 999,9 hPa 0,0 l/m 12,9 km/h (3 Bft) SW 225 0 min 0,0 UV-I 0 W/m -1,3 C -6,3 C 17,7 km/h (3 Bft)
23.01.2021 01:25 -0,6 C -1,1 C 95 % 999,9 hPa 0,0 l/m 11,3 km/h (2 Bft) S-SW 202 0 min 0,0 UV-I 0 W/m -1,3 C -5,2 C 12,9 km/h (3 Bft)
23.01.2021 01:26 -0,6 C -1,1 C 95 % 999,9 hPa 0,0 l/m 11,3 km/h (2 Bft) S-SW 202 0 min 0,0 UV-I 0 W/m -1,3 C -5,2 C 16,1 km/h (3 Bft)
23.01.2021 01:27 -0,6 C -1,1 C 96 % 999,9 hPa 0,0 l/m 11,3 km/h (2 Bft) S-SW 202 0 min 0,0 UV-I 0 W/m -1,2 C -5,2 C 16,1 km/h (3 Bft)
23.01.2021 01:28 -0,6 C -1,1 C 96 % 1000,0 hPa 0,0 l/m 8,0 km/h (2 Bft) S-SW 202 0 min 0,0 UV-I 0 W/m -1,2 C -2,3 C 14,5 km/h (3 Bft)
23.01.2021 01:29 -0,6 C -1,1 C 95 % 1000,0 hPa 0,0 l/m 9,7 km/h (2 Bft) SW 225 0 min 0,0 UV-I 0 W/m -1,3 C -3,9 C 11,3 km/h (2 Bft)
23.01.2021 01:30 -0,6 C -1,1 C 95 % 1000,0 hPa 0,0 l/m 11,3 km/h (2 Bft) S-SW 202 0 min 0,0 UV-I 0 W/m -1,3 C -5,2 C 14,5 km/h (3 Bft)
23.01.2021 01:31 -0,6 C -1,1 C 96 % 1000,0 hPa 0,0 l/m 9,7 km/h (2 Bft) S-SW 202 0 min 0,0 UV-I 0 W/m -1,2 C -3,9 C 14,5 km/h (3 Bft)
23.01.2021 01:32 -0,6 C -1,1 C 96 % 1000,0 hPa 0,0 l/m 12,9 km/h (3 Bft) S-SW 202 0 min 0,0 UV-I 0 W/m -1,2 C -6,3 C 16,1 km/h (3 Bft)
23.01.2021 01:33 -0,6 C -1,1 C 96 % 999,9 hPa 0,0 l/m 14,5 km/h (3 Bft) S-SW 202 0 min 0,0 UV-I 0 W/m -1,2 C -7,4 C 17,7 km/h (3 Bft)
23.01.2021 01:34 -0,6 C -1,1 C 96 % 1000,0 hPa 0,0 l/m 12,9 km/h (3 Bft) SW 225 0 min 0,0 UV-I 0 W/m -1,2 C -6,3 C 17,7 km/h (3 Bft)
23.01.2021 01:35 -0,6 C -1,1 C 96 % 999,9 hPa 0,0 l/m 11,3 km/h (2 Bft) SW 225 0 min 0,0 UV-I 0 W/m -1,2 C -5,2 C 14,5 km/h (3 Bft)
23.01.2021 01:36 -0,6 C -1,1 C 96 % 999,8 hPa 0,0 l/m 8,0 km/h (2 Bft) S-SW 202 0 min 0,0 UV-I 0 W/m -1,2 C -2,3 C 12,9 km/h (3 Bft)
23.01.2021 01:37 -0,6 C -1,1 C 96 % 999,9 hPa 0,0 l/m 9,7 km/h (2 Bft) S-SW 202 0 min 0,0 UV-I 0 W/m -1,2 C -3,9 C 12,9 km/h (3 Bft)
23.01.2021 01:38 -0,6 C -1,1 C 96 % 999,9 hPa 0,0 l/m 11,3 km/h (2 Bft) S-SW 202 0 min 0,0 UV-I 0 W/m -1,2 C -5,2 C 14,5 km/h (3 Bft)
23.01.2021 01:39 -0,6 C -1,1 C 96 % 999,9 hPa 0,0 l/m 9,7 km/h (2 Bft) S-SW 202 0 min 0,0 UV-I 0 W/m -1,2 C -3,9 C 14,5 km/h (3 Bft)
23.01.2021 01:40 -0,7 C -1,1 C 96 % 1000,0 hPa 0,0 l/m 11,3 km/h (2 Bft) S-SW 202 0 min 0,0 UV-I 0 W/m -1,3 C -5,3 C 16,1 km/h (3 Bft)
23.01.2021 01:41 -0,6 C -1,1 C 96 % 1000,0 hPa 0,0 l/m 14,5 km/h (3 Bft) S-SW 202 0 min 0,0 UV-I 0 W/m -1,2 C -7,4 C 17,7 km/h (3 Bft)
23.01.2021 01:42 -0,6 C -1,1 C 96 % 999,9 hPa 0,0 l/m 12,9 km/h (3 Bft) S-SW 202 0 min 0,0 UV-I 0 W/m -1,2 C -6,3 C 17,7 km/h (3 Bft)
23.01.2021 01:43 -0,6 C -1,1 C 96 % 999,9 hPa 0,0 l/m 12,9 km/h (3 Bft) SW 225 0 min 0,0 UV-I 0 W/m -1,2 C -6,3 C 17,7 km/h (3 Bft)
23.01.2021 01:44 -0,6 C -1,1 C 96 % 999,9 hPa 0,0 l/m 11,3 km/h (2 Bft) S-SW 202 0 min 0,0 UV-I 0 W/m -1,2 C -5,2 C 16,1 km/h (3 Bft)
23.01.2021 01:45 -0,6 C -1,1 C 96 % 999,9 hPa 0,0 l/m 12,9 km/h (3 Bft) S-SW 202 0 min 0,0 UV-I 0 W/m -1,2 C -6,3 C 14,5 km/h (3 Bft)
23.01.2021 01:46 -0,6 C -1,1 C 96 % 999,9 hPa 0,0 l/m 11,3 km/h (2 Bft) S-SW 202 0 min 0,0 UV-I 0 W/m -1,2 C -5,2 C 14,5 km/h (3 Bft)
23.01.2021 01:47 -0,6 C -1,1 C 96 % 999,9 hPa 0,0 l/m 11,3 km/h (2 Bft) SW 225 0 min 0,0 UV-I 0 W/m -1,2 C -5,2 C 16,1 km/h (3 Bft)
23.01.2021 01:48 -0,6 C -1,1 C 96 % 1000,0 hPa 0,0 l/m 12,9 km/h (3 Bft) S-SW 202 0 min 0,0 UV-I 0 W/m -1,2 C -6,3 C 16,1 km/h (3 Bft)
23.01.2021 01:49 -0,6 C -0,6 C 96 % 999,9 hPa 0,0 l/m 11,3 km/h (2 Bft) SW 225 0 min 0,0 UV-I 0 W/m -1,2 C -5,2 C 16,1 km/h (3 Bft)
23.01.2021 01:50 -0,6 C -0,6 C 96 % 1000,0 hPa 0,0 l/m 12,9 km/h (3 Bft) SW 225 0 min 0,0 UV-I 0 W/m -1,2 C -6,3 C 16,1 km/h (3 Bft)
23.01.2021 01:51 -0,6 C -0,6 C 96 % 1000,0 hPa 0,0 l/m 11,3 km/h (2 Bft) S-SW 202 0 min 0,0 UV-I 0 W/m -1,2 C -5,2 C 12,9 km/h (3 Bft)
23.01.2021 01:52 -0,6 C -0,6 C 96 % 1000,0 hPa 0,0 l/m 11,3 km/h (2 Bft) SW 225 0 min 0,0 UV-I 0 W/m -1,2 C -5,2 C 16,1 km/h (3 Bft)
23.01.2021 01:53 -0,6 C -0,6 C 96 % 1000,1 hPa 0,0 l/m 11,3 km/h (2 Bft) S-SW 202 0 min 0,0 UV-I 0 W/m -1,2 C -5,2 C 14,5 km/h (3 Bft)
23.01.2021 01:54 -0,5 C -0,6 C 96 % 1000,1 hPa 0,0 l/m 9,7 km/h (2 Bft) S-SW 202 0 min 0,0 UV-I 0 W/m -1,1 C -3,7 C 16,1 km/h (3 Bft)
23.01.2021 01:55 -0,6 C -0,6 C 96 % 1000,1 hPa 0,0 l/m 6,4 km/h (2 Bft) SW 225 0 min 0,0 UV-I 0 W/m -1,2 C -0,6 C 8,0 km/h (2 Bft)
23.01.2021 01:56 -0,5 C -0,6 C 96 % 1000,0 hPa 0,0 l/m 9,7 km/h (2 Bft) SW 225 0 min 0,0 UV-I 0 W/m -1,1 C -3,7 C 17,7 km/h (3 Bft)
23.01.2021 01:57 -0,5 C -0,6 C 96 % 1000,1 hPa 0,0 l/m 9,7 km/h (2 Bft) S-SW 202 0 min 0,0 UV-I 0 W/m -1,1 C -3,7 C 16,1 km/h (3 Bft)
23.01.2021 01:58 -0,5 C -0,6 C 96 % 999,9 hPa 0,0 l/m 9,7 km/h (2 Bft) S-SW 202 0 min 0,0 UV-I 0 W/m -1,1 C -3,7 C 12,9 km/h (3 Bft)
23.01.2021 01:59 -0,5 C -0,6 C 96 % 1000,0 hPa 0,0 l/m 11,3 km/h (2 Bft) S-SW 202 0 min 0,0 UV-I 0 W/m -1,1 C -5,1 C 14,5 km/h (3 Bft)
23.01.2021 02:00 -0,5 C -0,6 C 96 % 1000,0 hPa 0,0 l/m 14,5 km/h (3 Bft) SW 225 0 min 0,0 UV-I 0 W/m -1,1 C -7,3 C 17,7 km/h (3 Bft)
23.01.2021 02:01 -0,5 C -0,6 C 96 % 1000,0 hPa 0,0 l/m 14,5 km/h (3 Bft) SW 225 0 min 0,0 UV-I 0 W/m -1,1 C -7,3 C 19,3 km/h (3 Bft)
23.01.2021 02:02 -0,4 C -0,6 C 96 % 1000,1 hPa 0,0 l/m 14,5 km/h (3 Bft) SW 225 0 min 0,0 UV-I 0 W/m -1,0 C -7,2 C 19,3 km/h (3 Bft)
23.01.2021 02:03 -0,4 C -0,6 C 96 % 1000,1 hPa 0,0 l/m 12,9 km/h (3 Bft) S-SW 202 0 min 0,0 UV-I 0 W/m -1,0 C -6,1 C 16,1 km/h (3 Bft)
23.01.2021 02:04 -0,4 C -0,6 C 96 % 1000,1 hPa 0,0 l/m 9,7 km/h (2 Bft) SW 225 0 min 0,0 UV-I 0 W/m -1,0 C -3,6 C 12,9 km/h (3 Bft)
23.01.2021 02:05 -0,4 C -0,6 C 96 % 1000,1 hPa 0,0 l/m 11,3 km/h (2 Bft) S-SW 202 0 min 0,0 UV-I 0 W/m -1,0 C -4,9 C 12,9 km/h (3 Bft)
23.01.2021 02:06 -0,4 C -0,6 C 96 % 1000,0 hPa 0,0 l/m 11,3 km/h (2 Bft) SW 225 0 min 0,0 UV-I 0 W/m -1,0 C -4,9 C 14,5 km/h (3 Bft)
23.01.2021 02:07 -0,4 C -0,6 C 96 % 1000,0 hPa 0,0 l/m 9,7 km/h (2 Bft) S-SW 202 0 min 0,0 UV-I 0 W/m -1,0 C -3,6 C 12,9 km/h (3 Bft)
23.01.2021 02:08 -0,4 C -0,6 C 96 % 1000,0 hPa 0,0 l/m 8,0 km/h (2 Bft) S-SW 202 0 min 0,0 UV-I 0 W/m -1,0 C -2,1 C 11,3 km/h (2 Bft)
23.01.2021 02:09 -0,4 C -0,6 C 96 % 1000,1 hPa 0,0 l/m 8,0 km/h (2 Bft) S-SW 202 0 min 0,0 UV-I 0 W/m -1,0 C -2,1 C 11,3 km/h (2 Bft)
23.01.2021 02:10 -0,4 C -0,6 C 96 % 1000,0 hPa 0,0 l/m 6,4 km/h (2 Bft) SW 225 0 min 0,0 UV-I 0 W/m -1,0 C -0,4 C 11,3 km/h (2 Bft)
23.01.2021 02:11 -0,4 C -0,6 C 96 % 1000,0 hPa 0,0 l/m 11,3 km/h (2 Bft) S-SW 202 0 min 0,0 UV-I 0 W/m -1,0 C -4,9 C 14,5 km/h (3 Bft)
23.01.2021 02:12 -0,4 C -0,6 C 96 % 1000,0 hPa 0,0 l/m 11,3 km/h (2 Bft) S-SW 202 0 min 0,0 UV-I 0 W/m -1,0 C -4,9 C 14,5 km/h (3 Bft)
23.01.2021 02:13 -0,4 C -0,6 C 96 % 1000,0 hPa 0,0 l/m 11,3 km/h (2 Bft) SW 225 0 min 0,0 UV-I 0 W/m -1,0 C -4,9 C 14,5 km/h (3 Bft)
23.01.2021 02:14 -0,4 C -0,6 C 96 % 1000,1 hPa 0,0 l/m 9,7 km/h (2 Bft) SW 225 0 min 0,0 UV-I 0 W/m -1,0 C -3,6 C 12,9 km/h (3 Bft)
23.01.2021 02:15 -0,4 C -0,6 C 96 % 1000,0 hPa 0,0 l/m 6,4 km/h (2 Bft) SW 225 0 min 0,0 UV-I 0 W/m -1,0 C -0,4 C 9,7 km/h (2 Bft)
23.01.2021 02:16 -0,4 C -0,6 C 96 % 1000,0 hPa 0,0 l/m 9,7 km/h (2 Bft) SW 225 0 min 0,0 UV-I 0 W/m -1,0 C -3,6 C 14,5 km/h (3 Bft)
23.01.2021 02:17 -0,4 C -0,6 C 96 % 1000,0 hPa 0,0 l/m 11,3 km/h (2 Bft) S-SW 202 0 min 0,0 UV-I 0 W/m -1,0 C -4,9 C 14,5 km/h (3 Bft)
23.01.2021 02:18 -0,4 C -0,6 C 96 % 1000,0 hPa 0,0 l/m 9,7 km/h (2 Bft) SW 225 0 min 0,0 UV-I 0 W/m -1,0 C -3,6 C 12,9 km/h (3 Bft)
23.01.2021 02:19 -0,4 C -0,6 C 96 % 1000,1 hPa 0,0 l/m 9,7 km/h (2 Bft) S-SW 202 0 min 0,0 UV-I 0 W/m -1,0 C -3,6 C 14,5 km/h (3 Bft)
23.01.2021 02:20 -0,4 C -0,6 C 96 % 1000,1 hPa 0,0 l/m 9,7 km/h (2 Bft) SW 225 0 min 0,0 UV-I 0 W/m -1,0 C -3,6 C 14,5 km/h (3 Bft)
23.01.2021 02:21 -0,3 C -0,6 C 96 % 1000,1 hPa 0,0 l/m 9,7 km/h (2 Bft) S-SW 202 0 min 0,0 UV-I 0 W/m -0,9 C -3,5 C 12,9 km/h (3 Bft)
23.01.2021 02:22 -0,3 C -0,6 C 96 % 1000,0 hPa 0,0 l/m 11,3 km/h (2 Bft) S-SW 202 0 min 0,0 UV-I 0 W/m -0,9 C -4,8 C 14,5 km/h (3 Bft)
23.01.2021 02:23 -0,3 C -0,6 C 96 % 1000,1 hPa 0,0 l/m 8,0 km/h (2 Bft) S-SW 202 0 min 0,0 UV-I 0 W/m -0,9 C -2,0 C 9,7 km/h (2 Bft)
23.01.2021 02:24 -0,3 C -0,6 C 96 % 1000,1 hPa 0,0 l/m 9,7 km/h (2 Bft) S-SW 202 0 min 0,0 UV-I 0 W/m -0,9 C -3,5 C 12,9 km/h (3 Bft)
23.01.2021 02:25 -0,3 C -0,6 C 96 % 1000,1 hPa 0,0 l/m 8,0 km/h (2 Bft) S-SW 202 0 min 0,0 UV-I 0 W/m -0,9 C -2,0 C 11,3 km/h (2 Bft)
23.01.2021 02:26 -0,3 C -0,6 C 96 % 1000,1 hPa 0,0 l/m 8,0 km/h (2 Bft) S-SW 202 0 min 0,0 UV-I 0 W/m -0,9 C -2,0 C 11,3 km/h (2 Bft)
23.01.2021 02:27 -0,3 C -0,6 C 96 % 1000,0 hPa 0,0 l/m 9,7 km/h (2 Bft) S-SW 202 0 min 0,0 UV-I 0 W/m -0,9 C -3,5 C 12,9 km/h (3 Bft)
23.01.2021 02:28 -0,3 C -0,6 C 96 % 1000,1 hPa 0,0 l/m 9,7 km/h (2 Bft) S-SW 202 0 min 0,0 UV-I 0 W/m -0,9 C -3,5 C 12,9 km/h (3 Bft)
23.01.2021 02:29 -0,3 C -0,6 C 96 % 1000,0 hPa 0,0 l/m 8,0 km/h (2 Bft) S-SW 202 0 min 0,0 UV-I 0 W/m -0,9 C -2,0 C 9,7 km/h (2 Bft)
23.01.2021 02:30 -0,3 C -0,6 C 96 % 1000,1 hPa 0,0 l/m 11,3 km/h (2 Bft) S-SW 202 0 min 0,0 UV-I 0 W/m -0,9 C -4,8 C 14,5 km/h (3 Bft)
23.01.2021 02:31 -0,3 C -0,6 C 96 % 1000,1 hPa 0,0 l/m 11,3 km/h (2 Bft) SW 225 0 min 0,0 UV-I 0 W/m -0,9 C -4,8 C 12,9 km/h (3 Bft)
23.01.2021 02:32 -0,3 C -0,6 C 96 % 1000,1 hPa 0,0 l/m 11,3 km/h (2 Bft) S-SW 202 0 min 0,0 UV-I 0 W/m -0,9 C -4,8 C 14,5 km/h (3 Bft)
23.01.2021 02:33 -0,3 C -0,6 C 96 % 1000,2 hPa 0,0 l/m 9,7 km/h (2 Bft) S-SW 202 0 min 0,0 UV-I 0 W/m -0,9 C -3,5 C 12,9 km/h (3 Bft)
23.01.2021 02:34 -0,3 C -0,6 C 96 % 1000,2 hPa 0,0 l/m 9,7 km/h (2 Bft) S-SW 202 0 min 0,0 UV-I 0 W/m -0,9 C -3,5 C 12,9 km/h (3 Bft)
23.01.2021 02:35 -0,3 C -0,6 C 96 % 1000,2 hPa 0,0 l/m 11,3 km/h (2 Bft) S-SW 202 0 min 0,0 UV-I 0 W/m -0,9 C -4,8 C 12,9 km/h (3 Bft)
23.01.2021 02:36 -0,3 C -0,6 C 96 % 1000,2 hPa 0,0 l/m 9,7 km/h (2 Bft) S-SW 202 0 min 0,0 UV-I 0 W/m -0,9 C -3,5 C 12,9 km/h (3 Bft)
23.01.2021 02:37 -0,3 C -0,6 C 96 % 1000,1 hPa 0,0 l/m 9,7 km/h (2 Bft) S-SW 202 0 min 0,0 UV-I 0 W/m -0,9 C -3,5 C 12,9 km/h (3 Bft)
23.01.2021 02:38 -0,3 C -0,6 C 96 % 1000,2 hPa 0,0 l/m 11,3 km/h (2 Bft) S-SW 202 0 min 0,0 UV-I 0 W/m -0,9 C -4,8 C 12,9 km/h (3 Bft)
23.01.2021 02:39 -0,3 C -0,6 C 96 % 1000,2 hPa 0,0 l/m 9,7 km/h (2 Bft) S-SW 202 0 min 0,0 UV-I 0 W/m -0,9 C -3,5 C 14,5 km/h (3 Bft)
23.01.2021 02:40 -0,3 C -0,6 C 96 % 1000,2 hPa 0,0 l/m 8,0 km/h (2 Bft) S-SW 202 0 min 0,0 UV-I 0 W/m -0,9 C -2,0 C 11,3 km/h (2 Bft)
23.01.2021 02:41 -0,2 C -0,6 C 96 % 1000,2 hPa 0,0 l/m 6,4 km/h (2 Bft) S-SW 202 0 min 0,0 UV-I 0 W/m -0,8 C -0,2 C 9,7 km/h (2 Bft)
23.01.2021 02:42 -0,3 C -0,6 C 96 % 1000,2 hPa 0,0 l/m 11,3 km/h (2 Bft) S-SW 202 0 min 0,0 UV-I 0 W/m -0,9 C -4,8 C 14,5 km/h (3 Bft)
23.01.2021 02:43 -0,3 C -0,6 C 96 % 1000,2 hPa 0,0 l/m 9,7 km/h (2 Bft) S-SW 202 0 min 0,0 UV-I 0 W/m -0,9 C -3,5 C 12,9 km/h (3 Bft)
23.01.2021 02:44 -0,3 C -0,6 C 96 % 1000,2 hPa 0,0 l/m 11,3 km/h (2 Bft) S-SW 202 0 min 0,0 UV-I 0 W/m -0,9 C -4,8 C 16,1 km/h (3 Bft)
23.01.2021 02:45 -0,2 C -0,6 C 96 % 1000,2 hPa 0,0 l/m 14,5 km/h (3 Bft) S-SW 202 0 min 0,0 UV-I 0 W/m -0,8 C -6,9 C 17,7 km/h (3 Bft)
23.01.2021 02:46 -0,3 C -0,6 C 96 % 1000,3 hPa 0,0 l/m 11,3 km/h (2 Bft) S-SW 202 0 min 0,0 UV-I 0 W/m -0,9 C -4,8 C 16,1 km/h (3 Bft)
23.01.2021 02:47 -0,2 C -0,6 C 96 % 1000,2 hPa 0,0 l/m 9,7 km/h (2 Bft) S-SW 202 0 min 0,0 UV-I 0 W/m -0,8 C -3,4 C 12,9 km/h (3 Bft)
23.01.2021 02:48 -0,2 C -0,6 C 96 % 1000,2 hPa 0,0 l/m 9,7 km/h (2 Bft) S-SW 202 0 min 0,0 UV-I 0 W/m -0,8 C -3,4 C 14,5 km/h (3 Bft)
23.01.2021 02:49 -0,2 C -0,6 C 96 % 1000,2 hPa 0,0 l/m 9,7 km/h (2 Bft) S 180 0 min 0,0 UV-I 0 W/m -0,8 C -3,4 C 12,9 km/h (3 Bft)
23.01.2021 02:50 -0,2 C -0,6 C 96 % 1000,1 hPa 0,0 l/m 9,7 km/h (2 Bft) S-SW 202 0 min 0,0 UV-I 0 W/m -0,8 C -3,4 C 11,3 km/h (2 Bft)
23.01.2021 02:51 -0,2 C -0,6 C 96 % 1000,2 hPa 0,0 l/m 9,7 km/h (2 Bft) S-SW 202 0 min 0,0 UV-I 0 W/m -0,8 C -3,4 C 12,9 km/h (3 Bft)
23.01.2021 02:52 -0,2 C -0,6 C 96 % 1000,1 hPa 0,0 l/m 14,5 km/h (3 Bft) S-SW 202 0 min 0,0 UV-I 0 W/m -0,8 C -6,9 C 22,5 km/h (4 Bft)
23.01.2021 02:53 -0,2 C -0,6 C 96 % 1000,1 hPa 0,0 l/m 11,3 km/h (2 Bft) S-SW 202 0 min 0,0 UV-I 0 W/m -0,8 C -4,7 C 24,1 km/h (4 Bft)
23.01.2021 02:54 -0,2 C -0,6 C 96 % 1000,1 hPa 0,0 l/m 9,7 km/h (2 Bft) S-SW 202 0 min 0,0 UV-I 0 W/m -0,8 C -3,4 C 11,3 km/h (2 Bft)
23.01.2021 02:55 -0,2 C -0,6 C 96 % 1000,2 hPa 0,0 l/m 8,0 km/h (2 Bft) S-SW 202 0 min 0,0 UV-I 0 W/m -0,8 C -1,9 C 17,7 km/h (3 Bft)
23.01.2021 02:56 -0,2 C -0,6 C 96 % 1000,1 hPa 0,0 l/m 11,3 km/h (2 Bft) S-SW 202 0 min 0,0 UV-I 0 W/m -0,8 C -4,7 C 17,7 km/h (3 Bft)
23.01.2021 02:57 -0,1 C -0,6 C 96 % 1000,1 hPa 0,0 l/m 12,9 km/h (3 Bft) S-SW 202 0 min 0,0 UV-I 0 W/m -0,7 C -5,8 C 14,5 km/h (3 Bft)
23.01.2021 02:58 -0,1 C -0,6 C 96 % 1000,2 hPa 0,0 l/m 9,7 km/h (2 Bft) S 180 0 min 0,0 UV-I 0 W/m -0,7 C -3,3 C 12,9 km/h (3 Bft)
23.01.2021 02:59 -0,1 C -0,6 C 96 % 1000,1 hPa 0,0 l/m 6,4 km/h (2 Bft) S-SW 202 0 min 0,0 UV-I 0 W/m -0,7 C -0,1 C 9,7 km/h (2 Bft)
23.01.2021 03:00 -0,1 C -0,6 C 96 % 1000,1 hPa 0,0 l/m 9,7 km/h (2 Bft) S-SW 202 0 min 0,0 UV-I 0 W/m -0,7 C -3,3 C 12,9 km/h (3 Bft)
23.01.2021 03:01 -0,1 C -0,6 C 96 % 1000,2 hPa 0,0 l/m 8,0 km/h (2 Bft) S-SW 202 0 min 0,0 UV-I 0 W/m -0,7 C -1,8 C 9,7 km/h (2 Bft)
23.01.2021 03:02 -0,1 C -0,6 C 96 % 1000,1 hPa 0,0 l/m 9,7 km/h (2 Bft) S 180 0 min 0,0 UV-I 0 W/m -0,7 C -3,3 C 12,9 km/h (3 Bft)
23.01.2021 03:03 -0,1 C -0,6 C 96 % 1000,1 hPa 0,0 l/m 6,4 km/h (2 Bft) S-SW 202 0 min 0,0 UV-I 0 W/m -0,7 C -0,1 C 9,7 km/h (2 Bft)
23.01.2021 03:04 -0,1 C -0,6 C 96 % 1000,1 hPa 0,0 l/m 8,0 km/h (2 Bft) S 180 0 min 0,0 UV-I 0 W/m -0,7 C -1,8 C 12,9 km/h (3 Bft)
23.01.2021 03:05 -0,1 C -0,6 C 96 % 1000,1 hPa 0,0 l/m 9,7 km/h (2 Bft) S-SW 202 0 min 0,0 UV-I 0 W/m -0,7 C -3,3 C 11,3 km/h (2 Bft)
23.01.2021 03:06 0,0 C -0,6 C 96 % 1000,1 hPa 0,0 l/m 11,3 km/h (2 Bft) S-SW 202 0 min 0,0 UV-I 0 W/m -0,6 C -4,5 C 16,1 km/h (3 Bft)
23.01.2021 03:07 -0,1 C -0,6 C 96 % 1000,1 hPa 0,0 l/m 14,5 km/h (3 Bft) S-SW 202 0 min 0,0 UV-I 0 W/m -0,7 C -6,8 C 17,7 km/h (3 Bft)
23.01.2021 03:08 -0,1 C 0,0 C 96 % 1000,1 hPa 0,0 l/m 12,9 km/h (3 Bft) S 180 0 min 0,0 UV-I 0 W/m -0,7 C -5,8 C 17,7 km/h (3 Bft)
23.01.2021 03:09 -0,1 C 0,0 C 96 % 1000,2 hPa 0,0 l/m 16,1 km/h (3 Bft) S-SW 202 0 min 0,0 UV-I 0 W/m -0,7 C -7,7 C 19,3 km/h (3 Bft)
23.01.2021 03:10 0,0 C 0,0 C 96 % 1000,1 hPa 0,0 l/m 11,3 km/h (2 Bft) S-SW 202 0 min 0,0 UV-I 0 W/m -0,6 C -4,5 C 16,1 km/h (3 Bft)
23.01.2021 03:11 0,0 C 0,0 C 96 % 1000,1 hPa 0,0 l/m 14,5 km/h (3 Bft) S-SW 202 0 min 0,0 UV-I 0 W/m -0,6 C -6,7 C 19,3 km/h (3 Bft)
23.01.2021 03:12 0,0 C 0,0 C 96 % 1000,1 hPa 0,0 l/m 11,3 km/h (2 Bft) S-SW 202 0 min 0,0 UV-I 0 W/m -0,6 C -4,5 C 14,5 km/h (3 Bft)
23.01.2021 03:13 0,1 C 0,0 C 96 % 1000,1 hPa 0,0 l/m 12,9 km/h (3 Bft) SW 225 0 min 0,0 UV-I 0 W/m -0,5 C -5,5 C 16,1 km/h (3 Bft)
23.01.2021 03:14 0,1 C 0,0 C 96 % 1000,2 hPa 0,0 l/m 11,3 km/h (2 Bft) S-SW 202 0 min 0,0 UV-I 0 W/m -0,5 C -4,4 C 14,5 km/h (3 Bft)
23.01.2021 03:15 0,1 C 0,0 C 96 % 1000,1 hPa 0,0 l/m 9,7 km/h (2 Bft) S-SW 202 0 min 0,0 UV-I 0 W/m -0,5 C -3,1 C 14,5 km/h (3 Bft)
23.01.2021 03:16 0,1 C 0,0 C 96 % 1000,0 hPa 0,0 l/m 12,9 km/h (3 Bft) S-SW 202 0 min 0,0 UV-I 0 W/m -0,5 C -5,5 C 19,3 km/h (3 Bft)
23.01.2021 03:17 0,1 C 0,0 C 96 % 1000,1 hPa 0,0 l/m 17,7 km/h (3 Bft) S-SW 202 0 min 0,0 UV-I 0 W/m -0,5 C -8,4 C 22,5 km/h (4 Bft)
23.01.2021 03:18 0,1 C 0,0 C 96 % 1000,1 hPa 0,0 l/m 16,1 km/h (3 Bft) S-SW 202 0 min 0,0 UV-I 0 W/m -0,5 C -7,5 C 19,3 km/h (3 Bft)
23.01.2021 03:19 0,1 C 0,0 C 96 % 1000,1 hPa 0,0 l/m 9,7 km/h (2 Bft) S-SW 202 0 min 0,0 UV-I 0 W/m -0,5 C -3,1 C 14,5 km/h (3 Bft)
23.01.2021 03:20 0,1 C 0,0 C 96 % 1000,1 hPa 0,0 l/m 16,1 km/h (3 Bft) S-SW 202 0 min 0,0 UV-I 0 W/m -0,5 C -7,5 C 22,5 km/h (4 Bft)
23.01.2021 03:21 0,1 C 0,0 C 96 % 1000,1 hPa 0,0 l/m 12,9 km/h (3 Bft) S-SW 202 0 min 0,0 UV-I 0 W/m -0,5 C -5,5 C 19,3 km/h (3 Bft)
23.01.2021 03:22 0,1 C 0,0 C 96 % 1000,1 hPa 0,0 l/m 14,5 km/h (3 Bft) SW 225 0 min 0,0 UV-I 0 W/m -0,5 C -6,6 C 19,3 km/h (3 Bft)
23.01.2021 03:23 0,1 C 0,0 C 96 % 1000,0 hPa 0,0 l/m 16,1 km/h (3 Bft) S-SW 202 0 min 0,0 UV-I 0 W/m -0,5 C -7,5 C 20,9 km/h (4 Bft)
23.01.2021 03:24 0,1 C 0,0 C 96 % 1000,2 hPa 0,0 l/m 14,5 km/h (3 Bft) S-SW 202 0 min 0,0 UV-I 0 W/m -0,5 C -6,6 C 19,3 km/h (3 Bft)
23.01.2021 03:25 0,1 C 0,0 C 96 % 1000,1 hPa 0,0 l/m 14,5 km/h (3 Bft) S-SW 202 0 min 0,0 UV-I 0 W/m -0,5 C -6,6 C 24,1 km/h (4 Bft)
23.01.2021 03:26 0,2 C 0,0 C 96 % 1000,1 hPa 0,0 l/m 14,5 km/h (3 Bft) S-SW 202 0 min 0,0 UV-I 0 W/m -0,4 C -6,4 C 19,3 km/h (3 Bft)
23.01.2021 03:27 0,2 C 0,0 C 96 % 1000,2 hPa 0,0 l/m 16,1 km/h (3 Bft) S-SW 202 0 min 0,0 UV-I 0 W/m -0,4 C -7,4 C 19,3 km/h (3 Bft)
23.01.2021 03:28 0,2 C 0,0 C 96 % 1000,2 hPa 0,0 l/m 14,5 km/h (3 Bft) S-SW 202 0 min 0,0 UV-I 0 W/m -0,4 C -6,4 C 19,3 km/h (3 Bft)
23.01.2021 03:29 0,2 C 0,0 C 96 % 1000,2 hPa 0,0 l/m 11,3 km/h (2 Bft) S-SW 202 0 min 0,0 UV-I 0 W/m -0,4 C -4,3 C 17,7 km/h (3 Bft)
23.01.2021 03:30 0,2 C 0,0 C 96 % 1000,1 hPa 0,0 l/m 9,7 km/h (2 Bft) S 180 0 min 0,0 UV-I 0 W/m -0,4 C -3,0 C 14,5 km/h (3 Bft)
23.01.2021 03:31 0,2 C 0,0 C 96 % 1000,1 hPa 0,0 l/m 9,7 km/h (2 Bft) SW 225 0 min 0,0 UV-I 0 W/m -0,4 C -3,0 C 16,1 km/h (3 Bft)
23.01.2021 03:32 0,2 C 0,0 C 96 % 1000,2 hPa 0,0 l/m 12,9 km/h (3 Bft) S-SW 202 0 min 0,0 UV-I 0 W/m -0,4 C -5,4 C 19,3 km/h (3 Bft)
23.01.2021 03:33 0,2 C 0,0 C 96 % 1000,2 hPa 0,0 l/m 11,3 km/h (2 Bft) S-SW 202 0 min 0,0 UV-I 0 W/m -0,4 C -4,3 C 14,5 km/h (3 Bft)
23.01.2021 03:34 0,2 C 0,0 C 96 % 1000,2 hPa 0,0 l/m 9,7 km/h (2 Bft) S-SW 202 0 min 0,0 UV-I 0 W/m -0,4 C -3,0 C 16,1 km/h (3 Bft)
23.01.2021 03:35 0,2 C 0,0 C 96 % 1000,1 hPa 0,0 l/m 11,3 km/h (2 Bft) S 180 0 min 0,0 UV-I 0 W/m -0,4 C -4,3 C 16,1 km/h (3 Bft)
23.01.2021 03:36 0,3 C 0,0 C 96 % 1000,2 hPa 0,0 l/m 14,5 km/h (3 Bft) S-SW 202 0 min 0,0 UV-I 0 W/m -0,3 C -6,3 C 19,3 km/h (3 Bft)
23.01.2021 03:37 0,3 C 0,0 C 96 % 1000,1 hPa 0,0 l/m 9,7 km/h (2 Bft) S-SW 202 0 min 0,0 UV-I 0 W/m -0,3 C -2,9 C 17,7 km/h (3 Bft)
23.01.2021 03:38 0,3 C 0,0 C 96 % 1000,1 hPa 0,0 l/m 12,9 km/h (3 Bft) S-SW 202 0 min 0,0 UV-I 0 W/m -0,3 C -5,3 C 16,1 km/h (3 Bft)
23.01.2021 03:39 0,3 C 0,0 C 96 % 1000,2 hPa 0,0 l/m 17,7 km/h (3 Bft) S-SW 202 0 min 0,0 UV-I 0 W/m -0,3 C -8,1 C 25,7 km/h (4 Bft)
23.01.2021 03:40 0,3 C 0,0 C 96 % 1000,1 hPa 0,0 l/m 16,1 km/h (3 Bft) S-SW 202 0 min 0,0 UV-I 0 W/m -0,3 C -7,3 C 22,5 km/h (4 Bft)
23.01.2021 03:41 0,3 C 0,0 C 96 % 1000,2 hPa 0,0 l/m 11,3 km/h (2 Bft) S-SW 202 0 min 0,0 UV-I 0 W/m -0,3 C -4,1 C 17,7 km/h (3 Bft)
23.01.2021 03:42 0,3 C 0,0 C 96 % 1000,2 hPa 0,0 l/m 12,9 km/h (3 Bft) S-SW 202 0 min 0,0 UV-I 0 W/m -0,3 C -5,3 C 19,3 km/h (3 Bft)
23.01.2021 03:43 0,3 C 0,0 C 96 % 1000,2 hPa 0,0 l/m 12,9 km/h (3 Bft) S-SW 202 0 min 0,0 UV-I 0 W/m -0,3 C -5,3 C 19,3 km/h (3 Bft)
23.01.2021 03:44 0,3 C 0,0 C 96 % 1000,1 hPa 0,0 l/m 16,1 km/h (3 Bft) S-SW 202 0 min 0,0 UV-I 0 W/m -0,3 C -7,3 C 19,3 km/h (3 Bft)
23.01.2021 03:45 0,3 C 0,0 C 96 % 1000,1 hPa 0,0 l/m 12,9 km/h (3 Bft) S-SW 202 0 min 0,0 UV-I 0 W/m -0,3 C -5,3 C 20,9 km/h (4 Bft)
23.01.2021 03:46 0,3 C 0,0 C 96 % 1000,1 hPa 0,0 l/m 16,1 km/h (3 Bft) S-SW 202 0 min 0,0 UV-I 0 W/m -0,3 C -7,3 C 19,3 km/h (3 Bft)
23.01.2021 03:47 0,3 C 0,0 C 96 % 1000,2 hPa 0,0 l/m 16,1 km/h (3 Bft) S 180 0 min 0,0 UV-I 0 W/m -0,3 C -7,3 C 27,4 km/h (4 Bft)
23.01.2021 03:48 0,4 C 0,0 C 96 % 1000,2 hPa 0,0 l/m 14,5 km/h (3 Bft) S 180 0 min 0,0 UV-I 0 W/m -0,2 C -6,2 C 20,9 km/h (4 Bft)
23.01.2021 03:49 0,4 C 0,0 C 96 % 1000,1 hPa 0,0 l/m 14,5 km/h (3 Bft) S-SW 202 0 min 0,0 UV-I 0 W/m -0,2 C -6,2 C 25,7 km/h (4 Bft)
23.01.2021 03:50 0,4 C 0,0 C 96 % 1000,1 hPa 0,0 l/m 16,1 km/h (3 Bft) S-SW 202 0 min 0,0 UV-I 0 W/m -0,2 C -7,1 C 20,9 km/h (4 Bft)
23.01.2021 03:51 0,4 C 0,0 C 96 % 1000,1 hPa 0,0 l/m 11,3 km/h (2 Bft) S-SW 202 0 min 0,0 UV-I 0 W/m -0,2 C -4,0 C 17,7 km/h (3 Bft)
23.01.2021 03:52 0,3 C 0,0 C 96 % 1000,2 hPa 0,0 l/m 12,9 km/h (3 Bft) S-SW 202 0 min 0,0 UV-I 0 W/m -0,3 C -5,3 C 19,3 km/h (3 Bft)
23.01.2021 03:53 0,4 C 0,0 C 96 % 1000,1 hPa 0,0 l/m 11,3 km/h (2 Bft) S-SW 202 0 min 0,0 UV-I 0 W/m -0,2 C -4,0 C 17,7 km/h (3 Bft)
23.01.2021 03:54 0,4 C 0,0 C 96 % 1000,2 hPa 0,0 l/m 12,9 km/h (3 Bft) S-SW 202 0 min 0,0 UV-I 0 W/m -0,2 C -5,2 C 19,3 km/h (3 Bft)
23.01.2021 03:55 0,4 C 0,0 C 96 % 1000,2 hPa 0,0 l/m 12,9 km/h (3 Bft) S-SW 202 0 min 0,0 UV-I 0 W/m -0,2 C -5,2 C 19,3 km/h (3 Bft)
23.01.2021 03:56 0,4 C 0,0 C 96 % 1000,1 hPa 0,0 l/m 12,9 km/h (3 Bft) S-SW 202 0 min 0,0 UV-I 0 W/m -0,2 C -5,2 C 20,9 km/h (4 Bft)
23.01.2021 03:57 0,4 C 0,0 C 96 % 1000,0 hPa 0,0 l/m 14,5 km/h (3 Bft) S-SW 202 0 min 0,0 UV-I 0 W/m -0,2 C -6,2 C 17,7 km/h (3 Bft)
23.01.2021 03:58 0,4 C 0,0 C 96 % 1000,1 hPa 0,0 l/m 11,3 km/h (2 Bft) S-SW 202 0 min 0,0 UV-I 0 W/m -0,2 C -4,0 C 17,7 km/h (3 Bft)
23.01.2021 03:59 0,4 C 0,0 C 96 % 1000,1 hPa 0,0 l/m 12,9 km/h (3 Bft) S-SW 202 0 min 0,0 UV-I 0 W/m -0,2 C -5,2 C 17,7 km/h (3 Bft)
23.01.2021 04:00 0,4 C 0,0 C 96 % 1000,1 hPa 0,0 l/m 14,5 km/h (3 Bft) S 180 0 min 0,0 UV-I 0 W/m -0,2 C -6,2 C 22,5 km/h (4 Bft)
23.01.2021 04:01 0,4 C 0,0 C 96 % 1000,1 hPa 0,0 l/m 16,1 km/h (3 Bft) S-SW 202 0 min 0,0 UV-I 0 W/m -0,2 C -7,1 C 20,9 km/h (4 Bft)
23.01.2021 04:02 0,4 C 0,0 C 96 % 1000,2 hPa 0,0 l/m 16,1 km/h (3 Bft) S-SW 202 0 min 0,0 UV-I 0 W/m -0,2 C -7,1 C 22,5 km/h (4 Bft)
23.01.2021 04:03 0,4 C 0,0 C 96 % 1000,0 hPa 0,0 l/m 17,7 km/h (3 Bft) S-SW 202 0 min 0,0 UV-I 0 W/m -0,2 C -8,0 C 22,5 km/h (4 Bft)
23.01.2021 04:04 0,4 C 0,0 C 96 % 1000,0 hPa 0,0 l/m 14,5 km/h (3 Bft) S-SW 202 0 min 0,0 UV-I 0 W/m -0,2 C -6,2 C 22,5 km/h (4 Bft)
23.01.2021 04:05 0,4 C 0,0 C 96 % 1000,1 hPa 0,0 l/m 12,9 km/h (3 Bft) S 180 0 min 0,0 UV-I 0 W/m -0,2 C -5,2 C 16,1 km/h (3 Bft)
23.01.2021 04:06 0,4 C 0,0 C 96 % 1000,0 hPa 0,0 l/m 12,9 km/h (3 Bft) S-SW 202 0 min 0,0 UV-I 0 W/m -0,2 C -5,2 C 22,5 km/h (4 Bft)
23.01.2021 04:07 0,4 C 0,0 C 96 % 1000,1 hPa 0,0 l/m 14,5 km/h (3 Bft) S-SW 202 0 min 0,0 UV-I 0 W/m -0,2 C -6,2 C 19,3 km/h (3 Bft)
23.01.2021 04:08 0,4 C 0,0 C 96 % 1000,1 hPa 0,0 l/m 11,3 km/h (2 Bft) S-SW 202 0 min 0,0 UV-I 0 W/m -0,2 C -4,0 C 14,5 km/h (3 Bft)
23.01.2021 04:09 0,4 C 0,0 C 96 % 1000,0 hPa 0,0 l/m 11,3 km/h (2 Bft) S-SW 202 0 min 0,0 UV-I 0 W/m -0,2 C -4,0 C 16,1 km/h (3 Bft)
23.01.2021 04:10 0,4 C 0,0 C 96 % 1000,0 hPa 0,0 l/m 11,3 km/h (2 Bft) S-SW 202 0 min 0,0 UV-I 0 W/m -0,2 C -4,0 C 19,3 km/h (3 Bft)
23.01.2021 04:11 0,4 C 0,0 C 96 % 1000,1 hPa 0,0 l/m 16,1 km/h (3 Bft) S-SW 202 0 min 0,0 UV-I 0 W/m -0,2 C -7,1 C 24,1 km/h (4 Bft)
23.01.2021 04:12 0,4 C 0,0 C 96 % 1000,1 hPa 0,0 l/m 12,9 km/h (3 Bft) S-SW 202 0 min 0,0 UV-I 0 W/m -0,2 C -5,2 C 17,7 km/h (3 Bft)
23.01.2021 04:13 0,4 C 0,0 C 96 % 1000,1 hPa 0,0 l/m 12,9 km/h (3 Bft) S-SW 202 0 min 0,0 UV-I 0 W/m -0,2 C -5,2 C 16,1 km/h (3 Bft)
23.01.2021 04:14 0,4 C 0,0 C 96 % 1000,1 hPa 0,0 l/m 11,3 km/h (2 Bft) S-SW 202 0 min 0,0 UV-I 0 W/m -0,2 C -4,0 C 16,1 km/h (3 Bft)
23.01.2021 04:15 0,4 C 0,0 C 96 % 1000,1 hPa 0,0 l/m 11,3 km/h (2 Bft) S-SW 202 0 min 0,0 UV-I 0 W/m -0,2 C -4,0 C 14,5 km/h (3 Bft)
23.01.2021 04:16 0,4 C 0,0 C 96 % 1000,1 hPa 0,0 l/m 14,5 km/h (3 Bft) S-SW 202 0 min 0,0 UV-I 0 W/m -0,2 C -6,2 C 19,3 km/h (3 Bft)
23.01.2021 04:17 0,4 C 0,0 C 96 % 1000,0 hPa 0,0 l/m 14,5 km/h (3 Bft) S-SW 202 0 min 0,0 UV-I 0 W/m -0,2 C -6,2 C 19,3 km/h (3 Bft)
23.01.2021 04:18 0,4 C 0,0 C 96 % 1000,0 hPa 0,0 l/m 12,9 km/h (3 Bft) S-SW 202 0 min 0,0 UV-I 0 W/m -0,2 C -5,2 C 17,7 km/h (3 Bft)
23.01.2021 04:19 0,4 C 0,0 C 96 % 1000,1 hPa 0,0 l/m 11,3 km/h (2 Bft) S-SW 202 0 min 0,0 UV-I 0 W/m -0,2 C -4,0 C 17,7 km/h (3 Bft)
23.01.2021 04:20 0,4 C 0,0 C 96 % 1000,0 hPa 0,0 l/m 16,1 km/h (3 Bft) S-SW 202 0 min 0,0 UV-I 0 W/m -0,2 C -7,1 C 24,1 km/h (4 Bft)
23.01.2021 04:21 0,4 C 0,0 C 96 % 1000,0 hPa 0,0 l/m 14,5 km/h (3 Bft) S-SW 202 0 min 0,0 UV-I 0 W/m -0,2 C -6,2 C 17,7 km/h (3 Bft)
23.01.2021 04:22 0,4 C 0,0 C 96 % 1000,0 hPa 0,0 l/m 9,7 km/h (2 Bft) S-SW 202 0 min 0,0 UV-I 0 W/m -0,2 C -2,8 C 16,1 km/h (3 Bft)
23.01.2021 04:23 0,4 C 0,0 C 96 % 1000,0 hPa 0,0 l/m 9,7 km/h (2 Bft) S-SW 202 0 min 0,0 UV-I 0 W/m -0,2 C -2,8 C 16,1 km/h (3 Bft)
23.01.2021 04:24 0,4 C 0,0 C 96 % 1000,0 hPa 0,0 l/m 12,9 km/h (3 Bft) S 180 0 min 0,0 UV-I 0 W/m -0,2 C -5,2 C 16,1 km/h (3 Bft)
23.01.2021 04:25 0,4 C 0,0 C 96 % 1000,0 hPa 0,0 l/m 11,3 km/h (2 Bft) S-SW 202 0 min 0,0 UV-I 0 W/m -0,2 C -4,0 C 16,1 km/h (3 Bft)
23.01.2021 04:26 0,4 C 0,0 C 96 % 999,9 hPa 0,0 l/m 11,3 km/h (2 Bft) S-SW 202 0 min 0,0 UV-I 0 W/m -0,2 C -4,0 C 16,1 km/h (3 Bft)
23.01.2021 04:27 0,4 C 0,0 C 96 % 1000,0 hPa 0,0 l/m 11,3 km/h (2 Bft) S-SW 202 0 min 0,0 UV-I 0 W/m -0,2 C -4,0 C 16,1 km/h (3 Bft)
23.01.2021 04:28 0,4 C 0,0 C 96 % 999,9 hPa 0,0 l/m 14,5 km/h (3 Bft) S-SW 202 0 min 0,0 UV-I 0 W/m -0,2 C -6,2 C 19,3 km/h (3 Bft)
23.01.2021 04:29 0,4 C 0,0 C 96 % 999,9 hPa 0,0 l/m 16,1 km/h (3 Bft) S-SW 202 0 min 0,0 UV-I 0 W/m -0,2 C -7,1 C 20,9 km/h (4 Bft)
23.01.2021 04:30 0,5 C 0,0 C 96 % 999,9 hPa 0,0 l/m 14,5 km/h (3 Bft) S-SW 202 0 min 0,0 UV-I 0 W/m -0,1 C -6,1 C 19,3 km/h (3 Bft)
23.01.2021 04:31 0,4 C 0,0 C 96 % 999,9 hPa 0,0 l/m 12,9 km/h (3 Bft) S-SW 202 0 min 0,0 UV-I 0 W/m -0,2 C -5,2 C 17,7 km/h (3 Bft)
23.01.2021 04:32 0,5 C 0,0 C 96 % 999,9 hPa 0,0 l/m 9,7 km/h (2 Bft) S 180 0 min 0,0 UV-I 0 W/m -0,1 C -2,6 C 17,7 km/h (3 Bft)
23.01.2021 04:33 0,4 C 0,0 C 96 % 999,9 hPa 0,0 l/m 12,9 km/h (3 Bft) S-SW 202 0 min 0,0 UV-I 0 W/m -0,2 C -5,2 C 16,1 km/h (3 Bft)
23.01.2021 04:34 0,4 C 0,0 C 96 % 999,9 hPa 0,0 l/m 11,3 km/h (2 Bft) S-SW 202 0 min 0,0 UV-I 0 W/m -0,2 C -4,0 C 12,9 km/h (3 Bft)
23.01.2021 04:35 0,4 C 0,0 C 96 % 999,9 hPa 0,0 l/m 11,3 km/h (2 Bft) S-SW 202 0 min 0,0 UV-I 0 W/m -0,2 C -4,0 C 14,5 km/h (3 Bft)
23.01.2021 04:36 0,4 C 0,0 C 96 % 999,9 hPa 0,0 l/m 9,7 km/h (2 Bft) S-SW 202 0 min 0,0 UV-I 0 W/m -0,2 C -2,8 C 16,1 km/h (3 Bft)
23.01.2021 04:37 0,4 C 0,0 C 96 % 999,9 hPa 0,0 l/m 12,9 km/h (3 Bft) S 180 0 min 0,0 UV-I 0 W/m -0,2 C -5,2 C 17,7 km/h (3 Bft)
23.01.2021 04:38 0,4 C 0,0 C 96 % 999,8 hPa 0,0 l/m 6,4 km/h (2 Bft) S 180 0 min 0,0 UV-I 0 W/m -0,2 C 0,4 C 12,9 km/h (3 Bft)
23.01.2021 04:39 0,4 C 0,0 C 96 % 999,9 hPa 0,0 l/m 6,4 km/h (2 Bft) S-SW 202 0 min 0,0 UV-I 0 W/m -0,2 C 0,4 C 9,7 km/h (2 Bft)
23.01.2021 04:40 0,4 C 0,0 C 96 % 999,9 hPa 0,0 l/m 12,9 km/h (3 Bft) S-SW 202 0 min 0,0 UV-I 0 W/m -0,2 C -5,2 C 16,1 km/h (3 Bft)
23.01.2021 04:41 0,4 C 0,0 C 96 % 999,9 hPa 0,0 l/m 12,9 km/h (3 Bft) S-SW 202 0 min 0,0 UV-I 0 W/m -0,2 C -5,2 C 17,7 km/h (3 Bft)
23.01.2021 04:42 0,4 C 0,0 C 96 % 999,9 hPa 0,0 l/m 12,9 km/h (3 Bft) S-SW 202 0 min 0,0 UV-I 0 W/m -0,2 C -5,2 C 17,7 km/h (3 Bft)
23.01.2021 04:43 0,4 C 0,0 C 96 % 999,9 hPa 0,0 l/m 12,9 km/h (3 Bft) S 180 0 min 0,0 UV-I 0 W/m -0,2 C -5,2 C 17,7 km/h (3 Bft)
23.01.2021 04:44 0,4 C 0,0 C 96 % 999,9 hPa 0,0 l/m 12,9 km/h (3 Bft) S 180 0 min 0,0 UV-I 0 W/m -0,2 C -5,2 C 19,3 km/h (3 Bft)
23.01.2021 04:45 0,4 C 0,0 C 96 % 999,9 hPa 0,0 l/m 11,3 km/h (2 Bft) S-SW 202 0 min 0,0 UV-I 0 W/m -0,2 C -4,0 C 14,5 km/h (3 Bft)
23.01.2021 04:46 0,4 C 0,0 C 96 % 999,9 hPa 0,0 l/m 12,9 km/h (3 Bft) S 180 0 min 0,0 UV-I 0 W/m -0,2 C -5,2 C 17,7 km/h (3 Bft)
23.01.2021 04:47 0,4 C 0,0 C 96 % 999,8 hPa 0,0 l/m 11,3 km/h (2 Bft) S-SW 202 0 min 0,0 UV-I 0 W/m -0,2 C -4,0 C 14,5 km/h (3 Bft)
23.01.2021 04:48 0,4 C 0,0 C 96 % 999,9 hPa 0,0 l/m 9,7 km/h (2 Bft) S 180 0 min 0,0 UV-I 0 W/m -0,2 C -2,8 C 14,5 km/h (3 Bft)
23.01.2021 04:49 0,4 C 0,0 C 96 % 999,8 hPa 0,0 l/m 8,0 km/h (2 Bft) S 180 0 min 0,0 UV-I 0 W/m -0,2 C -1,2 C 11,3 km/h (2 Bft)
23.01.2021 04:50 0,4 C 0,0 C 96 % 999,9 hPa 0,0 l/m 9,7 km/h (2 Bft) S 180 0 min 0,0 UV-I 0 W/m -0,2 C -2,8 C 16,1 km/h (3 Bft)
23.01.2021 04:51 0,4 C 0,0 C 96 % 999,9 hPa 0,0 l/m 12,9 km/h (3 Bft) S 180 0 min 0,0 UV-I 0 W/m -0,2 C -5,2 C 19,3 km/h (3 Bft)
23.01.2021 04:52 0,4 C 0,0 C 96 % 999,9 hPa 0,0 l/m 8,0 km/h (2 Bft) S 180 0 min 0,0 UV-I 0 W/m -0,2 C -1,2 C 11,3 km/h (2 Bft)
23.01.2021 04:53 0,4 C 0,0 C 96 % 999,8 hPa 0,0 l/m 9,7 km/h (2 Bft) S-SW 202 0 min 0,0 UV-I 0 W/m -0,2 C -2,8 C 12,9 km/h (3 Bft)
23.01.2021 04:54 0,4 C 0,0 C 96 % 999,9 hPa 0,0 l/m 11,3 km/h (2 Bft) S-SW 202 0 min 0,0 UV-I 0 W/m -0,2 C -4,0 C 14,5 km/h (3 Bft)
23.01.2021 04:55 0,4 C 0,0 C 96 % 999,9 hPa 0,0 l/m 11,3 km/h (2 Bft) S 180 0 min 0,0 UV-I 0 W/m -0,2 C -4,0 C 14,5 km/h (3 Bft)
23.01.2021 04:56 0,4 C 0,0 C 96 % 999,9 hPa 0,0 l/m 8,0 km/h (2 Bft) S-SO 157 0 min 0,0 UV-I 0 W/m -0,2 C -1,2 C 12,9 km/h (3 Bft)
23.01.2021 04:57 0,4 C 0,0 C 96 % 999,8 hPa 0,0 l/m 14,5 km/h (3 Bft) S-SO 157 0 min 0,0 UV-I 0 W/m -0,2 C -6,2 C 19,3 km/h (3 Bft)
23.01.2021 04:58 0,4 C 0,0 C 96 % 999,8 hPa 0,0 l/m 8,0 km/h (2 Bft) S-SO 157 0 min 0,0 UV-I 0 W/m -0,2 C -1,2 C 16,1 km/h (3 Bft)
23.01.2021 04:59 0,4 C 0,0 C 96 % 999,8 hPa 0,0 l/m 12,9 km/h (3 Bft) S-SO 157 0 min 0,0 UV-I 0 W/m -0,2 C -5,2 C 17,7 km/h (3 Bft)
23.01.2021 05:00 0,4 C 0,0 C 96 % 999,8 hPa 0,0 l/m 11,3 km/h (2 Bft) S 180 0 min 0,0 UV-I 0 W/m -0,2 C -4,0 C 14,5 km/h (3 Bft)
23.01.2021 05:01 0,4 C 0,0 C 96 % 999,7 hPa 0,0 l/m 12,9 km/h (3 Bft) S 180 0 min 0,0 UV-I 0 W/m -0,2 C -5,2 C 19,3 km/h (3 Bft)
23.01.2021 05:02 0,5 C 0,0 C 96 % 999,8 hPa 0,0 l/m 12,9 km/h (3 Bft) S-SO 157 0 min 0,0 UV-I 0 W/m -0,1 C -5,0 C 17,7 km/h (3 Bft)
23.01.2021 05:03 0,4 C 0,0 C 96 % 999,7 hPa 0,0 l/m 12,9 km/h (3 Bft) S-SO 157 0 min 0,0 UV-I 0 W/m -0,2 C -5,2 C 17,7 km/h (3 Bft)
23.01.2021 05:04 0,4 C 0,0 C 96 % 999,7 hPa 0,0 l/m 11,3 km/h (2 Bft) S-SO 157 0 min 0,0 UV-I 0 W/m -0,2 C -4,0 C 17,7 km/h (3 Bft)
23.01.2021 05:05 0,4 C 0,0 C 96 % 999,7 hPa 0,0 l/m 9,7 km/h (2 Bft) S-SO 157 0 min 0,0 UV-I 0 W/m -0,2 C -2,8 C 12,9 km/h (3 Bft)
23.01.2021 05:06 0,4 C 0,0 C 96 % 999,7 hPa 0,0 l/m 9,7 km/h (2 Bft) S-SO 157 0 min 0,0 UV-I 0 W/m -0,2 C -2,8 C 14,5 km/h (3 Bft)
23.01.2021 05:07 0,5 C 0,0 C 96 % 999,7 hPa 0,0 l/m 9,7 km/h (2 Bft) S-SO 157 0 min 0,0 UV-I 0 W/m -0,1 C -2,6 C 12,9 km/h (3 Bft)
23.01.2021 05:08 0,4 C 0,0 C 96 % 999,7 hPa 0,0 l/m 8,0 km/h (2 Bft) S-SO 157 0 min 0,0 UV-I 0 W/m -0,2 C -1,2 C 12,9 km/h (3 Bft)
23.01.2021 05:09 0,5 C 0,0 C 96 % 999,7 hPa 0,0 l/m 8,0 km/h (2 Bft) S-SO 157 0 min 0,0 UV-I 0 W/m -0,1 C -1,1 C 12,9 km/h (3 Bft)
23.01.2021 05:10 0,4 C 0,0 C 96 % 999,7 hPa 0,0 l/m 8,0 km/h (2 Bft) S-SO 157 0 min 0,0 UV-I 0 W/m -0,2 C -1,2 C 11,3 km/h (2 Bft)
23.01.2021 05:11 0,4 C 0,0 C 96 % 999,7 hPa 0,0 l/m 8,0 km/h (2 Bft) S-SO 157 0 min 0,0 UV-I 0 W/m -0,2 C -1,2 C 9,7 km/h (2 Bft)
23.01.2021 05:12 0,5 C 0,0 C 96 % 999,6 hPa 0,0 l/m 8,0 km/h (2 Bft) S-SO 157 0 min 0,0 UV-I 0 W/m -0,1 C -1,1 C 11,3 km/h (2 Bft)
23.01.2021 05:13 0,5 C 0,0 C 96 % 999,8 hPa 0,0 l/m 6,4 km/h (2 Bft) S 180 0 min 0,0 UV-I 0 W/m -0,1 C 0,5 C 9,7 km/h (2 Bft)
23.01.2021 05:14 0,5 C 0,0 C 96 % 999,8 hPa 0,0 l/m 9,7 km/h (2 Bft) S-SO 157 0 min 0,0 UV-I 0 W/m -0,1 C -2,6 C 12,9 km/h (3 Bft)
23.01.2021 05:15 0,5 C 0,0 C 96 % 999,7 hPa 0,0 l/m 9,7 km/h (2 Bft) S-SO 157 0 min 0,0 UV-I 0 W/m -0,1 C -2,6 C 12,9 km/h (3 Bft)
23.01.2021 05:16 0,5 C 0,0 C 96 % 999,7 hPa 0,0 l/m 6,4 km/h (2 Bft) S 180 0 min 0,0 UV-I 0 W/m -0,1 C 0,5 C 11,3 km/h (2 Bft)
23.01.2021 05:17 0,5 C 0,0 C 96 % 999,6 hPa 0,0 l/m 8,0 km/h (2 Bft) S-SO 157 0 min 0,0 UV-I 0 W/m -0,1 C -1,1 C 9,7 km/h (2 Bft)
23.01.2021 05:18 0,5 C 0,0 C 96 % 999,7 hPa 0,0 l/m 6,4 km/h (2 Bft) S-SO 157 0 min 0,0 UV-I 0 W/m -0,1 C 0,5 C 8,0 km/h (2 Bft)
23.01.2021 05:19 0,6 C 0,0 C 96 % 999,7 hPa 0,0 l/m 8,0 km/h (2 Bft) S-SO 157 0 min 0,0 UV-I 0 W/m 0,0 C -1,0 C 9,7 km/h (2 Bft)
23.01.2021 05:20 0,5 C 0,0 C 96 % 999,7 hPa 0,0 l/m 9,7 km/h (2 Bft) S 180 0 min 0,0 UV-I 0 W/m -0,1 C -2,6 C 11,3 km/h (2 Bft)
23.01.2021 05:21 0,5 C 0,0 C 96 % 999,6 hPa 0,0 l/m 8,0 km/h (2 Bft) S-SO 157 0 min 0,0 UV-I 0 W/m -0,1 C -1,1 C 12,9 km/h (3 Bft)
23.01.2021 05:22 0,6 C 0,0 C 96 % 999,6 hPa 0,0 l/m 9,7 km/h (2 Bft) S 180 0 min 0,0 UV-I 0 W/m 0,0 C -2,5 C 11,3 km/h (2 Bft)
23.01.2021 05:23 0,6 C 0,0 C 96 % 999,8 hPa 0,0 l/m 12,9 km/h (3 Bft) S 180 0 min 0,0 UV-I 0 W/m 0,0 C -4,9 C 17,7 km/h (3 Bft)
23.01.2021 05:24 0,6 C 0,0 C 96 % 999,7 hPa 0,0 l/m 9,7 km/h (2 Bft) S 180 0 min 0,0 UV-I 0 W/m 0,0 C -2,5 C 11,3 km/h (2 Bft)
23.01.2021 05:25 0,6 C 0,6 C 96 % 999,7 hPa 0,0 l/m 6,4 km/h (2 Bft) S 180 0 min 0,0 UV-I 0 W/m 0,0 C 0,6 C 9,7 km/h (2 Bft)
23.01.2021 05:26 0,6 C 0,6 C 96 % 999,6 hPa 0,0 l/m 9,7 km/h (2 Bft) S-SO 157 0 min 0,0 UV-I 0 W/m 0,0 C -2,5 C 14,5 km/h (3 Bft)
23.01.2021 05:27 0,6 C 0,6 C 96 % 999,7 hPa 0,0 l/m 11,3 km/h (2 Bft) S 180 0 min 0,0 UV-I 0 W/m 0,0 C -3,8 C 17,7 km/h (3 Bft)
23.01.2021 05:28 0,6 C 0,6 C 96 % 999,7 hPa 0,0 l/m 9,7 km/h (2 Bft) S 180 0 min 0,0 UV-I 0 W/m 0,0 C -2,5 C 11,3 km/h (2 Bft)
23.01.2021 05:29 0,6 C 0,6 C 96 % 999,7 hPa 0,0 l/m 8,0 km/h (2 Bft) S-SO 157 0 min 0,0 UV-I 0 W/m 0,0 C -1,0 C 11,3 km/h (2 Bft)
23.01.2021 05:30 0,6 C 0,0 C 96 % 999,7 hPa 0,0 l/m 11,3 km/h (2 Bft) S 180 0 min 0,0 UV-I 0 W/m 0,0 C -3,8 C 12,9 km/h (3 Bft)
23.01.2021 05:31 0,6 C 0,6 C 96 % 999,6 hPa 0,0 l/m 11,3 km/h (2 Bft) S 180 0 min 0,0 UV-I 0 W/m 0,0 C -3,8 C 14,5 km/h (3 Bft)
23.01.2021 05:32 0,6 C 0,6 C 96 % 999,6 hPa 0,0 l/m 11,3 km/h (2 Bft) S-SO 157 0 min 0,0 UV-I 0 W/m 0,0 C -3,8 C 16,1 km/h (3 Bft)
23.01.2021 05:33 0,6 C 0,6 C 96 % 999,6 hPa 0,0 l/m 14,5 km/h (3 Bft) S-SO 157 0 min 0,0 UV-I 0 W/m 0,0 C -6,0 C 16,1 km/h (3 Bft)
23.01.2021 05:34 0,6 C 0,0 C 96 % 999,5 hPa 0,0 l/m 9,7 km/h (2 Bft) S 180 0 min 0,0 UV-I 0 W/m 0,0 C -2,5 C 14,5 km/h (3 Bft)
23.01.2021 05:35 0,6 C 0,0 C 96 % 999,5 hPa 0,0 l/m 11,3 km/h (2 Bft) S 180 0 min 0,0 UV-I 0 W/m 0,0 C -3,8 C 16,1 km/h (3 Bft)
23.01.2021 05:36 0,6 C 0,0 C 96 % 999,6 hPa 0,0 l/m 11,3 km/h (2 Bft) S 180 0 min 0,0 UV-I 0 W/m 0,0 C -3,8 C 16,1 km/h (3 Bft)
23.01.2021 05:37 0,6 C 0,0 C 96 % 999,5 hPa 0,0 l/m 8,0 km/h (2 Bft) S 180 0 min 0,0 UV-I 0 W/m 0,0 C -1,0 C 11,3 km/h (2 Bft)
23.01.2021 05:38 0,6 C 0,0 C 96 % 999,6 hPa 0,0 l/m 9,7 km/h (2 Bft) S-SO 157 0 min 0,0 UV-I 0 W/m 0,0 C -2,5 C 14,5 km/h (3 Bft)
23.01.2021 05:39 0,6 C 0,0 C 96 % 999,5 hPa 0,0 l/m 8,0 km/h (2 Bft) S-SO 157 0 min 0,0 UV-I 0 W/m 0,0 C -1,0 C 12,9 km/h (3 Bft)
23.01.2021 05:40 0,6 C 0,0 C 96 % 999,5 hPa 0,0 l/m 8,0 km/h (2 Bft) S 180 0 min 0,0 UV-I 0 W/m 0,0 C -1,0 C 11,3 km/h (2 Bft)
23.01.2021 05:41 0,6 C 0,0 C 96 % 999,5 hPa 0,0 l/m 11,3 km/h (2 Bft) S-SO 157 0 min 0,0 UV-I 0 W/m 0,0 C -3,8 C 16,1 km/h (3 Bft)
23.01.2021 05:42 0,6 C 0,0 C 96 % 999,5 hPa 0,0 l/m 12,9 km/h (3 Bft) S 180 0 min 0,0 UV-I 0 W/m 0,0 C -4,9 C 22,5 km/h (4 Bft)
23.01.2021 05:43 0,7 C 0,0 C 96 % 999,4 hPa 0,0 l/m 12,9 km/h (3 Bft) S 180 0 min 0,0 UV-I 0 W/m 0,1 C -4,8 C 19,3 km/h (3 Bft)
23.01.2021 05:44 0,6 C 0,0 C 96 % 999,4 hPa 0,0 l/m 8,0 km/h (2 Bft) S 180 0 min 0,0 UV-I 0 W/m 0,0 C -1,0 C 11,3 km/h (2 Bft)
23.01.2021 05:45 0,6 C 0,6 C 96 % 999,4 hPa 0,0 l/m 9,7 km/h (2 Bft) S 180 0 min 0,0 UV-I 0 W/m 0,0 C -2,5 C 17,7 km/h (3 Bft)
23.01.2021 05:46 0,7 C 0,6 C 96 % 999,4 hPa 0,0 l/m 14,5 km/h (3 Bft) S 180 0 min 0,0 UV-I 0 W/m 0,1 C -5,8 C 22,5 km/h (4 Bft)
23.01.2021 05:47 0,7 C 0,6 C 96 % 999,4 hPa 0,0 l/m 12,9 km/h (3 Bft) S 180 0 min 0,0 UV-I 0 W/m 0,1 C -4,8 C 16,1 km/h (3 Bft)
23.01.2021 05:48 0,7 C 0,6 C 96 % 999,4 hPa 0,0 l/m 9,7 km/h (2 Bft) S-SW 202 0 min 0,0 UV-I 0 W/m 0,1 C -2,4 C 14,5 km/h (3 Bft)
23.01.2021 05:49 0,7 C 0,6 C 96 % 999,3 hPa 0,0 l/m 6,4 km/h (2 Bft) S 180 0 min 0,0 UV-I 0 W/m 0,1 C 0,7 C 9,7 km/h (2 Bft)
23.01.2021 05:50 0,7 C 0,6 C 96 % 999,4 hPa 0,0 l/m 9,7 km/h (2 Bft) S 180 0 min 0,0 UV-I 0 W/m 0,1 C -2,4 C 14,5 km/h (3 Bft)
23.01.2021 05:51 0,7 C 0,6 C 96 % 999,5 hPa 0,0 l/m 12,9 km/h (3 Bft) S 180 0 min 0,0 UV-I 0 W/m 0,1 C -4,8 C 16,1 km/h (3 Bft)
23.01.2021 05:52 0,7 C 0,6 C 96 % 999,4 hPa 0,0 l/m 9,7 km/h (2 Bft) S-SW 202 0 min 0,0 UV-I 0 W/m 0,1 C -2,4 C 14,5 km/h (3 Bft)
23.01.2021 05:53 0,7 C 0,6 C 96 % 999,4 hPa 0,0 l/m 11,3 km/h (2 Bft) S-SO 157 0 min 0,0 UV-I 0 W/m 0,1 C -3,7 C 17,7 km/h (3 Bft)
23.01.2021 05:54 0,7 C 0,6 C 96 % 999,3 hPa 0,0 l/m 12,9 km/h (3 Bft) S 180 0 min 0,0 UV-I 0 W/m 0,1 C -4,8 C 19,3 km/h (3 Bft)
23.01.2021 05:55 0,7 C 0,6 C 96 % 999,4 hPa 0,0 l/m 8,0 km/h (2 Bft) S 180 0 min 0,0 UV-I 0 W/m 0,1 C -0,9 C 14,5 km/h (3 Bft)
23.01.2021 05:56 0,7 C 0,6 C 96 % 999,3 hPa 0,0 l/m 9,7 km/h (2 Bft) S 180 0 min 0,0 UV-I 0 W/m 0,1 C -2,4 C 14,5 km/h (3 Bft)
23.01.2021 05:57 0,7 C 0,6 C 96 % 999,3 hPa 0,0 l/m 9,7 km/h (2 Bft) S-SO 157 0 min 0,0 UV-I 0 W/m 0,1 C -2,4 C 12,9 km/h (3 Bft)
23.01.2021 05:58 0,7 C 0,6 C 96 % 999,3 hPa 0,0 l/m 8,0 km/h (2 Bft) S 180 0 min 0,0 UV-I 0 W/m 0,1 C -0,9 C 11,3 km/h (2 Bft)
23.01.2021 05:59 0,7 C 0,6 C 96 % 999,3 hPa 0,0 l/m 8,0 km/h (2 Bft) S-SO 157 0 min 0,0 UV-I 0 W/m 0,1 C -0,9 C 12,9 km/h (3 Bft)
23.01.2021 06:00 0,7 C 0,6 C 96 % 999,3 hPa 0,0 l/m 9,7 km/h (2 Bft) S-SO 157 0 min 0,0 UV-I 0 W/m 0,1 C -2,4 C 12,9 km/h (3 Bft)
23.01.2021 06:01 0,7 C 0,6 C 96 % 999,3 hPa 0,0 l/m 11,3 km/h (2 Bft) S 180 0 min 0,0 UV-I 0 W/m 0,1 C -3,7 C 17,7 km/h (3 Bft)
23.01.2021 06:02 0,7 C 0,6 C 96 % 999,3 hPa 0,0 l/m 9,7 km/h (2 Bft) S 180 0 min 0,0 UV-I 0 W/m 0,1 C -2,4 C 17,7 km/h (3 Bft)
23.01.2021 06:03 0,7 C 0,6 C 96 % 999,3 hPa 0,0 l/m 11,3 km/h (2 Bft) S 180 0 min 0,0 UV-I 0 W/m 0,1 C -3,7 C 22,5 km/h (4 Bft)
23.01.2021 06:04 0,7 C 0,6 C 96 % 999,3 hPa 0,0 l/m 11,3 km/h (2 Bft) S 180 0 min 0,0 UV-I 0 W/m 0,1 C -3,7 C 16,1 km/h (3 Bft)
23.01.2021 06:05 0,8 C 0,6 C 96 % 999,3 hPa 0,0 l/m 9,7 km/h (2 Bft) S 180 0 min 0,0 UV-I 0 W/m 0,2 C -2,3 C 14,5 km/h (3 Bft)
23.01.2021 06:06 0,7 C 0,6 C 96 % 999,3 hPa 0,0 l/m 14,5 km/h (3 Bft) S-SW 202 0 min 0,0 UV-I 0 W/m 0,1 C -5,8 C 20,9 km/h (4 Bft)
23.01.2021 06:07 0,8 C 0,6 C 96 % 999,2 hPa 0,0 l/m 17,7 km/h (3 Bft) S 180 0 min 0,0 UV-I 0 W/m 0,2 C -7,5 C 30,6 km/h (5 Bft)
23.01.2021 06:08 0,8 C 0,6 C 96 % 999,2 hPa 0,0 l/m 16,1 km/h (3 Bft) S 180 0 min 0,0 UV-I 0 W/m 0,2 C -6,6 C 27,4 km/h (4 Bft)
23.01.2021 06:09 0,8 C 0,6 C 96 % 999,3 hPa 0,0 l/m 9,7 km/h (2 Bft) S 180 0 min 0,0 UV-I 0 W/m 0,2 C -2,3 C 27,4 km/h (4 Bft)
23.01.2021 06:10 0,8 C 0,6 C 96 % 999,2 hPa 0,0 l/m 12,9 km/h (3 Bft) S 180 0 min 0,0 UV-I 0 W/m 0,2 C -4,7 C 19,3 km/h (3 Bft)
23.01.2021 06:11 0,8 C 0,6 C 96 % 999,2 hPa 0,0 l/m 14,5 km/h (3 Bft) S 180 0 min 0,0 UV-I 0 W/m 0,2 C -5,7 C 22,5 km/h (4 Bft)
23.01.2021 06:12 0,8 C 0,6 C 96 % 999,1 hPa 0,0 l/m 11,3 km/h (2 Bft) S 180 0 min 0,0 UV-I 0 W/m 0,2 C -3,6 C 16,1 km/h (3 Bft)
23.01.2021 06:13 0,8 C 0,6 C 96 % 999,1 hPa 0,0 l/m 9,7 km/h (2 Bft) S 180 0 min 0,0 UV-I 0 W/m 0,2 C -2,3 C 14,5 km/h (3 Bft)
23.01.2021 06:14 0,8 C 0,6 C 96 % 999,1 hPa 0,0 l/m 11,3 km/h (2 Bft) S 180 0 min 0,0 UV-I 0 W/m 0,2 C -3,6 C 14,5 km/h (3 Bft)
23.01.2021 06:15 0,8 C 0,6 C 96 % 999,1 hPa 0,0 l/m 9,7 km/h (2 Bft) S-SO 157 0 min 0,0 UV-I 0 W/m 0,2 C -2,3 C 17,7 km/h (3 Bft)
23.01.2021 06:16 0,8 C 0,0 C 96 % 999,1 hPa 0,0 l/m 8,0 km/h (2 Bft) S 180 0 min 0,0 UV-I 0 W/m 0,2 C -0,8 C 14,5 km/h (3 Bft)
23.01.2021 06:17 0,8 C 0,0 C 96 % 999,1 hPa 0,0 l/m 11,3 km/h (2 Bft) S 180 0 min 0,0 UV-I 0 W/m 0,2 C -3,6 C 17,7 km/h (3 Bft)
23.01.2021 06:18 0,8 C 0,0 C 96 % 999,1 hPa 0,0 l/m 8,0 km/h (2 Bft) S 180 0 min 0,0 UV-I 0 W/m 0,2 C -0,8 C 16,1 km/h (3 Bft)
23.01.2021 06:19 0,7 C 0,0 C 96 % 999,2 hPa 0,0 l/m 11,3 km/h (2 Bft) S 180 0 min 0,0 UV-I 0 W/m 0,1 C -3,7 C 19,3 km/h (3 Bft)
23.01.2021 06:20 0,8 C 0,0 C 96 % 999,2 hPa 0,0 l/m 9,7 km/h (2 Bft) S 180 0 min 0,0 UV-I 0 W/m 0,2 C -2,3 C 11,3 km/h (2 Bft)
23.01.2021 06:21 0,8 C 0,0 C 96 % 999,1 hPa 0,0 l/m 9,7 km/h (2 Bft) S-SO 157 0 min 0,0 UV-I 0 W/m 0,2 C -2,3 C 14,5 km/h (3 Bft)
23.01.2021 06:22 0,8 C 0,0 C 96 % 999,1 hPa 0,0 l/m 9,7 km/h (2 Bft) S-SO 157 0 min 0,0 UV-I 0 W/m 0,2 C -2,3 C 12,9 km/h (3 Bft)
23.01.2021 06:23 0,8 C 0,0 C 96 % 999,1 hPa 0,0 l/m 6,4 km/h (2 Bft) S 180 0 min 0,0 UV-I 0 W/m 0,2 C 0,8 C 9,7 km/h (2 Bft)
23.01.2021 06:24 0,8 C 0,0 C 96 % 999,1 hPa 0,0 l/m 6,4 km/h (2 Bft) S-SO 157 0 min 0,0 UV-I 0 W/m 0,2 C 0,8 C 8,0 km/h (2 Bft)
23.01.2021 06:25 0,8 C 0,0 C 96 % 999,0 hPa 0,0 l/m 6,4 km/h (2 Bft) S-SO 157 0 min 0,0 UV-I 0 W/m 0,2 C 0,8 C 9,7 km/h (2 Bft)
23.01.2021 06:26 0,8 C 0,0 C 96 % 999,0 hPa 0,0 l/m 6,4 km/h (2 Bft) S 180 0 min 0,0 UV-I 0 W/m 0,2 C 0,8 C 9,7 km/h (2 Bft)
23.01.2021 06:27 0,8 C 0,0 C 96 % 999,1 hPa 0,0 l/m 9,7 km/h (2 Bft) S-SO 157 0 min 0,0 UV-I 0 W/m 0,2 C -2,3 C 16,1 km/h (3 Bft)
23.01.2021 06:28 0,8 C 0,0 C 96 % 999,0 hPa 0,0 l/m 8,0 km/h (2 Bft) S-SO 157 0 min 0,0 UV-I 0 W/m 0,2 C -0,8 C 11,3 km/h (2 Bft)
23.01.2021 06:29 0,8 C 0,0 C 96 % 999,0 hPa 0,0 l/m 12,9 km/h (3 Bft) S-SO 157 0 min 0,0 UV-I 0 W/m 0,2 C -4,7 C 16,1 km/h (3 Bft)
23.01.2021 06:30 0,8 C 0,0 C 96 % 999,0 hPa 0,0 l/m 11,3 km/h (2 Bft) S-SO 157 0 min 0,0 UV-I 0 W/m 0,2 C -3,6 C 14,5 km/h (3 Bft)
23.01.2021 06:31 0,7 C 0,0 C 96 % 998,9 hPa 0,0 l/m 9,7 km/h (2 Bft) S-SO 157 0 min 0,0 UV-I 0 W/m 0,1 C -2,4 C 12,9 km/h (3 Bft)
23.01.2021 06:32 0,8 C 0,0 C 96 % 999,1 hPa 0,0 l/m 11,3 km/h (2 Bft) S-SO 157 0 min 0,0 UV-I 0 W/m 0,2 C -3,6 C 14,5 km/h (3 Bft)
23.01.2021 06:33 0,8 C 0,0 C 96 % 999,0 hPa 0,0 l/m 8,0 km/h (2 Bft) S-SO 157 0 min 0,0 UV-I 0 W/m 0,2 C -0,8 C 12,9 km/h (3 Bft)
23.01.2021 06:34 0,8 C 0,0 C 96 % 998,9 hPa 0,0 l/m 11,3 km/h (2 Bft) S-SO 157 0 min 0,0 UV-I 0 W/m 0,2 C -3,6 C 14,5 km/h (3 Bft)
23.01.2021 06:35 0,7 C 0,0 C 96 % 999,0 hPa 0,0 l/m 6,4 km/h (2 Bft) S-SO 157 0 min 0,0 UV-I 0 W/m 0,1 C 0,7 C 11,3 km/h (2 Bft)
23.01.2021 06:36 0,7 C 0,0 C 96 % 998,9 hPa 0,0 l/m 8,0 km/h (2 Bft) S 180 0 min 0,0 UV-I 0 W/m 0,1 C -0,9 C 14,5 km/h (3 Bft)
23.01.2021 06:37 0,7 C 0,0 C 96 % 998,8 hPa 0,0 l/m 6,4 km/h (2 Bft) S-SO 157 0 min 0,0 UV-I 0 W/m 0,1 C 0,7 C 9,7 km/h (2 Bft)
23.01.2021 06:38 0,7 C 0,0 C 96 % 998,9 hPa 0,0 l/m 8,0 km/h (2 Bft) S 180 0 min 0,0 UV-I 0 W/m 0,1 C -0,9 C 12,9 km/h (3 Bft)
23.01.2021 06:39 0,7 C 0,0 C 96 % 998,8 hPa 0,0 l/m 9,7 km/h (2 Bft) S-SO 157 0 min 0,0 UV-I 0 W/m 0,1 C -2,4 C 12,9 km/h (3 Bft)
23.01.2021 06:40 0,8 C 0,6 C 96 % 998,9 hPa 0,0 l/m 8,0 km/h (2 Bft) S-SO 157 0 min 0,0 UV-I 0 W/m 0,2 C -0,8 C 9,7 km/h (2 Bft)
23.01.2021 06:41 0,8 C 0,6 C 96 % 999,0 hPa 0,0 l/m 9,7 km/h (2 Bft) S-SO 157 0 min 0,0 UV-I 0 W/m 0,2 C -2,3 C 22,5 km/h (4 Bft)
23.01.2021 06:42 0,8 C 0,6 C 96 % 998,9 hPa 0,0 l/m 12,9 km/h (3 Bft) S 180 0 min 0,0 UV-I 0 W/m 0,2 C -4,7 C 16,1 km/h (3 Bft)
23.01.2021 06:43 0,7 C 0,6 C 96 % 998,9 hPa 0,0 l/m 9,7 km/h (2 Bft) S-SO 157 0 min 0,0 UV-I 0 W/m 0,1 C -2,4 C 14,5 km/h (3 Bft)
23.01.2021 06:44 0,8 C 0,6 C 96 % 998,9 hPa 0,0 l/m 11,3 km/h (2 Bft) S-SO 157 0 min 0,0 UV-I 0 W/m 0,2 C -3,6 C 14,5 km/h (3 Bft)
23.01.2021 06:45 0,8 C 0,6 C 96 % 998,9 hPa 0,0 l/m 11,3 km/h (2 Bft) SO 135 0 min 0,0 UV-I 0 W/m 0,2 C -3,6 C 14,5 km/h (3 Bft)
23.01.2021 06:46 0,8 C 0,6 C 96 % 999,0 hPa 0,0 l/m 8,0 km/h (2 Bft) S-SO 157 0 min 0,0 UV-I 0 W/m 0,2 C -0,8 C 11,3 km/h (2 Bft)
23.01.2021 06:47 0,8 C 0,6 C 96 % 999,0 hPa 0,0 l/m 8,0 km/h (2 Bft) S 180 0 min 0,0 UV-I 0 W/m 0,2 C -0,8 C 11,3 km/h (2 Bft)
23.01.2021 06:48 0,8 C 0,6 C 96 % 998,9 hPa 0,0 l/m 8,0 km/h (2 Bft) S-SO 157 0 min 0,0 UV-I 0 W/m 0,2 C -0,8 C 12,9 km/h (3 Bft)
23.01.2021 06:49 0,8 C 0,6 C 96 % 999,0 hPa 0,0 l/m 9,7 km/h (2 Bft) S 180 0 min 0,0 UV-I 0 W/m 0,2 C -2,3 C 14,5 km/h (3 Bft)
23.01.2021 06:50 0,8 C 0,6 C 96 % 999,0 hPa 0,0 l/m 12,9 km/h (3 Bft) S-SO 157 0 min 0,0 UV-I 0 W/m 0,2 C -4,7 C 19,3 km/h (3 Bft)
23.01.2021 06:51 0,8 C 0,6 C 96 % 999,1 hPa 0,0 l/m 9,7 km/h (2 Bft) S 180 0 min 0,0 UV-I 0 W/m 0,2 C -2,3 C 16,1 km/h (3 Bft)
23.01.2021 06:52 0,8 C 0,6 C 96 % 998,9 hPa 0,0 l/m 8,0 km/h (2 Bft) S-SO 157 0 min 0,0 UV-I 0 W/m 0,2 C -0,8 C 12,9 km/h (3 Bft)
23.01.2021 06:53 0,8 C 0,6 C 96 % 999,0 hPa 0,0 l/m 9,7 km/h (2 Bft) S 180 0 min 0,0 UV-I 0 W/m 0,2 C -2,3 C 12,9 km/h (3 Bft)
23.01.2021 06:54 0,8 C 0,6 C 96 % 999,0 hPa 0,0 l/m 12,9 km/h (3 Bft) S 180 0 min 0,0 UV-I 0 W/m 0,2 C -4,7 C 19,3 km/h (3 Bft)
23.01.2021 06:55 0,8 C 0,6 C 96 % 999,0 hPa 0,0 l/m 9,7 km/h (2 Bft) S 180 0 min 0,0 UV-I 0 W/m 0,2 C -2,3 C 14,5 km/h (3 Bft)
23.01.2021 06:56 0,8 C 0,6 C 96 % 999,0 hPa 0,0 l/m 11,3 km/h (2 Bft) S-SW 202 0 min 0,0 UV-I 0 W/m 0,2 C -3,6 C 12,9 km/h (3 Bft)
23.01.2021 06:57 0,8 C 0,6 C 96 % 999,0 hPa 0,0 l/m 8,0 km/h (2 Bft) S-SW 202 0 min 0,0 UV-I 0 W/m 0,2 C -0,8 C 14,5 km/h (3 Bft)
23.01.2021 06:58 0,8 C 0,6 C 96 % 999,1 hPa 0,0 l/m 12,9 km/h (3 Bft) S 180 0 min 0,0 UV-I 0 W/m 0,2 C -4,7 C 17,7 km/h (3 Bft)
23.01.2021 06:59 0,8 C 0,6 C 96 % 999,0 hPa 0,0 l/m 11,3 km/h (2 Bft) S-SW 202 0 min 0,0 UV-I 0 W/m 0,2 C -3,6 C 17,7 km/h (3 Bft)
23.01.2021 07:00 0,8 C 0,6 C 96 % 998,9 hPa 0,0 l/m 11,3 km/h (2 Bft) S 180 0 min 0,0 UV-I 0 W/m 0,2 C -3,6 C 14,5 km/h (3 Bft)
23.01.2021 07:01 0,8 C 0,6 C 96 % 999,1 hPa 0,0 l/m 8,0 km/h (2 Bft) S 180 0 min 0,0 UV-I 0 W/m 0,2 C -0,8 C 9,7 km/h (2 Bft)
23.01.2021 07:02 0,9 C 0,6 C 96 % 999,1 hPa 0,0 l/m 8,0 km/h (2 Bft) S 180 0 min 0,0 UV-I 0 W/m 0,3 C -0,7 C 11,3 km/h (2 Bft)
23.01.2021 07:03 0,9 C 0,6 C 96 % 999,0 hPa 0,0 l/m 9,7 km/h (2 Bft) S-SW 202 0 min 0,0 UV-I 0 W/m 0,3 C -2,2 C 12,9 km/h (3 Bft)
23.01.2021 07:04 0,8 C 0,6 C 96 % 999,0 hPa 0,0 l/m 11,3 km/h (2 Bft) S 180 0 min 0,0 UV-I 0 W/m 0,2 C -3,6 C 14,5 km/h (3 Bft)
23.01.2021 07:05 0,9 C 0,6 C 96 % 999,1 hPa 0,0 l/m 9,7 km/h (2 Bft) S-SW 202 0 min 0,0 UV-I 0 W/m 0,3 C -2,2 C 11,3 km/h (2 Bft)
23.01.2021 07:06 0,8 C 0,6 C 96 % 999,0 hPa 0,0 l/m 8,0 km/h (2 Bft) S-SO 157 0 min 0,0 UV-I 0 W/m 0,2 C -0,8 C 11,3 km/h (2 Bft)
23.01.2021 07:07 0,9 C 0,6 C 95 % 999,0 hPa 0,0 l/m 16,1 km/h (3 Bft) S-SO 157 0 min 0,0 UV-I 0 W/m 0,2 C -6,5 C 20,9 km/h (4 Bft)
23.01.2021 07:08 0,9 C 0,6 C 96 % 998,9 hPa 0,0 l/m 9,7 km/h (2 Bft) S 180 0 min 0,0 UV-I 0 W/m 0,3 C -2,2 C 14,5 km/h (3 Bft)
23.01.2021 07:09 0,9 C 0,6 C 96 % 998,9 hPa 0,0 l/m 8,0 km/h (2 Bft) S-SO 157 0 min 0,0 UV-I 0 W/m 0,3 C -0,7 C 12,9 km/h (3 Bft)
23.01.2021 07:10 0,9 C 0,6 C 96 % 999,0 hPa 0,0 l/m 11,3 km/h (2 Bft) S-SO 157 0 min 0,0 UV-I 0 W/m 0,3 C -3,5 C 17,7 km/h (3 Bft)
23.01.2021 07:11 0,9 C 0,6 C 95 % 999,0 hPa 0,0 l/m 8,0 km/h (2 Bft) S 180 0 min 0,0 UV-I 0 W/m 0,2 C -0,7 C 14,5 km/h (3 Bft)
23.01.2021 07:12 0,8 C 0,6 C 96 % 998,9 hPa 0,0 l/m 8,0 km/h (2 Bft) S 180 0 min 0,0 UV-I 0 W/m 0,2 C -0,8 C 12,9 km/h (3 Bft)
23.01.2021 07:13 0,9 C 0,6 C 95 % 999,0 hPa 0,0 l/m 8,0 km/h (2 Bft) S 180 0 min 0,0 UV-I 0 W/m 0,2 C -0,7 C 11,3 km/h (2 Bft)
23.01.2021 07:14 0,9 C 0,6 C 95 % 999,1 hPa 0,0 l/m 9,7 km/h (2 Bft) S 180 0 min 0,0 UV-I 0 W/m 0,2 C -2,2 C 17,7 km/h (3 Bft)
23.01.2021 07:15 0,9 C 0,6 C 96 % 999,0 hPa 0,0 l/m 14,5 km/h (3 Bft) S-SW 202 0 min 0,0 UV-I 0 W/m 0,3 C -5,6 C 20,9 km/h (4 Bft)
23.01.2021 07:16 0,9 C 0,6 C 95 % 999,0 hPa 0,0 l/m 16,1 km/h (3 Bft) S 180 0 min 0,0 UV-I 0 W/m 0,2 C -6,5 C 22,5 km/h (4 Bft)
23.01.2021 07:17 0,9 C 0,6 C 95 % 998,9 hPa 0,0 l/m 11,3 km/h (2 Bft) S-SW 202 0 min 0,0 UV-I 0 W/m 0,2 C -3,5 C 16,1 km/h (3 Bft)
23.01.2021 07:18 0,9 C 0,6 C 95 % 999,0 hPa 0,0 l/m 11,3 km/h (2 Bft) S 180 0 min 0,0 UV-I 0 W/m 0,2 C -3,5 C 17,7 km/h (3 Bft)
23.01.2021 07:19 0,9 C 0,6 C 96 % 999,0 hPa 0,0 l/m 11,3 km/h (2 Bft) S-SW 202 0 min 0,0 UV-I 0 W/m 0,3 C -3,5 C 16,1 km/h (3 Bft)
23.01.2021 07:20 0,9 C 0,6 C 95 % 998,9 hPa 0,0 l/m 11,3 km/h (2 Bft) S-SO 157 0 min 0,0 UV-I 0 W/m 0,2 C -3,5 C 16,1 km/h (3 Bft)
23.01.2021 07:21 0,9 C 0,6 C 96 % 999,0 hPa 0,0 l/m 12,9 km/h (3 Bft) S 180 0 min 0,0 UV-I 0 W/m 0,3 C -4,6 C 17,7 km/h (3 Bft)
23.01.2021 07:22 0,9 C 0,6 C 96 % 999,1 hPa 0,0 l/m 11,3 km/h (2 Bft) S 180 0 min 0,0 UV-I 0 W/m 0,3 C -3,5 C 17,7 km/h (3 Bft)
23.01.2021 07:23 0,9 C 0,6 C 96 % 999,0 hPa 0,0 l/m 11,3 km/h (2 Bft) S 180 0 min 0,0 UV-I 0 W/m 0,3 C -3,5 C 16,1 km/h (3 Bft)
23.01.2021 07:24 0,9 C 0,6 C 96 % 998,9 hPa 0,0 l/m 16,1 km/h (3 Bft) S-SO 157 0 min 0,0 UV-I 0 W/m 0,3 C -6,5 C 27,4 km/h (4 Bft)
23.01.2021 07:25 0,9 C 0,6 C 95 % 999,1 hPa 0,0 l/m 11,3 km/h (2 Bft) S 180 0 min 0,0 UV-I 0 W/m 0,2 C -3,5 C 14,5 km/h (3 Bft)
23.01.2021 07:26 0,9 C 0,6 C 95 % 999,0 hPa 0,0 l/m 12,9 km/h (3 Bft) S-SW 202 0 min 0,0 UV-I 0 W/m 0,2 C -4,6 C 19,3 km/h (3 Bft)
23.01.2021 07:27 0,9 C 0,6 C 96 % 999,0 hPa 0,0 l/m 11,3 km/h (2 Bft) S-SW 202 0 min 0,0 UV-I 0 W/m 0,3 C -3,5 C 16,1 km/h (3 Bft)
23.01.2021 07:28 0,9 C 0,6 C 96 % 998,9 hPa 0,0 l/m 16,1 km/h (3 Bft) S 180 0 min 0,0 UV-I 0 W/m 0,3 C -6,5 C 29,0 km/h (5 Bft)
23.01.2021 07:29 0,9 C 0,6 C 96 % 999,1 hPa 0,0 l/m 12,9 km/h (3 Bft) S 180 0 min 0,0 UV-I 0 W/m 0,3 C -4,6 C 29,0 km/h (5 Bft)
23.01.2021 07:30 0,9 C 0,6 C 96 % 999,0 hPa 0,0 l/m 14,5 km/h (3 Bft) S-SW 202 0 min 0,0 UV-I 0 W/m 0,3 C -5,6 C 22,5 km/h (4 Bft)
23.01.2021 07:31 0,9 C 0,6 C 96 % 999,0 hPa 0,0 l/m 14,5 km/h (3 Bft) S-SW 202 0 min 0,0 UV-I 0 W/m 0,3 C -5,6 C 19,3 km/h (3 Bft)
23.01.2021 07:32 0,9 C 0,6 C 96 % 999,0 hPa 0,0 l/m 14,5 km/h (3 Bft) S 180 0 min 0,0 UV-I 0 W/m 0,3 C -5,6 C 17,7 km/h (3 Bft)
23.01.2021 07:33 0,9 C 0,6 C 96 % 999,0 hPa 0,0 l/m 9,7 km/h (2 Bft) S 180 0 min 0,0 UV-I 0 W/m 0,3 C -2,2 C 19,3 km/h (3 Bft)
23.01.2021 07:34 0,9 C 0,6 C 96 % 999,0 hPa 0,0 l/m 12,9 km/h (3 Bft) S-SW 202 0 min 0,0 UV-I 0 W/m 0,3 C -4,6 C 17,7 km/h (3 Bft)
23.01.2021 07:35 0,9 C 0,6 C 96 % 999,1 hPa 0,0 l/m 11,3 km/h (2 Bft) S 180 0 min 0,0 UV-I 0 W/m 0,3 C -3,5 C 16,1 km/h (3 Bft)
23.01.2021 07:36 0,9 C 0,6 C 96 % 999,0 hPa 0,0 l/m 9,7 km/h (2 Bft) S-SW 202 0 min 0,0 UV-I 0 W/m 0,3 C -2,2 C 11,3 km/h (2 Bft)
23.01.2021 07:37 0,9 C 0,6 C 96 % 999,0 hPa 0,0 l/m 11,3 km/h (2 Bft) S 180 0 min 0,0 UV-I 0 W/m 0,3 C -3,5 C 17,7 km/h (3 Bft)
23.01.2021 07:38 1,0 C 0,6 C 96 % 999,0 hPa 0,0 l/m 11,3 km/h (2 Bft) S 180 0 min 0,0 UV-I 0 W/m 0,4 C -3,3 C 16,1 km/h (3 Bft)
23.01.2021 07:39 1,0 C 0,6 C 96 % 999,0 hPa 0,0 l/m 16,1 km/h (3 Bft) S 180 0 min 0,0 UV-I 0 W/m 0,4 C -6,4 C 19,3 km/h (3 Bft)
23.01.2021 07:40 0,9 C 0,6 C 96 % 999,0 hPa 0,0 l/m 14,5 km/h (3 Bft) S-SO 157 0 min 0,0 UV-I 0 W/m 0,3 C -5,6 C 19,3 km/h (3 Bft)
23.01.2021 07:41 0,9 C 0,6 C 96 % 999,0 hPa 0,0 l/m 9,7 km/h (2 Bft) S 180 0 min 0,0 UV-I 0 W/m 0,3 C -2,2 C 12,9 km/h (3 Bft)
23.01.2021 07:42 1,0 C 0,6 C 96 % 999,0 hPa 0,0 l/m 12,9 km/h (3 Bft) S-SW 202 0 min 0,0 UV-I 0 W/m 0,4 C -4,5 C 20,9 km/h (4 Bft)
23.01.2021 07:43 1,0 C 0,6 C 96 % 999,0 hPa 0,0 l/m 16,1 km/h (3 Bft) S-SW 202 0 min 0,0 UV-I 0 W/m 0,4 C -6,4 C 22,5 km/h (4 Bft)
23.01.2021 07:44 1,0 C 0,6 C 96 % 999,1 hPa 0,0 l/m 14,5 km/h (3 Bft) S-SW 202 0 min 0,0 UV-I 0 W/m 0,4 C -5,5 C 24,1 km/h (4 Bft)
23.01.2021 07:45 1,0 C 0,6 C 96 % 999,0 hPa 0,0 l/m 12,9 km/h (3 Bft) S 180 0 min 0,0 UV-I 0 W/m 0,4 C -4,5 C 24,1 km/h (4 Bft)
23.01.2021 07:46 1,0 C 0,6 C 96 % 999,1 hPa 0,0 l/m 16,1 km/h (3 Bft) S-SW 202 0 min 0,0 UV-I 0 W/m 0,4 C -6,4 C 20,9 km/h (4 Bft)
23.01.2021 07:47 1,0 C 0,6 C 96 % 999,0 hPa 0,0 l/m 14,5 km/h (3 Bft) S-SW 202 0 min 0,0 UV-I 0 W/m 0,4 C -5,5 C 17,7 km/h (3 Bft)
23.01.2021 07:48 1,0 C 0,6 C 96 % 999,1 hPa 0,0 l/m 16,1 km/h (3 Bft) S-SW 202 0 min 0,0 UV-I 0 W/m 0,4 C -6,4 C 19,3 km/h (3 Bft)
23.01.2021 07:49 1,0 C 0,6 C 96 % 999,0 hPa 0,0 l/m 17,7 km/h (3 Bft) S-SW 202 0 min 0,0 UV-I 0 W/m 0,4 C -7,2 C 27,4 km/h (4 Bft)
23.01.2021 07:50 1,0 C 0,6 C 96 % 999,1 hPa 0,0 l/m 12,9 km/h (3 Bft) S-SW 202 0 min 0,0 UV-I 0 W/m 0,4 C -4,5 C 16,1 km/h (3 Bft)
23.01.2021 07:51 1,1 C 0,6 C 96 % 999,0 hPa 0,0 l/m 9,7 km/h (2 Bft) S 180 0 min 0,0 UV-I 0 W/m 0,5 C -2,0 C 14,5 km/h (3 Bft)
23.01.2021 07:52 1,0 C 0,6 C 96 % 999,1 hPa 0,0 l/m 11,3 km/h (2 Bft) S-SW 202 0 min 0,0 UV-I 0 W/m 0,4 C -3,3 C 16,1 km/h (3 Bft)
23.01.2021 07:53 1,0 C 0,6 C 96 % 999,0 hPa 0,0 l/m 12,9 km/h (3 Bft) S 180 0 min 0,0 UV-I 0 W/m 0,4 C -4,5 C 17,7 km/h (3 Bft)
23.01.2021 07:54 1,0 C 0,6 C 96 % 999,0 hPa 0,0 l/m 11,3 km/h (2 Bft) S-SW 202 0 min 0,0 UV-I 0 W/m 0,4 C -3,3 C 16,1 km/h (3 Bft)
23.01.2021 07:55 1,1 C 0,6 C 96 % 999,0 hPa 0,0 l/m 11,3 km/h (2 Bft) S-SW 202 0 min 0,0 UV-I 0 W/m 0,5 C -3,2 C 17,7 km/h (3 Bft)
23.01.2021 07:56 1,1 C 0,6 C 96 % 999,0 hPa 0,0 l/m 11,3 km/h (2 Bft) S-SW 202 0 min 0,0 UV-I 0 W/m 0,5 C -3,2 C 19,3 km/h (3 Bft)
23.01.2021 07:57 1,1 C 0,6 C 95 % 999,0 hPa 0,0 l/m 12,9 km/h (3 Bft) S-SW 202 0 min 0,0 UV-I 0 W/m 0,4 C -4,3 C 16,1 km/h (3 Bft)
23.01.2021 07:58 1,1 C 0,6 C 95 % 999,1 hPa 0,0 l/m 12,9 km/h (3 Bft) S-SW 202 0 min 0,0 UV-I 0 W/m 0,4 C -4,3 C 16,1 km/h (3 Bft)
23.01.2021 07:59 1,0 C 0,6 C 95 % 999,1 hPa 0,0 l/m 9,7 km/h (2 Bft) S-SW 202 0 min 0,0 UV-I 0 W/m 0,3 C -2,1 C 14,5 km/h (3 Bft)
23.01.2021 08:00 1,0 C 0,6 C 95 % 999,1 hPa 0,0 l/m 16,1 km/h (3 Bft) S-SW 202 0 min 0,0 UV-I 0 W/m 0,3 C -6,4 C 25,7 km/h (4 Bft)
23.01.2021 08:01 1,1 C 0,6 C 95 % 999,0 hPa 0,0 l/m 17,7 km/h (3 Bft) S-SW 202 0 min 0,0 UV-I 0 W/m 0,4 C -7,1 C 25,7 km/h (4 Bft)
23.01.2021 08:02 1,0 C 0,6 C 95 % 999,0 hPa 0,0 l/m 17,7 km/h (3 Bft) S-SW 202 0 min 0,0 UV-I 0 W/m 0,3 C -7,2 C 24,1 km/h (4 Bft)
23.01.2021 08:03 1,1 C 0,6 C 95 % 999,0 hPa 0,0 l/m 14,5 km/h (3 Bft) S 180 0 min 0,0 UV-I 0 W/m 0,4 C -5,4 C 22,5 km/h (4 Bft)
23.01.2021 08:04 1,1 C 0,6 C 95 % 999,0 hPa 0,0 l/m 11,3 km/h (2 Bft) S-SW 202 0 min 0,0 UV-I 0 W/m 0,4 C -3,2 C 14,5 km/h (3 Bft)
23.01.2021 08:05 1,1 C 0,6 C 95 % 999,1 hPa 0,0 l/m 11,3 km/h (2 Bft) S-SW 202 0 min 0,0 UV-I 0 W/m 0,4 C -3,2 C 19,3 km/h (3 Bft)
23.01.2021 08:06 1,1 C 0,6 C 95 % 999,2 hPa 0,0 l/m 9,7 km/h (2 Bft) S-SW 202 0 min 0,0 UV-I 0 W/m 0,4 C -2,0 C 16,1 km/h (3 Bft)
23.01.2021 08:07 1,1 C 0,6 C 95 % 999,2 hPa 0,0 l/m 9,7 km/h (2 Bft) S-SW 202 0 min 0,0 UV-I 0 W/m 0,4 C -2,0 C 14,5 km/h (3 Bft)
23.01.2021 08:08 1,1 C 0,6 C 95 % 999,0 hPa 0,0 l/m 9,7 km/h (2 Bft) S-SW 202 0 min 0,0 UV-I 0 W/m 0,4 C -2,0 C 16,1 km/h (3 Bft)
23.01.2021 08:09 1,1 C 0,6 C 95 % 999,0 hPa 0,0 l/m 11,3 km/h (2 Bft) S-SW 202 0 min 0,0 UV-I 0 W/m 0,4 C -3,2 C 17,7 km/h (3 Bft)
23.01.2021 08:10 1,1 C 0,6 C 95 % 999,1 hPa 0,0 l/m 11,3 km/h (2 Bft) S-SW 202 0 min 0,0 UV-I 0 W/m 0,4 C -3,2 C 14,5 km/h (3 Bft)
23.01.2021 08:11 1,1 C 0,6 C 95 % 999,1 hPa 0,0 l/m 11,3 km/h (2 Bft) S-SW 202 0 min 0,0 UV-I 0 W/m 0,4 C -3,2 C 16,1 km/h (3 Bft)
23.01.2021 08:12 1,1 C 0,6 C 95 % 999,1 hPa 0,0 l/m 8,0 km/h (2 Bft) S-SW 202 0 min 0,0 UV-I 0 W/m 0,4 C -0,5 C 12,9 km/h (3 Bft)
23.01.2021 08:13 1,1 C 0,6 C 95 % 999,1 hPa 0,0 l/m 9,7 km/h (2 Bft) S-SW 202 0 min 0,0 UV-I 0 W/m 0,4 C -2,0 C 12,9 km/h (3 Bft)
23.01.2021 08:14 1,1 C 0,6 C 95 % 999,0 hPa 0,0 l/m 8,0 km/h (2 Bft) S-SW 202 0 min 0,0 UV-I 0 W/m 0,4 C -0,5 C 9,7 km/h (2 Bft)
23.01.2021 08:15 1,1 C 0,6 C 95 % 999,1 hPa 0,0 l/m 9,7 km/h (2 Bft) S-SW 202 0 min 0,0 UV-I 0 W/m 0,4 C -2,0 C 11,3 km/h (2 Bft)
23.01.2021 08:16 1,1 C 0,6 C 95 % 999,0 hPa 0,0 l/m 8,0 km/h (2 Bft) S-SW 202 0 min 0,0 UV-I 0 W/m 0,4 C -0,5 C 11,3 km/h (2 Bft)
23.01.2021 08:17 1,1 C 0,6 C 95 % 999,0 hPa 0,0 l/m 11,3 km/h (2 Bft) S-SW 202 0 min 0,0 UV-I 0 W/m 0,4 C -3,2 C 17,7 km/h (3 Bft)
23.01.2021 08:18 1,0 C 0,6 C 95 % 999,0 hPa 0,0 l/m 12,9 km/h (3 Bft) S 180 0 min 0,0 UV-I 0 W/m 0,3 C -4,5 C 16,1 km/h (3 Bft)
23.01.2021 08:19 1,1 C 0,6 C 95 % 999,0 hPa 0,0 l/m 6,4 km/h (2 Bft) S-SW 202 0 min 0,0 UV-I 0 W/m 0,4 C 1,1 C 9,7 km/h (2 Bft)
23.01.2021 08:20 1,1 C 0,6 C 95 % 999,0 hPa 0,0 l/m 8,0 km/h (2 Bft) S 180 0 min 0,0 UV-I 0 W/m 0,4 C -0,5 C 12,9 km/h (3 Bft)
23.01.2021 08:21 1,1 C 0,6 C 95 % 999,1 hPa 0,0 l/m 9,7 km/h (2 Bft) S 180 0 min 0,0 UV-I 0 W/m 0,4 C -2,0 C 12,9 km/h (3 Bft)
23.01.2021 08:22 1,1 C 0,6 C 95 % 999,1 hPa 0,0 l/m 6,4 km/h (2 Bft) S-SW 202 0 min 0,0 UV-I 0 W/m 0,4 C 1,1 C 11,3 km/h (2 Bft)
23.01.2021 08:23 1,1 C 0,6 C 95 % 999,1 hPa 0,0 l/m 12,9 km/h (3 Bft) S-SW 202 0 min 0,0 UV-I 0 W/m 0,4 C -4,3 C 16,1 km/h (3 Bft)
23.01.2021 08:24 1,1 C 0,6 C 95 % 999,1 hPa 0,0 l/m 11,3 km/h (2 Bft) S-SW 202 0 min 0,0 UV-I 0 W/m 0,4 C -3,2 C 12,9 km/h (3 Bft)
23.01.2021 08:25 1,1 C 0,6 C 95 % 999,1 hPa 0,0 l/m 9,7 km/h (2 Bft) S 180 0 min 0,0 UV-I 0 W/m 0,4 C -2,0 C 16,1 km/h (3 Bft)
23.01.2021 08:26 1,1 C 0,6 C 95 % 999,1 hPa 0,0 l/m 9,7 km/h (2 Bft) S-SW 202 0 min 0,0 UV-I 0 W/m 0,4 C -2,0 C 16,1 km/h (3 Bft)
23.01.2021 08:27 1,1 C 0,6 C 95 % 999,1 hPa 0,0 l/m 8,0 km/h (2 Bft) S-SW 202 0 min 0,0 UV-I 0 W/m 0,4 C -0,5 C 9,7 km/h (2 Bft)
23.01.2021 08:28 1,1 C 0,6 C 95 % 999,2 hPa 0,0 l/m 8,0 km/h (2 Bft) S 180 0 min 0,0 UV-I 0 W/m 0,4 C -0,5 C 14,5 km/h (3 Bft)
23.01.2021 08:29 1,1 C 0,6 C 95 % 999,2 hPa 0,0 l/m 8,0 km/h (2 Bft) S 180 0 min 0,0 UV-I 0 W/m 0,4 C -0,5 C 14,5 km/h (3 Bft)
23.01.2021 08:30 1,1 C 0,6 C 95 % 999,2 hPa 0,0 l/m 9,7 km/h (2 Bft) S-SW 202 0 min 0,0 UV-I 0 W/m 0,4 C -2,0 C 14,5 km/h (3 Bft)
23.01.2021 08:31 1,1 C 0,6 C 95 % 999,1 hPa 0,0 l/m 9,7 km/h (2 Bft) S-SW 202 0 min 0,0 UV-I 0 W/m 0,4 C -2,0 C 12,9 km/h (3 Bft)
23.01.2021 08:32 1,1 C 0,6 C 95 % 999,2 hPa 0,0 l/m 8,0 km/h (2 Bft) S-SW 202 0 min 0,0 UV-I 0 W/m 0,4 C -0,5 C 12,9 km/h (3 Bft)
23.01.2021 08:33 1,1 C 0,6 C 95 % 999,2 hPa 0,0 l/m 11,3 km/h (2 Bft) S 180 0 min 0,0 UV-I 0 W/m 0,4 C -3,2 C 16,1 km/h (3 Bft)
23.01.2021 08:34 1,1 C 0,6 C 95 % 999,2 hPa 0,0 l/m 8,0 km/h (2 Bft) S 180 0 min 0,0 UV-I 0 W/m 0,4 C -0,5 C 12,9 km/h (3 Bft)
23.01.2021 08:35 1,1 C 0,6 C 95 % 999,2 hPa 0,0 l/m 6,4 km/h (2 Bft) S-SW 202 0 min 0,0 UV-I 0 W/m 0,4 C 1,1 C 11,3 km/h (2 Bft)
23.01.2021 08:36 1,1 C 0,6 C 95 % 999,1 hPa 0,0 l/m 6,4 km/h (2 Bft) S-SW 202 0 min 0,0 UV-I 0 W/m 0,4 C 1,1 C 8,0 km/h (2 Bft)
23.01.2021 08:37 1,1 C 0,6 C 95 % 999,2 hPa 0,0 l/m 8,0 km/h (2 Bft) S-SW 202 0 min 0,0 UV-I 0 W/m 0,4 C -0,5 C 9,7 km/h (2 Bft)
23.01.2021 08:38 1,1 C 0,6 C 95 % 999,1 hPa 0,0 l/m 9,7 km/h (2 Bft) S-SW 202 0 min 0,0 UV-I 0 W/m 0,4 C -2,0 C 12,9 km/h (3 Bft)
23.01.2021 08:39 1,1 C 0,6 C 95 % 999,2 hPa 0,0 l/m 8,0 km/h (2 Bft) S 180 0 min 0,0 UV-I 0 W/m 0,4 C -0,5 C 14,5 km/h (3 Bft)
23.01.2021 08:40 1,1 C 0,6 C 95 % 999,2 hPa 0,0 l/m 8,0 km/h (2 Bft) S-SW 202 0 min 0,0 UV-I 0 W/m 0,4 C -0,5 C 16,1 km/h (3 Bft)
23.01.2021 08:41 1,1 C 0,6 C 95 % 999,1 hPa 0,0 l/m 9,7 km/h (2 Bft) S-SW 202 0 min 0,0 UV-I 0 W/m 0,4 C -2,0 C 14,5 km/h (3 Bft)
23.01.2021 08:42 1,1 C 0,6 C 95 % 999,2 hPa 0,0 l/m 9,7 km/h (2 Bft) S 180 0 min 0,0 UV-I 0 W/m 0,4 C -2,0 C 14,5 km/h (3 Bft)
23.01.2021 08:43 1,1 C 0,6 C 95 % 999,1 hPa 0,0 l/m 9,7 km/h (2 Bft) S-SW 202 0 min 0,0 UV-I 0 W/m 0,4 C -2,0 C 14,5 km/h (3 Bft)
23.01.2021 08:44 1,1 C 0,6 C 95 % 999,2 hPa 0,0 l/m 8,0 km/h (2 Bft) S-SW 202 0 min 0,0 UV-I 0 W/m 0,4 C -0,5 C 11,3 km/h (2 Bft)
23.01.2021 08:45 1,1 C 0,6 C 95 % 999,2 hPa 0,0 l/m 8,0 km/h (2 Bft) S-SW 202 0 min 0,0 UV-I 0 W/m 0,4 C -0,5 C 11,3 km/h (2 Bft)
23.01.2021 08:46 1,1 C 0,6 C 95 % 999,2 hPa 0,0 l/m 4,8 km/h (1 Bft) S 180 0 min 0,0 UV-I 0 W/m 0,4 C 1,1 C 6,4 km/h (2 Bft)
23.01.2021 08:47 1,1 C 0,6 C 95 % 999,2 hPa 0,0 l/m 6,4 km/h (2 Bft) S 180 0 min 0,0 UV-I 0 W/m 0,4 C 1,1 C 9,7 km/h (2 Bft)
23.01.2021 08:48 1,1 C 0,6 C 95 % 999,2 hPa 0,0 l/m 8,0 km/h (2 Bft) S 180 0 min 0,0 UV-I 0 W/m 0,4 C -0,5 C 11,3 km/h (2 Bft)
23.01.2021 08:49 1,2 C 0,6 C 95 % 999,2 hPa 0,0 l/m 11,3 km/h (2 Bft) S-SW 202 0 min 0,0 UV-I 0 W/m 0,5 C -3,1 C 16,1 km/h (3 Bft)
23.01.2021 08:50 1,1 C 0,6 C 95 % 999,1 hPa 0,0 l/m 9,7 km/h (2 Bft) S-SW 202 0 min 0,0 UV-I 0 W/m 0,4 C -2,0 C 12,9 km/h (3 Bft)
23.01.2021 08:51 1,2 C 0,6 C 95 % 999,1 hPa 0,0 l/m 8,0 km/h (2 Bft) S 180 0 min 0,0 UV-I 5 W/m 0,5 C -0,4 C 11,3 km/h (2 Bft)
23.01.2021 08:52 1,2 C 0,6 C 95 % 999,2 hPa 0,0 l/m 8,0 km/h (2 Bft) S 180 0 min 0,0 UV-I 5 W/m 0,5 C -0,4 C 11,3 km/h (2 Bft)
23.01.2021 08:53 1,2 C 0,6 C 95 % 999,1 hPa 0,0 l/m 6,4 km/h (2 Bft) S-SW 202 0 min 0,0 UV-I 5 W/m 0,5 C 1,2 C 9,7 km/h (2 Bft)
23.01.2021 08:54 1,2 C 0,6 C 95 % 999,2 hPa 0,0 l/m 8,0 km/h (2 Bft) S-SW 202 0 min 0,0 UV-I 5 W/m 0,5 C -0,4 C 12,9 km/h (3 Bft)
23.01.2021 08:55 1,2 C 0,6 C 95 % 999,1 hPa 0,0 l/m 8,0 km/h (2 Bft) S 180 0 min 0,0 UV-I 7 W/m 0,5 C -0,4 C 11,3 km/h (2 Bft)
23.01.2021 08:56 1,2 C 0,6 C 95 % 999,1 hPa 0,0 l/m 9,7 km/h (2 Bft) S 180 0 min 0,0 UV-I 7 W/m 0,5 C -1,9 C 12,9 km/h (3 Bft)
23.01.2021 08:57 1,2 C 0,6 C 95 % 999,0 hPa 0,0 l/m 8,0 km/h (2 Bft) S-SW 202 0 min 0,0 UV-I 7 W/m 0,5 C -0,4 C 11,3 km/h (2 Bft)
23.01.2021 08:58 1,2 C 0,6 C 95 % 999,1 hPa 0,0 l/m 8,0 km/h (2 Bft) S 180 0 min 0,0 UV-I 7 W/m 0,5 C -0,4 C 14,5 km/h (3 Bft)
23.01.2021 08:59 1,2 C 0,6 C 95 % 999,1 hPa 0,0 l/m 8,0 km/h (2 Bft) S-SW 202 0 min 0,0 UV-I 5 W/m 0,5 C -0,4 C 9,7 km/h (2 Bft)
23.01.2021 09:00 1,2 C 0,6 C 95 % 999,1 hPa 0,0 l/m 9,7 km/h (2 Bft) S-SW 202 0 min 0,0 UV-I 7 W/m 0,5 C -1,9 C 12,9 km/h (3 Bft)
23.01.2021 09:01 1,2 C 0,6 C 95 % 999,1 hPa 0,0 l/m 9,7 km/h (2 Bft) S 180 0 min 0,0 UV-I 7 W/m 0,5 C -1,9 C 14,5 km/h (3 Bft)
23.01.2021 09:02 1,2 C 0,6 C 95 % 999,1 hPa 0,0 l/m 6,4 km/h (2 Bft) S-SW 202 0 min 0,0 UV-I 7 W/m 0,5 C 1,2 C 8,0 km/h (2 Bft)
23.01.2021 09:03 1,2 C 0,6 C 95 % 999,2 hPa 0,0 l/m 9,7 km/h (2 Bft) S 180 0 min 0,0 UV-I 7 W/m 0,5 C -1,9 C 12,9 km/h (3 Bft)
23.01.2021 09:04 1,2 C 0,6 C 95 % 999,2 hPa 0,0 l/m 9,7 km/h (2 Bft) S 180 0 min 0,0 UV-I 7 W/m 0,5 C -1,9 C 14,5 km/h (3 Bft)
23.01.2021 09:05 1,2 C 0,6 C 95 % 999,1 hPa 0,0 l/m 9,7 km/h (2 Bft) S-SW 202 0 min 0,0 UV-I 7 W/m 0,5 C -1,9 C 14,5 km/h (3 Bft)
23.01.2021 09:06 1,2 C 0,6 C 95 % 999,1 hPa 0,0 l/m 12,9 km/h (3 Bft) S-SW 202 0 min 0,0 UV-I 9 W/m 0,5 C -4,2 C 16,1 km/h (3 Bft)
23.01.2021 09:07 1,2 C 0,6 C 95 % 999,1 hPa 0,0 l/m 11,3 km/h (2 Bft) S 180 0 min 0,0 UV-I 9 W/m 0,5 C -3,1 C 19,3 km/h (3 Bft)
23.01.2021 09:08 1,2 C 0,6 C 95 % 999,1 hPa 0,0 l/m 6,4 km/h (2 Bft) S-SW 202 0 min 0,0 UV-I 9 W/m 0,5 C 1,2 C 8,0 km/h (2 Bft)
23.01.2021 09:09 1,2 C 0,6 C 95 % 999,1 hPa 0,0 l/m 11,3 km/h (2 Bft) S 180 0 min 0,0 UV-I 9 W/m 0,5 C -3,1 C 16,1 km/h (3 Bft)
23.01.2021 09:10 1,2 C 0,6 C 95 % 999,0 hPa 0,0 l/m 9,7 km/h (2 Bft) S 180 0 min 0,0 UV-I 9 W/m 0,5 C -1,9 C 14,5 km/h (3 Bft)
23.01.2021 09:11 1,2 C 0,6 C 95 % 999,1 hPa 0,0 l/m 9,7 km/h (2 Bft) S 180 0 min 0,0 UV-I 11 W/m 0,5 C -1,9 C 12,9 km/h (3 Bft)
23.01.2021 09:12 1,2 C 0,6 C 95 % 999,0 hPa 0,0 l/m 9,7 km/h (2 Bft) S-SW 202 0 min 0,0 UV-I 11 W/m 0,5 C -1,9 C 12,9 km/h (3 Bft)
23.01.2021 09:13 1,2 C 0,6 C 95 % 999,0 hPa 0,0 l/m 9,7 km/h (2 Bft) S 180 0 min 0,0 UV-I 11 W/m 0,5 C -1,9 C 16,1 km/h (3 Bft)
23.01.2021 09:14 1,2 C 0,6 C 95 % 999,0 hPa 0,0 l/m 6,4 km/h (2 Bft) S 180 0 min 0,0 UV-I 12 W/m 0,5 C 1,2 C 9,7 km/h (2 Bft)
23.01.2021 09:15 1,2 C 0,6 C 95 % 999,1 hPa 0,0 l/m 8,0 km/h (2 Bft) S-SW 202 0 min 0,0 UV-I 12 W/m 0,5 C -0,4 C 11,3 km/h (2 Bft)
23.01.2021 09:16 1,2 C 0,6 C 95 % 999,0 hPa 0,0 l/m 11,3 km/h (2 Bft) S 180 0 min 0,0 UV-I 12 W/m 0,5 C -3,1 C 14,5 km/h (3 Bft)
23.01.2021 09:17 1,2 C 0,6 C 95 % 999,1 hPa 0,0 l/m 8,0 km/h (2 Bft) S 180 0 min 0,0 UV-I 12 W/m 0,5 C -0,4 C 12,9 km/h (3 Bft)
23.01.2021 09:18 1,2 C 0,6 C 95 % 999,1 hPa 0,0 l/m 9,7 km/h (2 Bft) S 180 0 min 0,0 UV-I 12 W/m 0,5 C -1,9 C 14,5 km/h (3 Bft)
23.01.2021 09:19 1,2 C 0,6 C 95 % 999,0 hPa 0,0 l/m 9,7 km/h (2 Bft) S 180 0 min 0,0 UV-I 12 W/m 0,5 C -1,9 C 14,5 km/h (3 Bft)
23.01.2021 09:20 1,2 C 0,6 C 95 % 999,0 hPa 0,0 l/m 8,0 km/h (2 Bft) S 180 0 min 0,0 UV-I 11 W/m 0,5 C -0,4 C 11,3 km/h (2 Bft)
23.01.2021 09:21 1,2 C 0,6 C 95 % 999,0 hPa 0,0 l/m 11,3 km/h (2 Bft) S 180 0 min 0,0 UV-I 12 W/m 0,5 C -3,1 C 14,5 km/h (3 Bft)
23.01.2021 09:22 1,2 C 1,1 C 95 % 999,1 hPa 0,0 l/m 8,0 km/h (2 Bft) S-SW 202 0 min 0,0 UV-I 12 W/m 0,5 C -0,4 C 11,3 km/h (2 Bft)
23.01.2021 09:23 1,2 C 1,1 C 95 % 999,0 hPa 0,0 l/m 6,4 km/h (2 Bft) S 180 0 min 0,0 UV-I 12 W/m 0,5 C 1,2 C 9,7 km/h (2 Bft)
23.01.2021 09:24 1,3 C 1,1 C 95 % 999,1 hPa 0,0 l/m 6,4 km/h (2 Bft) S-SW 202 0 min 0,0 UV-I 12 W/m 0,6 C 1,3 C 8,0 km/h (2 Bft)
23.01.2021 09:25 1,2 C 0,6 C 95 % 999,1 hPa 0,0 l/m 11,3 km/h (2 Bft) S 180 0 min 0,0 UV-I 12 W/m 0,5 C -3,1 C 16,1 km/h (3 Bft)
23.01.2021 09:26 1,2 C 1,1 C 95 % 999,1 hPa 0,0 l/m 9,7 km/h (2 Bft) S 180 0 min 0,0 UV-I 11 W/m 0,5 C -1,9 C 16,1 km/h (3 Bft)
23.01.2021 09:27 1,2 C 1,1 C 95 % 999,0 hPa 0,0 l/m 11,3 km/h (2 Bft) S 180 0 min 0,0 UV-I 12 W/m 0,5 C -3,1 C 17,7 km/h (3 Bft)
23.01.2021 09:28 1,2 C 1,1 C 95 % 999,0 hPa 0,0 l/m 9,7 km/h (2 Bft) S-SO 157 0 min 0,0 UV-I 12 W/m 0,5 C -1,9 C 14,5 km/h (3 Bft)
23.01.2021 09:29 1,2 C 1,1 C 95 % 999,1 hPa 0,0 l/m 8,0 km/h (2 Bft) S 180 0 min 0,0 UV-I 12 W/m 0,5 C -0,4 C 12,9 km/h (3 Bft)
23.01.2021 09:30 1,2 C 1,1 C 95 % 999,1 hPa 0,0 l/m 8,0 km/h (2 Bft) S 180 0 min 0,0 UV-I 12 W/m 0,5 C -0,4 C 12,9 km/h (3 Bft)
23.01.2021 09:31 1,2 C 1,1 C 95 % 999,0 hPa 0,0 l/m 14,5 km/h (3 Bft) S-SW 202 0 min 0,0 UV-I 12 W/m 0,5 C -5,2 C 19,3 km/h (3 Bft)
23.01.2021 09:32 1,2 C 1,1 C 95 % 999,0 hPa 0,0 l/m 14,5 km/h (3 Bft) S-SW 202 0 min 0,0 UV-I 12 W/m 0,5 C -5,2 C 17,7 km/h (3 Bft)
23.01.2021 09:33 1,2 C 1,1 C 95 % 999,0 hPa 0,0 l/m 12,9 km/h (3 Bft) S-SW 202 0 min 0,0 UV-I 14 W/m 0,5 C -4,2 C 19,3 km/h (3 Bft)
23.01.2021 09:34 1,2 C 1,1 C 95 % 999,0 hPa 0,0 l/m 8,0 km/h (2 Bft) S-SW 202 0 min 0,0 UV-I 16 W/m 0,5 C -0,4 C 12,9 km/h (3 Bft)
23.01.2021 09:35 1,3 C 1,1 C 95 % 999,0 hPa 0,0 l/m 9,7 km/h (2 Bft) S 180 0 min 0,0 UV-I 16 W/m 0,6 C -1,8 C 14,5 km/h (3 Bft)
23.01.2021 09:36 1,2 C 1,1 C 95 % 999,1 hPa 0,0 l/m 9,7 km/h (2 Bft) S 180 0 min 0,0 UV-I 16 W/m 0,5 C -1,9 C 12,9 km/h (3 Bft)
23.01.2021 09:37 1,3 C 1,1 C 95 % 999,0 hPa 0,0 l/m 8,0 km/h (2 Bft) S-SW 202 0 min 0,0 UV-I 14 W/m 0,6 C -0,3 C 12,9 km/h (3 Bft)
23.01.2021 09:38 1,2 C 1,1 C 94 % 999,0 hPa 0,0 l/m 11,3 km/h (2 Bft) S 180 0 min 0,0 UV-I 14 W/m 0,3 C -3,1 C 17,7 km/h (3 Bft)
23.01.2021 09:39 1,3 C 1,1 C 94 % 999,0 hPa 0,0 l/m 9,7 km/h (2 Bft) S-SW 202 0 min 0,0 UV-I 18 W/m 0,4 C -1,8 C 12,9 km/h (3 Bft)
23.01.2021 09:40 1,3 C 1,1 C 94 % 999,0 hPa 0,0 l/m 11,3 km/h (2 Bft) S 180 0 min 0,0 UV-I 21 W/m 0,4 C -3,0 C 14,5 km/h (3 Bft)
23.01.2021 09:41 1,3 C 1,1 C 94 % 999,0 hPa 0,0 l/m 11,3 km/h (2 Bft) S-SW 202 0 min 0,0 UV-I 21 W/m 0,4 C -3,0 C 14,5 km/h (3 Bft)
23.01.2021 09:42 1,3 C 1,1 C 94 % 999,0 hPa 0,0 l/m 14,5 km/h (3 Bft) S 180 0 min 0,0 UV-I 23 W/m 0,4 C -5,1 C 19,3 km/h (3 Bft)
23.01.2021 09:43 1,3 C 1,1 C 94 % 999,0 hPa 0,0 l/m 12,9 km/h (3 Bft) S 180 0 min 0,0 UV-I 25 W/m 0,4 C -4,1 C 25,7 km/h (4 Bft)
23.01.2021 09:44 1,3 C 1,1 C 94 % 999,0 hPa 0,0 l/m 12,9 km/h (3 Bft) S-SW 202 0 min 0,0 UV-I 25 W/m 0,4 C -4,1 C 19,3 km/h (3 Bft)
23.01.2021 09:45 1,3 C 1,1 C 94 % 999,0 hPa 0,0 l/m 12,9 km/h (3 Bft) S-SW 202 0 min 0,0 UV-I 23 W/m 0,4 C -4,1 C 16,1 km/h (3 Bft)
23.01.2021 09:46 1,3 C 1,1 C 94 % 999,0 hPa 0,0 l/m 14,5 km/h (3 Bft) S 180 0 min 0,0 UV-I 23 W/m 0,4 C -5,1 C 20,9 km/h (4 Bft)
23.01.2021 09:47 1,3 C 1,1 C 94 % 999,1 hPa 0,0 l/m 14,5 km/h (3 Bft) S-SW 202 0 min 0,0 UV-I 21 W/m 0,4 C -5,1 C 19,3 km/h (3 Bft)
23.01.2021 09:50 1,3 C 1,1 C 94 % 999,0 hPa 0,0 l/m 9,5 km/h (2 Bft) S 180 0 min 0,0 UV-I 32 W/m 0,4 C -1,6 C 14,5 km/h (3 Bft)
23.01.2021 09:52 1,3 C 1,1 C 94 % 999,0 hPa 0,0 l/m 11,8 km/h (2 Bft) S-SO 164 0 min 0,0 UV-I 33 W/m 0,4 C -3,4 C 17,7 km/h (3 Bft)
23.01.2021 09:54 1,3 C 1,1 C 94 % 999,0 hPa 0,0 l/m 9,5 km/h (2 Bft) S-SW 200 0 min 0,0 UV-I 34 W/m 0,4 C -1,6 C 16,1 km/h (3 Bft)
23.01.2021 09:56 1,3 C 1,1 C 94 % 999,0 hPa 0,0 l/m 11,5 km/h (2 Bft) S 180 0 min 0,0 UV-I 30 W/m 0,4 C -3,2 C 19,3 km/h (3 Bft)
23.01.2021 09:58 1,3 C 1,1 C 94 % 998,9 hPa 0,0 l/m 9,1 km/h (2 Bft) S 175 0 min 0,0 UV-I 30 W/m 0,4 C -1,3 C 14,5 km/h (3 Bft)
23.01.2021 10:00 1,3 C 1,1 C 94 % 999,0 hPa 0,0 l/m 11,2 km/h (2 Bft) SO 142 0 min 0,0 UV-I 34 W/m 0,4 C -2,9 C 17,7 km/h (3 Bft)
23.01.2021 10:02 1,3 C 1,1 C 94 % 999,0 hPa 0,0 l/m 9,1 km/h (2 Bft) S 173 0 min 0,0 UV-I 35 W/m 0,4 C -1,3 C 16,1 km/h (3 Bft)
23.01.2021 10:04 1,3 C 1,1 C 94 % 998,9 hPa 0,0 l/m 12,1 km/h (2 Bft) S 175 0 min 0,0 UV-I 36 W/m 0,4 C -3,6 C 19,3 km/h (3 Bft)
23.01.2021 10:06 1,3 C 1,1 C 94 % 999,0 hPa 0,0 l/m 11,8 km/h (2 Bft) S-SO 161 0 min 0,0 UV-I 41 W/m 0,4 C -3,4 C 19,3 km/h (3 Bft)
23.01.2021 10:08 1,3 C 1,1 C 94 % 998,9 hPa 0,0 l/m 11,1 km/h (2 Bft) S 171 0 min 0,0 UV-I 46 W/m 0,4 C -2,9 C 17,7 km/h (3 Bft)
23.01.2021 10:10 1,3 C 1,1 C 94 % 998,9 hPa 0,0 l/m 10,3 km/h (2 Bft) S 174 0 min 0,0 UV-I 51 W/m 0,4 C -2,3 C 20,9 km/h (4 Bft)
23.01.2021 10:12 1,3 C 1,1 C 94 % 998,9 hPa 0,0 l/m 10,0 km/h (2 Bft) SW 219 0 min 0,0 UV-I 63 W/m 0,4 C -2,0 C 16,1 km/h (3 Bft)
23.01.2021 10:14 1,4 C 1,1 C 94 % 999,0 hPa 0,0 l/m 10,0 km/h (2 Bft) S-SW 210 0 min 0,0 UV-I 67 W/m 0,5 C -1,9 C 14,5 km/h (3 Bft)
23.01.2021 10:16 1,4 C 1,7 C 94 % 998,9 hPa 0,0 l/m 11,1 km/h (2 Bft) S-SO 151 0 min 0,0 UV-I 79 W/m 0,5 C -2,7 C 14,5 km/h (3 Bft)
23.01.2021 10:18 1,4 C 1,7 C 94 % 998,9 hPa 0,0 l/m 8,1 km/h (2 Bft) S-SW 192 0 min 0,0 UV-I 77 W/m 0,5 C -0,3 C 14,5 km/h (3 Bft)
23.01.2021 10:20 1,4 C 1,7 C 93 % 998,9 hPa 0,0 l/m 10,2 km/h (2 Bft) S-SW 205 0 min 0,0 UV-I 89 W/m 0,4 C -2,1 C 16,1 km/h (3 Bft)
23.01.2021 10:22 1,5 C 1,7 C 93 % 998,9 hPa 0,0 l/m 9,8 km/h (2 Bft) S-SO 161 0 min 0,0 UV-I 85 W/m 0,5 C -1,6 C 14,5 km/h (3 Bft)
23.01.2021 10:24 1,5 C 1,7 C 93 % 999,0 hPa 0,0 l/m 9,8 km/h (2 Bft) S-SW 194 0 min 0,0 UV-I 84 W/m 0,5 C -1,6 C 16,1 km/h (3 Bft)
23.01.2021 10:26 1,5 C 1,7 C 93 % 998,9 hPa 0,0 l/m 6,8 km/h (2 Bft) S-SO 161 0 min 0,0 UV-I 73 W/m 0,5 C 1,1 C 9,7 km/h (2 Bft)
23.01.2021 10:28 1,5 C 1,7 C 93 % 998,9 hPa 0,0 l/m 6,3 km/h (2 Bft) S 180 0 min 0,0 UV-I 66 W/m 0,5 C 1,5 C 14,5 km/h (3 Bft)
23.01.2021 10:30 1,5 C 1,7 C 93 % 998,8 hPa 0,0 l/m 9,4 km/h (2 Bft) S-SW 195 0 min 0,0 UV-I 66 W/m 0,5 C -1,3 C 17,7 km/h (3 Bft)
23.01.2021 10:32 1,5 C 1,7 C 93 % 998,8 hPa 0,0 l/m 7,5 km/h (2 Bft) S-SW 195 0 min 0,0 UV-I 51 W/m 0,5 C 0,4 C 12,9 km/h (3 Bft)
23.01.2021 10:34 1,4 C 1,7 C 93 % 998,9 hPa 0,0 l/m 12,0 km/h (2 Bft) S-SW 198 0 min 0,0 UV-I 57 W/m 0,4 C -3,4 C 17,7 km/h (3 Bft)
23.01.2021 10:36 1,4 C 1,7 C 93 % 998,9 hPa 0,0 l/m 8,1 km/h (2 Bft) S-SW 202 0 min 0,0 UV-I 70 W/m 0,4 C -0,3 C 14,5 km/h (3 Bft)
23.01.2021 10:38 1,5 C 1,7 C 93 % 998,9 hPa 0,0 l/m 7,8 km/h (2 Bft) S-SW 199 0 min 0,0 UV-I 86 W/m 0,5 C 0,1 C 12,9 km/h (3 Bft)
23.01.2021 10:40 1,5 C 1,7 C 92 % 998,9 hPa 0,0 l/m 6,9 km/h (2 Bft) S 169 0 min 0,1 UV-I 105 W/m 0,3 C 1,0 C 12,9 km/h (3 Bft)
23.01.2021 10:42 1,6 C 2,2 C 93 % 998,9 hPa 0,0 l/m 6,4 km/h (2 Bft) S-SO 156 0 min 0,5 UV-I 120 W/m 0,6 C 1,6 C 9,7 km/h (2 Bft)
23.01.2021 10:44 1,6 C 2,2 C 93 % 999,0 hPa 0,0 l/m 9,8 km/h (2 Bft) S-SW 204 0 min 0,5 UV-I 121 W/m 0,6 C -1,5 C 17,7 km/h (3 Bft)
23.01.2021 10:46 1,6 C 2,2 C 92 % 998,8 hPa 0,0 l/m 12,4 km/h (3 Bft) S 169 0 min 0,5 UV-I 121 W/m 0,4 C -3,4 C 19,3 km/h (3 Bft)
23.01.2021 10:48 1,7 C 2,2 C 92 % 998,7 hPa 0,0 l/m 7,1 km/h (2 Bft) S 191 0 min 0,6 UV-I 115 W/m 0,5 C 1,0 C 12,9 km/h (3 Bft)
23.01.2021 10:50 1,7 C 2,8 C 92 % 998,7 hPa 0,0 l/m 7,7 km/h (2 Bft) S 173 0 min 0,6 UV-I 117 W/m 0,5 C 0,4 C 14,5 km/h (3 Bft)
23.01.2021 10:52 1,7 C 2,8 C 92 % 998,7 hPa 0,0 l/m 7,8 km/h (2 Bft) S 180 0 min 0,6 UV-I 134 W/m 0,5 C 0,3 C 14,5 km/h (3 Bft)
23.01.2021 10:54 1,8 C 4,4 C 92 % 998,7 hPa 0,0 l/m 6,3 km/h (2 Bft) S-SW 193 2 min 0,7 UV-I 232 W/m 0,6 C 1,8 C 9,7 km/h (2 Bft)
23.01.2021 10:56 1,9 C 4,4 C 92 % 998,7 hPa 0,0 l/m 6,6 km/h (2 Bft) S 186 0 min 0,7 UV-I 213 W/m 0,7 C 1,7 C 9,7 km/h (2 Bft)
23.01.2021 10:58 1,9 C 4,4 C 91 % 998,6 hPa 0,0 l/m 7,5 km/h (2 Bft) S 190 0 min 0,7 UV-I 146 W/m 0,6 C 0,8 C 11,3 km/h (2 Bft)
23.01.2021 11:00 1,9 C 5,0 C 92 % 998,7 hPa 0,0 l/m 6,8 km/h (2 Bft) S 187 0 min 0,8 UV-I 173 W/m 0,7 C 1,5 C 9,7 km/h (2 Bft)
23.01.2021 11:02 1,9 C 3,9 C 91 % 998,5 hPa 0,0 l/m 7,2 km/h (2 Bft) S 171 0 min 0,7 UV-I 162 W/m 0,6 C 1,1 C 11,3 km/h (2 Bft)
23.01.2021 11:04 1,9 C 5,6 C 91 % 998,4 hPa 0,0 l/m 5,6 km/h (1 Bft) S 183 2 min 0,8 UV-I 246 W/m 0,6 C 1,9 C 9,7 km/h (2 Bft)
23.01.2021 11:06 2,1 C 5,0 C 92 % 998,5 hPa 0,0 l/m 4,8 km/h (1 Bft) S 178 0 min 0,7 UV-I 188 W/m 0,9 C 2,1 C 8,0 km/h (2 Bft)
23.01.2021 11:08 2,2 C 5,6 C 91 % 998,5 hPa 0,0 l/m 8,4 km/h (2 Bft) S 182 0 min 0,8 UV-I 227 W/m 0,9 C 0,3 C 16,1 km/h (3 Bft)
23.01.2021 11:10 2,1 C 4,4 C 90 % 998,5 hPa 0,0 l/m 10,5 km/h (2 Bft) S 173 0 min 0,7 UV-I 190 W/m 0,6 C -1,5 C 16,1 km/h (3 Bft)
23.01.2021 11:12 2,1 C 3,9 C 90 % 998,4 hPa 0,0 l/m 8,3 km/h (2 Bft) S-SO 148 0 min 0,7 UV-I 191 W/m 0,6 C 0,3 C 14,5 km/h (3 Bft)
23.01.2021 11:14 2,1 C 3,9 C 91 % 998,5 hPa 0,0 l/m 5,7 km/h (1 Bft) S 180 0 min 0,7 UV-I 184 W/m 0,8 C 2,1 C 9,7 km/h (2 Bft)
23.01.2021 11:16 2,1 C 4,4 C 90 % 998,4 hPa 0,0 l/m 7,0 km/h (2 Bft) S 173 0 min 0,7 UV-I 210 W/m 0,6 C 1,5 C 12,9 km/h (3 Bft)
23.01.2021 11:18 2,1 C 3,9 C 90 % 998,5 hPa 0,0 l/m 6,9 km/h (2 Bft) S 169 0 min 0,7 UV-I 153 W/m 0,6 C 1,6 C 9,7 km/h (2 Bft)
23.01.2021 11:20 2,1 C 3,3 C 90 % 998,5 hPa 0,0 l/m 7,3 km/h (2 Bft) S-SW 194 0 min 0,6 UV-I 134 W/m 0,6 C 1,2 C 11,3 km/h (2 Bft)
23.01.2021 11:22 2,1 C 3,3 C 91 % 998,4 hPa 0,0 l/m 7,5 km/h (2 Bft) S-SO 162 0 min 0,6 UV-I 128 W/m 0,8 C 1,0 C 12,9 km/h (3 Bft)
23.01.2021 11:24 2,0 C 2,8 C 90 % 998,4 hPa 0,0 l/m 8,5 km/h (2 Bft) S 180 0 min 0,7 UV-I 133 W/m 0,5 C 0,0 C 14,5 km/h (3 Bft)
23.01.2021 11:26 1,9 C 2,8 C 90 % 998,3 hPa 0,0 l/m 8,5 km/h (2 Bft) S-SW 194 0 min 0,7 UV-I 144 W/m 0,4 C -0,1 C 12,9 km/h (3 Bft)
23.01.2021 11:28 1,9 C 2,8 C 90 % 998,3 hPa 0,0 l/m 8,9 km/h (2 Bft) S 186 0 min 0,7 UV-I 127 W/m 0,4 C -0,5 C 14,5 km/h (3 Bft)
23.01.2021 11:30 1,9 C 2,8 C 90 % 998,2 hPa 0,0 l/m 10,0 km/h (2 Bft) S-SO 151 0 min 0,7 UV-I 129 W/m 0,4 C -1,4 C 14,5 km/h (3 Bft)
23.01.2021 11:32 1,9 C 2,2 C 90 % 998,3 hPa 0,0 l/m 10,3 km/h (2 Bft) S-SO 167 0 min 0,7 UV-I 127 W/m 0,4 C -1,6 C 17,7 km/h (3 Bft)
23.01.2021 11:34 1,8 C 2,2 C 90 % 998,2 hPa 0,0 l/m 9,7 km/h (2 Bft) S 186 0 min 0,6 UV-I 120 W/m 0,3 C -1,2 C 16,1 km/h (3 Bft)
23.01.2021 11:36 1,9 C 2,2 C 90 % 998,3 hPa 0,0 l/m 11,2 km/h (2 Bft) S-SO 151 0 min 0,6 UV-I 110 W/m 0,4 C -2,3 C 16,1 km/h (3 Bft)
23.01.2021 11:38 1,9 C 2,2 C 90 % 998,2 hPa 0,0 l/m 8,9 km/h (2 Bft) S-SW 200 0 min 0,5 UV-I 101 W/m 0,4 C -0,5 C 14,5 km/h (3 Bft)
23.01.2021 11:40 1,9 C 2,2 C 91 % 998,3 hPa 0,0 l/m 10,3 km/h (2 Bft) S 169 0 min 0,5 UV-I 105 W/m 0,6 C -1,6 C 14,5 km/h (3 Bft)
23.01.2021 11:42 1,8 C 2,2 C 91 % 998,2 hPa 0,0 l/m 9,7 km/h (2 Bft) S-SO 165 0 min 0,5 UV-I 110 W/m 0,5 C -1,2 C 14,5 km/h (3 Bft)
23.01.2021 11:44 1,9 C 2,2 C 91 % 998,2 hPa 0,0 l/m 10,5 km/h (2 Bft) S-SO 156 0 min 0,4 UV-I 99 W/m 0,6 C -1,7 C 14,5 km/h (3 Bft)
23.01.2021 11:46 1,9 C 2,2 C 90 % 998,2 hPa 0,0 l/m 12,6 km/h (3 Bft) S 176 0 min 0,0 UV-I 67 W/m 0,4 C -3,2 C 17,7 km/h (3 Bft)
23.01.2021 11:48 1,8 C 1,7 C 90 % 998,2 hPa 0,0 l/m 11,8 km/h (2 Bft) S 186 0 min 0,0 UV-I 69 W/m 0,3 C -2,8 C 17,7 km/h (3 Bft)
23.01.2021 11:50 1,8 C 2,2 C 90 % 998,2 hPa 0,0 l/m 11,4 km/h (2 Bft) S-SO 165 0 min 0,1 UV-I 94 W/m 0,3 C -2,5 C 17,7 km/h (3 Bft)
23.01.2021 11:52 1,8 C 2,2 C 90 % 998,2 hPa 0,0 l/m 12,7 km/h (3 Bft) S-SO 150 0 min 0,4 UV-I 95 W/m 0,3 C -3,4 C 20,9 km/h (4 Bft)
23.01.2021 11:54 1,8 C 2,2 C 90 % 998,1 hPa 0,0 l/m 9,8 km/h (2 Bft) S-SO 158 0 min 0,0 UV-I 86 W/m 0,3 C -1,3 C 16,1 km/h (3 Bft)
23.01.2021 11:56 1,9 C 2,2 C 90 % 998,1 hPa 0,0 l/m 8,3 km/h (2 Bft) S-SW 198 0 min 0,0 UV-I 91 W/m 0,4 C 0,1 C 14,5 km/h (3 Bft)
23.01.2021 11:58 1,9 C 2,2 C 90 % 998,1 hPa 0,0 l/m 10,9 km/h (2 Bft) S 188 0 min 0,4 UV-I 102 W/m 0,4 C -2,0 C 14,5 km/h (3 Bft)
23.01.2021 12:00 1,9 C 2,2 C 90 % 997,9 hPa 0,0 l/m 10,4 km/h (2 Bft) S 180 0 min 0,5 UV-I 121 W/m 0,4 C -1,7 C 16,1 km/h (3 Bft)
23.01.2021 12:02 1,9 C 2,2 C 90 % 998,0 hPa 0,0 l/m 13,3 km/h (3 Bft) S 191 0 min 0,6 UV-I 136 W/m 0,4 C -3,7 C 17,7 km/h (3 Bft)
23.01.2021 12:04 1,9 C 2,2 C 90 % 998,1 hPa 0,0 l/m 10,6 km/h (2 Bft) S 177 0 min 0,7 UV-I 144 W/m 0,4 C -1,8 C 17,7 km/h (3 Bft)
23.01.2021 12:06 1,9 C 2,2 C 90 % 998,0 hPa 0,0 l/m 9,5 km/h (2 Bft) S 171 0 min 0,7 UV-I 140 W/m 0,4 C -1,0 C 14,5 km/h (3 Bft)
23.01.2021 12:08 2,1 C 2,8 C 90 % 998,0 hPa 0,0 l/m 11,4 km/h (2 Bft) S-SW 194 0 min 0,7 UV-I 138 W/m 0,6 C -2,2 C 24,1 km/h (4 Bft)
23.01.2021 12:10 2,0 C 2,2 C 90 % 998,1 hPa 0,0 l/m 12,0 km/h (2 Bft) S 172 0 min 0,7 UV-I 145 W/m 0,5 C -2,7 C 19,3 km/h (3 Bft)
23.01.2021 12:12 2,0 C 2,2 C 90 % 997,9 hPa 0,0 l/m 15,4 km/h (3 Bft) SW 223 0 min 0,7 UV-I 138 W/m 0,5 C -4,8 C 22,5 km/h (4 Bft)
23.01.2021 12:14 1,9 C 2,2 C 90 % 997,9 hPa 0,0 l/m 15,7 km/h (3 Bft) S-SW 207 0 min 0,7 UV-I 140 W/m 0,4 C -5,1 C 22,5 km/h (4 Bft)
23.01.2021 12:16 1,9 C 2,2 C 90 % 997,9 hPa 0,0 l/m 14,0 km/h (3 Bft) S-SW 198 0 min 0,7 UV-I 154 W/m 0,4 C -4,1 C 25,7 km/h (4 Bft)
23.01.2021 12:18 1,9 C 2,8 C 90 % 997,8 hPa 0,0 l/m 16,4 km/h (3 Bft) S-SW 206 0 min 0,8 UV-I 190 W/m 0,4 C -5,4 C 22,5 km/h (4 Bft)
23.01.2021 12:20 1,9 C 2,8 C 90 % 997,8 hPa 0,0 l/m 11,4 km/h (2 Bft) S 171 0 min 0,9 UV-I 191 W/m 0,4 C -2,4 C 19,3 km/h (3 Bft)
23.01.2021 12:22 2,1 C 3,3 C 91 % 997,9 hPa 0,0 l/m 11,8 km/h (2 Bft) S-SW 207 0 min 0,9 UV-I 203 W/m 0,8 C -2,4 C 19,3 km/h (3 Bft)
23.01.2021 12:24 2,1 C 3,3 C 90 % 997,9 hPa 0,0 l/m 10,4 km/h (2 Bft) S-SO 160 0 min 0,9 UV-I 226 W/m 0,6 C -1,4 C 17,7 km/h (3 Bft)
23.01.2021 12:26 2,2 C 3,9 C 90 % 997,8 hPa 0,0 l/m 10,1 km/h (2 Bft) S-SO 165 2 min 0,9 UV-I 262 W/m 0,7 C -1,1 C 14,5 km/h (3 Bft)
23.01.2021 12:28 2,3 C 3,9 C 90 % 997,7 hPa 0,0 l/m 8,1 km/h (2 Bft) S-SW 208 0 min 0,9 UV-I 229 W/m 0,8 C 0,7 C 16,1 km/h (3 Bft)
23.01.2021 12:30 2,3 C 4,4 C 90 % 997,8 hPa 0,0 l/m 10,1 km/h (2 Bft) S 182 2 min 1,0 UV-I 246 W/m 0,8 C -1,0 C 17,7 km/h (3 Bft)
23.01.2021 12:32 2,4 C 5,0 C 90 % 997,7 hPa 0,0 l/m 8,0 km/h (2 Bft) S-SO 156 2 min 1,0 UV-I 261 W/m 0,9 C 0,9 C 11,3 km/h (2 Bft)
23.01.2021 12:34 2,4 C 5,0 C 89 % 997,7 hPa 0,0 l/m 10,6 km/h (2 Bft) S 172 2 min 1,0 UV-I 264 W/m 0,8 C -1,3 C 16,1 km/h (3 Bft)
23.01.2021 12:36 2,3 C 4,4 C 90 % 997,7 hPa 0,0 l/m 11,4 km/h (2 Bft) S 173 2 min 1,0 UV-I 232 W/m 0,8 C -1,9 C 16,1 km/h (3 Bft)
23.01.2021 12:38 2,3 C 3,9 C 89 % 997,6 hPa 0,0 l/m 11,4 km/h (2 Bft) S-SO 163 0 min 0,9 UV-I 209 W/m 0,7 C -1,9 C 16,1 km/h (3 Bft)
23.01.2021 12:40 2,3 C 3,3 C 90 % 997,7 hPa 0,0 l/m 8,6 km/h (2 Bft) S-SO 150 0 min 0,7 UV-I 158 W/m 0,8 C 0,2 C 14,5 km/h (3 Bft)
23.01.2021 12:42 2,3 C 3,3 C 90 % 997,6 hPa 0,0 l/m 7,8 km/h (2 Bft) S-SW 202 0 min 0,7 UV-I 150 W/m 0,8 C 1,0 C 14,5 km/h (3 Bft)
23.01.2021 12:44 2,3 C 3,3 C 90 % 997,5 hPa 0,0 l/m 7,0 km/h (2 Bft) S-SO 150 0 min 0,6 UV-I 142 W/m 0,8 C 1,7 C 11,3 km/h (2 Bft)
23.01.2021 12:46 2,2 C 3,3 C 90 % 997,5 hPa 0,0 l/m 5,8 km/h (2 Bft) S-SO 166 0 min 0,6 UV-I 139 W/m 0,7 C 2,2 C 8,0 km/h (2 Bft)
23.01.2021 12:48 2,2 C 3,3 C 90 % 997,4 hPa 0,0 l/m 7,2 km/h (2 Bft) S 185 0 min 0,6 UV-I 128 W/m 0,7 C 1,4 C 11,3 km/h (2 Bft)
23.01.2021 12:50 2,2 C 2,8 C 90 % 997,5 hPa 0,0 l/m 10,0 km/h (2 Bft) SO 145 0 min 0,6 UV-I 122 W/m 0,7 C -1,0 C 19,3 km/h (3 Bft)
23.01.2021 12:52 2,1 C 2,8 C 90 % 997,4 hPa 0,0 l/m 8,1 km/h (2 Bft) S-SW 192 0 min 0,6 UV-I 116 W/m 0,6 C 0,5 C 11,3 km/h (2 Bft)
23.01.2021 12:54 2,1 C 2,8 C 90 % 997,4 hPa 0,0 l/m 9,8 km/h (2 Bft) SO 137 0 min 0,6 UV-I 116 W/m 0,6 C -1,0 C 16,1 km/h (3 Bft)
23.01.2021 12:56 2,1 C 2,8 C 90 % 997,4 hPa 0,0 l/m 9,6 km/h (2 Bft) SO 144 0 min 0,6 UV-I 110 W/m 0,6 C -0,8 C 16,1 km/h (3 Bft)
23.01.2021 12:58 2,0 C 2,8 C 90 % 997,4 hPa 0,0 l/m 13,5 km/h (3 Bft) SO 129 0 min 0,5 UV-I 95 W/m 0,5 C -3,7 C 22,5 km/h (4 Bft)
23.01.2021 13:00 1,9 C 2,2 C 89 % 997,3 hPa 0,0 l/m 14,9 km/h (3 Bft) SO 142 0 min 0,1 UV-I 91 W/m 0,3 C -4,6 C 24,1 km/h (4 Bft)
23.01.2021 13:02 1,9 C 2,2 C 90 % 997,4 hPa 0,0 l/m 9,3 km/h (2 Bft) S-SO 166 0 min 0,5 UV-I 106 W/m 0,4 C -0,8 C 14,5 km/h (3 Bft)
23.01.2021 13:04 1,9 C 2,2 C 90 % 997,3 hPa 0,0 l/m 10,1 km/h (2 Bft) SO 139 0 min 0,5 UV-I 116 W/m 0,4 C -1,4 C 16,1 km/h (3 Bft)
23.01.2021 13:06 1,9 C 2,8 C 90 % 997,4 hPa 0,0 l/m 8,7 km/h (2 Bft) S-SO 149 0 min 0,6 UV-I 127 W/m 0,4 C -0,3 C 14,5 km/h (3 Bft)
23.01.2021 13:08 1,9 C 2,8 C 90 % 997,4 hPa 0,0 l/m 12,9 km/h (3 Bft) S 188 0 min 0,6 UV-I 133 W/m 0,4 C -3,4 C 22,5 km/h (4 Bft)
23.01.2021 13:10 1,9 C 2,8 C 90 % 997,3 hPa 0,0 l/m 8,7 km/h (2 Bft) SO 130 0 min 0,6 UV-I 135 W/m 0,4 C -0,3 C 12,9 km/h (3 Bft)
23.01.2021 13:12 1,9 C 2,8 C 90 % 997,2 hPa 0,0 l/m 11,3 km/h (2 Bft) S-SO 158 0 min 0,6 UV-I 159 W/m 0,4 C -2,3 C 16,1 km/h (3 Bft)
23.01.2021 13:14 2,0 C 3,3 C 90 % 997,1 hPa 0,0 l/m 7,8 km/h (2 Bft) S 169 0 min 0,8 UV-I 186 W/m 0,5 C 0,6 C 14,5 km/h (3 Bft)
23.01.2021 13:16 1,9 C 2,8 C 89 % 997,1 hPa 0,0 l/m 15,4 km/h (3 Bft) S 170 0 min 0,7 UV-I 174 W/m 0,3 C -4,9 C 20,9 km/h (4 Bft)
23.01.2021 13:18 1,9 C 2,8 C 89 % 997,0 hPa 0,0 l/m 12,4 km/h (3 Bft) S-SO 161 0 min 0,7 UV-I 172 W/m 0,3 C -3,1 C 17,7 km/h (3 Bft)
23.01.2021 13:20 2,0 C 3,3 C 89 % 997,0 hPa 0,0 l/m 8,9 km/h (2 Bft) S-SO 165 2 min 0,8 UV-I 232 W/m 0,4 C -0,3 C 14,5 km/h (3 Bft)
23.01.2021 13:22 2,1 C 3,3 C 89 % 997,2 hPa 0,0 l/m 9,3 km/h (2 Bft) S-SO 159 0 min 0,8 UV-I 210 W/m 0,5 C -0,6 C 12,9 km/h (3 Bft)
23.01.2021 13:24 2,2 C 3,9 C 89 % 997,0 hPa 0,0 l/m 7,1 km/h (2 Bft) S-SW 192 0 min 0,8 UV-I 208 W/m 0,6 C 1,5 C 12,9 km/h (3 Bft)
23.01.2021 13:26 2,3 C 3,9 C 89 % 997,1 hPa 0,0 l/m 4,9 km/h (1 Bft) S-SO 159 2 min 0,8 UV-I 237 W/m 0,7 C 2,3 C 6,4 km/h (2 Bft)
23.01.2021 13:28 2,3 C 4,4 C 89 % 996,9 hPa 0,0 l/m 9,9 km/h (2 Bft) S-SO 163 0 min 0,8 UV-I 206 W/m 0,7 C -0,8 C 12,9 km/h (3 Bft)
23.01.2021 13:30 2,3 C 5,0 C 88 % 996,9 hPa 0,0 l/m 7,7 km/h (2 Bft) S-SO 158 2 min 0,9 UV-I 265 W/m 0,5 C 1,0 C 12,9 km/h (3 Bft)
23.01.2021 13:32 2,4 C 5,0 C 89 % 996,8 hPa 0,0 l/m 11,7 km/h (2 Bft) S-SO 167 2 min 0,9 UV-I 264 W/m 0,8 C -2,0 C 17,7 km/h (3 Bft)
23.01.2021 13:34 2,3 C 4,4 C 88 % 996,8 hPa 0,0 l/m 11,3 km/h (2 Bft) S-SW 207 0 min 0,9 UV-I 200 W/m 0,5 C -1,9 C 16,1 km/h (3 Bft)
23.01.2021 13:36 2,3 C 5,0 C 88 % 996,7 hPa 0,0 l/m 10,0 km/h (2 Bft) S-SW 195 2 min 1,0 UV-I 248 W/m 0,5 C -0,9 C 16,1 km/h (3 Bft)
23.01.2021 13:38 2,5 C 6,1 C 89 % 996,6 hPa 0,0 l/m 6,5 km/h (2 Bft) SO 128 2 min 1,0 UV-I 294 W/m 0,9 C 2,4 C 14,5 km/h (3 Bft)
23.01.2021 13:40 2,5 C 6,1 C 88 % 996,6 hPa 0,0 l/m 10,8 km/h (2 Bft) SO 144 2 min 1,0 UV-I 257 W/m 0,7 C -1,3 C 19,3 km/h (3 Bft)
23.01.2021 13:42 2,5 C 5,6 C 88 % 996,6 hPa 0,0 l/m 10,0 km/h (2 Bft) S 180 0 min 0,8 UV-I 159 W/m 0,7 C -0,7 C 17,7 km/h (3 Bft)
23.01.2021 13:44 2,4 C 4,4 C 87 % 996,6 hPa 0,0 l/m 12,4 km/h (3 Bft) SO 146 0 min 0,8 UV-I 132 W/m 0,5 C -2,5 C 22,5 km/h (4 Bft)
23.01.2021 13:46 2,3 C 3,3 C 87 % 996,6 hPa 0,0 l/m 12,6 km/h (3 Bft) S-SO 159 0 min 0,7 UV-I 97 W/m 0,4 C -2,7 C 16,1 km/h (3 Bft)
23.01.2021 13:48 2,2 C 2,8 C 88 % 996,6 hPa 0,0 l/m 9,1 km/h (2 Bft) S 169 0 min 0,5 UV-I 83 W/m 0,4 C -0,3 C 17,7 km/h (3 Bft)
23.01.2021 13:50 2,2 C 2,8 C 88 % 996,6 hPa 0,0 l/m 9,4 km/h (2 Bft) S 182 0 min 0,3 UV-I 67 W/m 0,4 C -0,5 C 14,5 km/h (3 Bft)
23.01.2021 13:52 2,1 C 2,2 C 88 % 996,6 hPa 0,0 l/m 8,8 km/h (2 Bft) S 182 0 min 0,0 UV-I 55 W/m 0,3 C -0,2 C 16,1 km/h (3 Bft)
23.01.2021 13:54 2,1 C 2,2 C 88 % 996,5 hPa 0,0 l/m 13,1 km/h (3 Bft) S 186 0 min 0,0 UV-I 63 W/m 0,3 C -3,3 C 20,9 km/h (4 Bft)
23.01.2021 13:56 2,1 C 2,2 C 88 % 996,5 hPa 0,0 l/m 9,1 km/h (2 Bft) S-SO 156 0 min 0,4 UV-I 79 W/m 0,3 C -0,4 C 16,1 km/h (3 Bft)
23.01.2021 13:58 2,1 C 2,2 C 88 % 996,4 hPa 0,0 l/m 5,5 km/h (1 Bft) S 171 0 min 0,5 UV-I 73 W/m 0,3 C 2,1 C 8,0 km/h (2 Bft)
23.01.2021 14:00 2,1 C 2,2 C 89 % 996,4 hPa 0,0 l/m 6,0 km/h (2 Bft) S-SO 153 0 min 0,0 UV-I 61 W/m 0,5 C 2,1 C 14,5 km/h (3 Bft)
23.01.2021 14:02 2,1 C 2,2 C 88 % 996,4 hPa 0,0 l/m 8,0 km/h (2 Bft) S 171 0 min 0,0 UV-I 62 W/m 0,3 C 0,6 C 14,5 km/h (3 Bft)
23.01.2021 14:04 2,1 C 2,2 C 88 % 996,3 hPa 0,0 l/m 7,7 km/h (2 Bft) S-SO 165 0 min 0,3 UV-I 89 W/m 0,3 C 0,8 C 9,7 km/h (2 Bft)
23.01.2021 14:06 2,1 C 2,2 C 89 % 996,4 hPa 0,0 l/m 7,6 km/h (2 Bft) S 182 0 min 0,2 UV-I 83 W/m 0,5 C 0,9 C 12,9 km/h (3 Bft)
23.01.2021 14:08 2,1 C 2,2 C 88 % 996,3 hPa 0,0 l/m 8,7 km/h (2 Bft) S 172 0 min 0,0 UV-I 70 W/m 0,3 C -0,1 C 12,9 km/h (3 Bft)
23.01.2021 14:10 2,1 C 2,2 C 88 % 996,2 hPa 0,0 l/m 7,3 km/h (2 Bft) S 175 0 min 0,0 UV-I 75 W/m 0,3 C 1,2 C 11,3 km/h (2 Bft)
23.01.2021 14:12 2,1 C 2,2 C 88 % 996,2 hPa 0,0 l/m 9,4 km/h (2 Bft) S-SW 200 0 min 0,0 UV-I 73 W/m 0,3 C -0,7 C 14,5 km/h (3 Bft)
23.01.2021 14:14 2,1 C 2,2 C 88 % 996,1 hPa 0,0 l/m 12,6 km/h (3 Bft) S 182 0 min 0,0 UV-I 78 W/m 0,3 C -3,0 C 14,5 km/h (3 Bft)
23.01.2021 14:16 2,1 C 2,2 C 88 % 996,1 hPa 0,0 l/m 9,1 km/h (2 Bft) S 180 0 min 0,0 UV-I 83 W/m 0,3 C -0,4 C 12,9 km/h (3 Bft)
23.01.2021 14:18 2,1 C 2,2 C 88 % 996,1 hPa 0,0 l/m 6,2 km/h (2 Bft) S 185 0 min 0,0 UV-I 82 W/m 0,3 C 2,1 C 12,9 km/h (3 Bft)
23.01.2021 14:20 2,2 C 2,8 C 88 % 996,0 hPa 0,0 l/m 7,0 km/h (2 Bft) S 190 0 min 0,0 UV-I 92 W/m 0,4 C 1,6 C 9,7 km/h (2 Bft)
23.01.2021 14:22 2,2 C 2,8 C 88 % 996,1 hPa 0,0 l/m 8,1 km/h (2 Bft) S 172 0 min 0,1 UV-I 111 W/m 0,4 C 0,6 C 14,5 km/h (3 Bft)
23.01.2021 14:24 2,2 C 2,8 C 88 % 996,1 hPa 0,0 l/m 7,1 km/h (2 Bft) S 183 0 min 0,5 UV-I 124 W/m 0,4 C 1,5 C 11,3 km/h (2 Bft)
23.01.2021 14:26 2,2 C 3,3 C 88 % 995,9 hPa 0,0 l/m 6,2 km/h (2 Bft) S 190 0 min 0,5 UV-I 144 W/m 0,4 C 2,2 C 8,0 km/h (2 Bft)
23.01.2021 14:28 2,2 C 3,3 C 87 % 996,0 hPa 0,0 l/m 7,1 km/h (2 Bft) S-SW 192 0 min 0,6 UV-I 173 W/m 0,3 C 1,5 C 11,3 km/h (2 Bft)
23.01.2021 14:30 2,3 C 4,4 C 88 % 995,8 hPa 0,0 l/m 4,7 km/h (1 Bft) S-SO 164 0 min 0,6 UV-I 204 W/m 0,5 C 2,3 C 8,0 km/h (2 Bft)
23.01.2021 14:32 2,4 C 5,0 C 88 % 995,9 hPa 0,0 l/m 6,9 km/h (2 Bft) S 171 0 min 0,6 UV-I 180 W/m 0,6 C 1,9 C 11,3 km/h (2 Bft)
23.01.2021 14:34 2,4 C 3,9 C 87 % 995,9 hPa 0,0 l/m 6,8 km/h (2 Bft) S-SO 159 0 min 0,6 UV-I 149 W/m 0,5 C 2,0 C 11,3 km/h (2 Bft)
23.01.2021 14:36 2,4 C 3,9 C 87 % 995,8 hPa 0,0 l/m 7,2 km/h (2 Bft) S 186 0 min 0,5 UV-I 133 W/m 0,5 C 1,6 C 9,7 km/h (2 Bft)
23.01.2021 14:38 2,4 C 3,3 C 87 % 996,0 hPa 0,0 l/m 6,2 km/h (2 Bft) S 178 0 min 0,3 UV-I 117 W/m 0,5 C 2,4 C 8,0 km/h (2 Bft)
23.01.2021 14:40 2,4 C 3,3 C 87 % 995,8 hPa 0,0 l/m 5,0 km/h (1 Bft) SO 144 0 min 0,0 UV-I 105 W/m 0,5 C 2,4 C 8,0 km/h (2 Bft)
23.01.2021 14:42 2,4 C 3,3 C 87 % 995,9 hPa 0,0 l/m 6,5 km/h (2 Bft) S-SO 158 0 min 0,0 UV-I 108 W/m 0,5 C 2,3 C 9,7 km/h (2 Bft)
23.01.2021 14:44 2,4 C 3,3 C 87 % 995,8 hPa 0,0 l/m 5,3 km/h (1 Bft) S-SO 157 0 min 0,0 UV-I 106 W/m 0,5 C 2,4 C 8,0 km/h (2 Bft)
23.01.2021 14:46 2,4 C 3,3 C 88 % 995,8 hPa 0,0 l/m 6,6 km/h (2 Bft) S-SO 150 0 min 0,0 UV-I 94 W/m 0,6 C 2,2 C 9,7 km/h (2 Bft)
23.01.2021 14:48 2,4 C 2,8 C 87 % 995,9 hPa 0,0 l/m 8,6 km/h (2 Bft) S 173 0 min 0,0 UV-I 85 W/m 0,5 C 0,3 C 11,3 km/h (2 Bft)
23.01.2021 14:50 2,4 C 2,8 C 87 % 995,8 hPa 0,0 l/m 11,3 km/h (2 Bft) SO 140 0 min 0,0 UV-I 80 W/m 0,5 C -1,8 C 17,7 km/h (3 Bft)
23.01.2021 14:52 2,3 C 2,8 C 87 % 995,9 hPa 0,0 l/m 11,3 km/h (2 Bft) SO 142 0 min 0,0 UV-I 73 W/m 0,4 C -1,9 C 16,1 km/h (3 Bft)
23.01.2021 14:54 2,3 C 2,8 C 87 % 995,9 hPa 0,0 l/m 7,4 km/h (2 Bft) S-SO 157 0 min 0,0 UV-I 67 W/m 0,4 C 1,3 C 11,3 km/h (2 Bft)
23.01.2021 14:56 2,3 C 2,8 C 87 % 995,8 hPa 0,0 l/m 5,9 km/h (2 Bft) S-SO 148 0 min 0,0 UV-I 69 W/m 0,4 C 2,3 C 9,7 km/h (2 Bft)
23.01.2021 14:58 2,3 C 2,8 C 87 % 995,9 hPa 0,0 l/m 7,4 km/h (2 Bft) SO 143 0 min 0,0 UV-I 76 W/m 0,4 C 1,3 C 11,3 km/h (2 Bft)
23.01.2021 15:00 2,2 C 2,8 C 87 % 995,8 hPa 0,0 l/m 4,2 km/h (1 Bft) SO 143 0 min 0,0 UV-I 82 W/m 0,3 C 2,2 C 6,4 km/h (2 Bft)
23.01.2021 15:02 2,3 C 2,8 C 88 % 995,8 hPa 0,0 l/m 5,2 km/h (1 Bft) SO 126 0 min 0,0 UV-I 91 W/m 0,5 C 2,3 C 12,9 km/h (3 Bft)
23.01.2021 15:04 2,3 C 2,8 C 87 % 995,8 hPa 0,0 l/m 7,2 km/h (2 Bft) S-SO 159 0 min 0,0 UV-I 100 W/m 0,4 C 1,5 C 11,3 km/h (2 Bft)
23.01.2021 15:06 2,3 C 2,8 C 87 % 995,8 hPa 0,0 l/m 7,4 km/h (2 Bft) SO 144 0 min 0,0 UV-I 101 W/m 0,4 C 1,3 C 9,7 km/h (2 Bft)
23.01.2021 15:08 2,3 C 2,8 C 88 % 995,7 hPa 0,0 l/m 4,1 km/h (1 Bft) S-SO 154 0 min 0,0 UV-I 100 W/m 0,5 C 2,3 C 8,0 km/h (2 Bft)
23.01.2021 15:10 2,3 C 2,8 C 88 % 995,7 hPa 0,0 l/m 4,1 km/h (1 Bft) S-SO 150 0 min 0,0 UV-I 94 W/m 0,5 C 2,3 C 6,4 km/h (2 Bft)
23.01.2021 15:12 2,3 C 2,8 C 88 % 995,6 hPa 0,0 l/m 5,5 km/h (1 Bft) S-SO 158 0 min 0,0 UV-I 90 W/m 0,5 C 2,3 C 9,7 km/h (2 Bft)
23.01.2021 15:14 2,2 C 2,8 C 88 % 995,6 hPa 0,0 l/m 5,0 km/h (1 Bft) S-SO 157 0 min 0,0 UV-I 88 W/m 0,4 C 2,2 C 9,7 km/h (2 Bft)
23.01.2021 15:16 2,2 C 2,8 C 89 % 995,6 hPa 0,0 l/m 5,2 km/h (1 Bft) S-SO 164 0 min 0,0 UV-I 89 W/m 0,6 C 2,2 C 8,0 km/h (2 Bft)
23.01.2021 15:18 2,2 C 2,8 C 89 % 995,6 hPa 0,0 l/m 6,3 km/h (2 Bft) S-SO 151 0 min 0,0 UV-I 85 W/m 0,6 C 2,2 C 9,7 km/h (2 Bft)
23.01.2021 15:20 2,2 C 2,8 C 89 % 995,6 hPa 0,0 l/m 5,1 km/h (1 Bft) SO 134 0 min 0,0 UV-I 82 W/m 0,6 C 2,2 C 9,7 km/h (2 Bft)
23.01.2021 15:22 2,2 C 2,8 C 88 % 995,5 hPa 0,0 l/m 6,3 km/h (2 Bft) SO 146 0 min 0,0 UV-I 81 W/m 0,4 C 2,2 C 8,0 km/h (2 Bft)
23.01.2021 15:24 2,2 C 2,8 C 88 % 995,5 hPa 0,0 l/m 2,7 km/h (1 Bft) SO 146 0 min 0,0 UV-I 78 W/m 0,4 C 2,2 C 4,8 km/h (1 Bft)
23.01.2021 15:26 2,2 C 2,2 C 88 % 995,4 hPa 0,0 l/m 6,3 km/h (2 Bft) SO 130 0 min 0,0 UV-I 74 W/m 0,4 C 2,2 C 11,3 km/h (2 Bft)
23.01.2021 15:28 2,2 C 2,2 C 88 % 995,4 hPa 0,0 l/m 6,5 km/h (2 Bft) O-SO 119 0 min 0,0 UV-I 70 W/m 0,4 C 2,1 C 12,9 km/h (3 Bft)
23.01.2021 15:30 2,2 C 2,2 C 89 % 995,5 hPa 0,0 l/m 4,6 km/h (1 Bft) O-SO 119 0 min 0,0 UV-I 69 W/m 0,6 C 2,2 C 6,4 km/h (2 Bft)
23.01.2021 15:32 2,2 C 2,2 C 89 % 995,4 hPa 0,0 l/m 4,7 km/h (1 Bft) O-SO 119 0 min 0,0 UV-I 69 W/m 0,6 C 2,2 C 6,4 km/h (2 Bft)
23.01.2021 15:34 2,2 C 2,2 C 89 % 995,3 hPa 0,0 l/m 2,6 km/h (1 Bft) O-SO 119 0 min 0,0 UV-I 70 W/m 0,6 C 2,2 C 4,8 km/h (1 Bft)
23.01.2021 15:36 2,2 C 2,2 C 89 % 995,4 hPa 0,0 l/m 4,2 km/h (1 Bft) O-SO 119 0 min 0,0 UV-I 69 W/m 0,6 C 2,2 C 6,4 km/h (2 Bft)
23.01.2021 15:38 2,2 C 2,2 C 89 % 995,3 hPa 0,0 l/m 6,0 km/h (2 Bft) S-SO 158 0 min 0,0 UV-I 64 W/m 0,6 C 2,2 C 9,7 km/h (2 Bft)
23.01.2021 15:40 2,2 C 2,2 C 89 % 995,2 hPa 0,0 l/m 5,0 km/h (1 Bft) S-SO 155 0 min 0,0 UV-I 58 W/m 0,6 C 2,2 C 8,0 km/h (2 Bft)
23.01.2021 15:42 2,2 C 2,2 C 89 % 995,4 hPa 0,0 l/m 8,6 km/h (2 Bft) O-SO 123 0 min 0,0 UV-I 54 W/m 0,6 C 0,1 C 11,3 km/h (2 Bft)
23.01.2021 15:44 2,2 C 2,2 C 89 % 995,3 hPa 0,0 l/m 7,9 km/h (2 Bft) O-SO 107 0 min 0,0 UV-I 51 W/m 0,6 C 0,8 C 12,9 km/h (3 Bft)
23.01.2021 15:46 2,2 C 2,2 C 89 % 995,3 hPa 0,0 l/m 6,5 km/h (2 Bft) SO 130 0 min 0,0 UV-I 51 W/m 0,6 C 2,1 C 11,3 km/h (2 Bft)
23.01.2021 15:48 2,2 C 2,2 C 89 % 995,3 hPa 0,0 l/m 4,2 km/h (1 Bft) S-SO 148 0 min 0,0 UV-I 51 W/m 0,6 C 2,2 C 9,7 km/h (2 Bft)
23.01.2021 15:50 2,2 C 2,2 C 89 % 995,3 hPa 0,0 l/m 5,7 km/h (1 Bft) O-SO 115 0 min 0,0 UV-I 49 W/m 0,6 C 2,2 C 9,7 km/h (2 Bft)
23.01.2021 15:52 2,1 C 2,2 C 89 % 995,3 hPa 0,0 l/m 4,8 km/h (1 Bft) SO 132 0 min 0,0 UV-I 45 W/m 0,5 C 2,1 C 8,0 km/h (2 Bft)
23.01.2021 15:54 2,1 C 2,2 C 89 % 995,2 hPa 0,0 l/m 4,2 km/h (1 Bft) SO 132 0 min 0,0 UV-I 47 W/m 0,5 C 2,1 C 6,4 km/h (2 Bft)
23.01.2021 15:56 2,1 C 2,2 C 89 % 995,1 hPa 0,0 l/m 6,4 km/h (2 Bft) O-SO 119 0 min 0,0 UV-I 49 W/m 0,5 C 2,1 C 11,3 km/h (2 Bft)
23.01.2021 15:58 2,1 C 2,2 C 89 % 995,2 hPa 0,0 l/m 5,6 km/h (1 Bft) O-SO 116 0 min 0,0 UV-I 51 W/m 0,5 C 2,1 C 9,7 km/h (2 Bft)
23.01.2021 16:00 2,1 C 2,2 C 89 % 995,1 hPa 0,0 l/m 4,4 km/h (1 Bft) O-SO 116 0 min 0,0 UV-I 50 W/m 0,5 C 2,1 C 6,4 km/h (2 Bft)
23.01.2021 16:02 2,1 C 2,2 C 89 % 995,1 hPa 0,0 l/m 2,8 km/h (1 Bft) O-SO 116 0 min 0,0 UV-I 46 W/m 0,5 C 2,1 C 3,2 km/h (1 Bft)
23.01.2021 16:04 2,1 C 2,2 C 89 % 995,2 hPa 0,0 l/m 3,2 km/h (1 Bft) O-SO 116 0 min 0,0 UV-I 40 W/m 0,5 C 2,1 C 6,4 km/h (2 Bft)
23.01.2021 16:06 2,0 C 2,2 C 89 % 995,1 hPa 0,0 l/m 4,5 km/h (1 Bft) O-SO 116 0 min 0,0 UV-I 33 W/m 0,4 C 2,0 C 6,4 km/h (2 Bft)
23.01.2021 16:08 2,1 C 1,7 C 89 % 995,1 hPa 0,0 l/m 3,6 km/h (1 Bft) O-SO 115 0 min 0,0 UV-I 33 W/m 0,5 C 2,1 C 6,4 km/h (2 Bft)
23.01.2021 16:10 2,0 C 1,7 C 89 % 995,1 hPa 0,0 l/m 2,8 km/h (1 Bft) O-SO 115 0 min 0,0 UV-I 31 W/m 0,4 C 2,0 C 4,8 km/h (1 Bft)
23.01.2021 16:12 1,9 C 1,7 C 89 % 995,2 hPa 0,0 l/m 5,9 km/h (2 Bft) O-SO 114 0 min 0,0 UV-I 27 W/m 0,3 C 1,9 C 9,7 km/h (2 Bft)
23.01.2021 16:14 2,0 C 1,7 C 89 % 995,2 hPa 0,0 l/m 4,1 km/h (1 Bft) O-SO 113 0 min 0,0 UV-I 26 W/m 0,4 C 2,0 C 9,7 km/h (2 Bft)
23.01.2021 16:16 1,9 C 1,7 C 90 % 995,1 hPa 0,0 l/m 4,4 km/h (1 Bft) O 100 0 min 0,0 UV-I 24 W/m 0,4 C 1,9 C 11,3 km/h (2 Bft)
23.01.2021 16:18 1,9 C 1,7 C 90 % 995,1 hPa 0,0 l/m 4,7 km/h (1 Bft) O-SO 117 0 min 0,0 UV-I 20 W/m 0,4 C 1,9 C 9,7 km/h (2 Bft)
23.01.2021 16:20 1,9 C 1,7 C 90 % 995,2 hPa 0,0 l/m 3,3 km/h (1 Bft) O-SO 117 0 min 0,0 UV-I 19 W/m 0,4 C 1,9 C 4,8 km/h (1 Bft)
23.01.2021 16:22 1,9 C 1,7 C 90 % 995,1 hPa 0,0 l/m 3,2 km/h (1 Bft) O-SO 117 0 min 0,0 UV-I 17 W/m 0,4 C 1,9 C 4,8 km/h (1 Bft)
23.01.2021 16:24 1,9 C 1,7 C 90 % 995,2 hPa 0,0 l/m 3,7 km/h (1 Bft) O-SO 111 0 min 0,0 UV-I 13 W/m 0,4 C 1,9 C 6,4 km/h (2 Bft)
23.01.2021 16:26 1,9 C 1,7 C 90 % 995,1 hPa 0,0 l/m 3,5 km/h (1 Bft) O-SO 111 0 min 0,0 UV-I 11 W/m 0,4 C 1,9 C 6,4 km/h (2 Bft)
23.01.2021 16:28 1,9 C 1,7 C 90 % 995,1 hPa 0,0 l/m 5,2 km/h (1 Bft) O-SO 118 0 min 0,0 UV-I 12 W/m 0,4 C 1,9 C 9,7 km/h (2 Bft)
23.01.2021 16:30 1,9 C 1,7 C 90 % 995,1 hPa 0,0 l/m 2,8 km/h (1 Bft) O-SO 118 0 min 0,0 UV-I 12 W/m 0,4 C 1,9 C 4,8 km/h (1 Bft)
23.01.2021 16:32 1,9 C 1,7 C 90 % 995,0 hPa 0,0 l/m 2,5 km/h (1 Bft) O-SO 118 0 min 0,0 UV-I 11 W/m 0,4 C 1,9 C 4,8 km/h (1 Bft)
23.01.2021 16:34 1,9 C 1,7 C 90 % 995,0 hPa 0,0 l/m 3,4 km/h (1 Bft) O-SO 118 0 min 0,0 UV-I 9 W/m 0,4 C 1,9 C 4,8 km/h (1 Bft)
23.01.2021 16:36 1,8 C 1,7 C 90 % 995,0 hPa 0,0 l/m 3,8 km/h (1 Bft) O-SO 118 0 min 0,0 UV-I 9 W/m 0,3 C 1,8 C 4,8 km/h (1 Bft)
23.01.2021 16:38 1,8 C 1,7 C 90 % 995,0 hPa 0,0 l/m 3,1 km/h (1 Bft) O-SO 118 0 min 0,0 UV-I 8 W/m 0,3 C 1,8 C 4,8 km/h (1 Bft)
23.01.2021 16:40 1,8 C 1,7 C 90 % 995,0 hPa 0,0 l/m 2,0 km/h (1 Bft) O-SO 118 0 min 0,0 UV-I 7 W/m 0,3 C 1,8 C 3,2 km/h (1 Bft)
23.01.2021 16:42 1,8 C 1,7 C 90 % 994,8 hPa 0,0 l/m 2,8 km/h (1 Bft) O-SO 118 0 min 0,0 UV-I 8 W/m 0,3 C 1,8 C 4,8 km/h (1 Bft)
23.01.2021 16:44 1,8 C 1,7 C 91 % 994,8 hPa 0,0 l/m 4,1 km/h (1 Bft) O-SO 117 0 min 0,0 UV-I 9 W/m 0,5 C 1,8 C 6,4 km/h (2 Bft)
23.01.2021 16:46 1,8 C 1,7 C 91 % 994,7 hPa 0,0 l/m 4,2 km/h (1 Bft) O-NO 71 0 min 0,0 UV-I 7 W/m 0,5 C 1,8 C 6,4 km/h (2 Bft)
23.01.2021 16:48 1,8 C 1,7 C 91 % 994,7 hPa 0,0 l/m 3,6 km/h (1 Bft) O 95 0 min 0,0 UV-I 6 W/m 0,5 C 1,8 C 6,4 km/h (2 Bft)
23.01.2021 16:50 1,8 C 1,7 C 91 % 994,7 hPa 0,0 l/m 3,7 km/h (1 Bft) O 98 0 min 0,0 UV-I 3 W/m 0,5 C 1,8 C 4,8 km/h (1 Bft)
23.01.2021 16:52 1,8 C 1,7 C 91 % 994,7 hPa 0,0 l/m 3,3 km/h (1 Bft) O 98 0 min 0,0 UV-I 0 W/m 0,5 C 1,8 C 4,8 km/h (1 Bft)
23.01.2021 16:54 1,8 C 1,7 C 91 % 994,6 hPa 0,0 l/m 4,2 km/h (1 Bft) O 97 0 min 0,0 UV-I 0 W/m 0,5 C 1,8 C 6,4 km/h (2 Bft)
23.01.2021 16:56 1,7 C 1,7 C 91 % 994,6 hPa 0,0 l/m 5,2 km/h (1 Bft) O 96 0 min 0,0 UV-I 0 W/m 0,4 C 1,7 C 6,4 km/h (2 Bft)
23.01.2021 16:58 1,8 C 1,7 C 91 % 994,5 hPa 0,0 l/m 3,6 km/h (1 Bft) O 93 0 min 0,0 UV-I 0 W/m 0,5 C 1,8 C 9,7 km/h (2 Bft)
23.01.2021 17:00 1,8 C 1,7 C 91 % 994,5 hPa 0,0 l/m 5,5 km/h (1 Bft) O 90 0 min 0,0 UV-I 0 W/m 0,5 C 1,8 C 6,4 km/h (2 Bft)
23.01.2021 17:02 1,8 C 1,7 C 91 % 994,6 hPa 0,0 l/m 4,8 km/h (1 Bft) O 89 0 min 0,0 UV-I 0 W/m 0,5 C 1,8 C 6,4 km/h (2 Bft)
23.01.2021 17:04 1,7 C 1,7 C 91 % 994,5 hPa 0,0 l/m 4,5 km/h (1 Bft) O-NO 73 0 min 0,0 UV-I 0 W/m 0,4 C 1,7 C 8,0 km/h (2 Bft)
23.01.2021 17:06 1,7 C 1,7 C 91 % 994,6 hPa 0,0 l/m 6,4 km/h (2 Bft) O-NO 73 0 min 0,0 UV-I 0 W/m 0,4 C 1,7 C 8,0 km/h (2 Bft)
23.01.2021 17:08 1,7 C 1,7 C 91 % 994,6 hPa 0,0 l/m 4,8 km/h (1 Bft) O-NO 69 0 min 0,0 UV-I 0 W/m 0,4 C 1,7 C 8,0 km/h (2 Bft)
23.01.2021 17:10 1,7 C 1,7 C 91 % 994,6 hPa 0,0 l/m 5,2 km/h (1 Bft) O-NO 71 0 min 0,0 UV-I 0 W/m 0,4 C 1,7 C 8,0 km/h (2 Bft)
23.01.2021 17:12 1,7 C 1,7 C 91 % 994,6 hPa 0,0 l/m 4,8 km/h (1 Bft) O-NO 71 0 min 0,0 UV-I 0 W/m 0,4 C 1,7 C 6,4 km/h (2 Bft)
23.01.2021 17:14 1,7 C 1,7 C 91 % 994,5 hPa 0,0 l/m 4,7 km/h (1 Bft) O-NO 70 0 min 0,0 UV-I 0 W/m 0,4 C 1,7 C 8,0 km/h (2 Bft)
23.01.2021 17:16 1,7 C 1,7 C 91 % 994,5 hPa 0,0 l/m 6,6 km/h (2 Bft) O-NO 65 0 min 0,0 UV-I 0 W/m 0,4 C 1,5 C 9,7 km/h (2 Bft)
23.01.2021 17:18 1,7 C 1,7 C 91 % 994,5 hPa 0,0 l/m 6,3 km/h (2 Bft) O-NO 67 0 min 0,0 UV-I 0 W/m 0,4 C 1,7 C 8,0 km/h (2 Bft)
23.01.2021 17:20 1,7 C 1,7 C 91 % 994,5 hPa 0,0 l/m 5,7 km/h (1 Bft) O-NO 66 0 min 0,0 UV-I 0 W/m 0,4 C 1,7 C 8,0 km/h (2 Bft)
23.01.2021 17:22 1,7 C 1,7 C 91 % 994,6 hPa 0,0 l/m 6,3 km/h (2 Bft) O-NO 57 0 min 0,0 UV-I 0 W/m 0,4 C 1,7 C 8,0 km/h (2 Bft)
23.01.2021 17:24 1,7 C 1,7 C 91 % 994,6 hPa 0,0 l/m 4,6 km/h (1 Bft) O-NO 71 0 min 0,0 UV-I 0 W/m 0,4 C 1,7 C 8,0 km/h (2 Bft)
23.01.2021 17:26 1,7 C 1,7 C 91 % 994,6 hPa 0,0 l/m 7,7 km/h (2 Bft) O 86 0 min 0,0 UV-I 0 W/m 0,4 C 0,4 C 11,3 km/h (2 Bft)
23.01.2021 17:28 1,7 C 1,7 C 91 % 994,6 hPa 0,0 l/m 7,0 km/h (2 Bft) O-NO 65 0 min 0,0 UV-I 0 W/m 0,4 C 1,1 C 11,3 km/h (2 Bft)
23.01.2021 17:30 1,7 C 1,1 C 92 % 994,6 hPa 0,0 l/m 7,6 km/h (2 Bft) O-NO 67 0 min 0,0 UV-I 0 W/m 0,5 C 0,5 C 14,5 km/h (3 Bft)
23.01.2021 17:32 1,7 C 1,1 C 92 % 994,6 hPa 0,0 l/m 6,7 km/h (2 Bft) NO 56 0 min 0,0 UV-I 0 W/m 0,5 C 1,4 C 12,9 km/h (3 Bft)
23.01.2021 17:34 1,7 C 1,1 C 92 % 994,6 hPa 0,0 l/m 4,4 km/h (1 Bft) NO 52 0 min 0,0 UV-I 0 W/m 0,5 C 1,7 C 6,4 km/h (2 Bft)
23.01.2021 17:36 1,7 C 1,1 C 92 % 994,7 hPa 0,0 l/m 8,8 km/h (2 Bft) O 82 0 min 0,0 UV-I 0 W/m 0,5 C -0,6 C 14,5 km/h (3 Bft)
23.01.2021 17:38 1,7 C 1,1 C 92 % 994,8 hPa 0,0 l/m 8,3 km/h (2 Bft) O-NO 78 0 min 0,0 UV-I 0 W/m 0,5 C -0,1 C 14,5 km/h (3 Bft)
23.01.2021 17:40 1,7 C 1,1 C 92 % 994,8 hPa 0,0 l/m 5,0 km/h (1 Bft) O-NO 77 0 min 0,0 UV-I 0 W/m 0,5 C 1,7 C 8,0 km/h (2 Bft)
23.01.2021 17:42 1,6 C 1,1 C 92 % 994,8 hPa 0,0 l/m 7,3 km/h (2 Bft) O-NO 69 0 min 0,0 UV-I 0 W/m 0,4 C 0,7 C 12,9 km/h (3 Bft)
23.01.2021 17:44 1,6 C 1,1 C 92 % 994,7 hPa 0,0 l/m 6,2 km/h (2 Bft) O-NO 63 0 min 0,0 UV-I 0 W/m 0,4 C 1,6 C 9,7 km/h (2 Bft)
23.01.2021 17:46 1,6 C 1,1 C 92 % 994,8 hPa 0,0 l/m 8,0 km/h (2 Bft) O 80 0 min 0,0 UV-I 0 W/m 0,4 C 0,0 C 14,5 km/h (3 Bft)
23.01.2021 17:48 1,6 C 1,1 C 92 % 994,6 hPa 0,0 l/m 5,6 km/h (1 Bft) O-NO 61 0 min 0,0 UV-I 0 W/m 0,4 C 1,6 C 11,3 km/h (2 Bft)
23.01.2021 17:50 1,6 C 1,1 C 92 % 994,6 hPa 0,0 l/m 7,3 km/h (2 Bft) O-NO 65 0 min 0,0 UV-I 0 W/m 0,4 C 0,7 C 9,7 km/h (2 Bft)
23.01.2021 17:52 1,6 C 1,1 C 92 % 994,6 hPa 0,0 l/m 6,9 km/h (2 Bft) O-NO 59 0 min 0,0 UV-I 0 W/m 0,4 C 1,1 C 11,3 km/h (2 Bft)
23.01.2021 17:54 1,6 C 1,1 C 92 % 994,6 hPa 0,0 l/m 4,5 km/h (1 Bft) O-NO 59 0 min 0,0 UV-I 0 W/m 0,4 C 1,6 C 6,4 km/h (2 Bft)
23.01.2021 17:56 1,6 C 1,1 C 92 % 994,5 hPa 0,0 l/m 7,8 km/h (2 Bft) O 84 0 min 0,0 UV-I 0 W/m 0,4 C 0,2 C 12,9 km/h (3 Bft)
23.01.2021 17:58 1,6 C 1,1 C 92 % 994,5 hPa 0,0 l/m 7,6 km/h (2 Bft) O-NO 59 0 min 0,0 UV-I 0 W/m 0,4 C 0,4 C 11,3 km/h (2 Bft)
23.01.2021 18:00 1,6 C 1,1 C 92 % 994,5 hPa 0,0 l/m 5,4 km/h (1 Bft) O-NO 64 0 min 0,0 UV-I 0 W/m 0,4 C 1,6 C 9,7 km/h (2 Bft)
23.01.2021 18:02 1,6 C 1,1 C 92 % 994,5 hPa 0,0 l/m 6,9 km/h (2 Bft) O-NO 67 0 min 0,0 UV-I 0 W/m 0,4 C 1,1 C 9,7 km/h (2 Bft)
23.01.2021 18:04 1,6 C 1,1 C 92 % 994,5 hPa 0,0 l/m 6,4 km/h (2 Bft) NO 51 0 min 0,0 UV-I 0 W/m 0,4 C 1,6 C 8,0 km/h (2 Bft)
23.01.2021 18:06 1,6 C 1,1 C 92 % 994,5 hPa 0,0 l/m 7,4 km/h (2 Bft) O-NO 68 0 min 0,0 UV-I 0 W/m 0,4 C 0,6 C 12,9 km/h (3 Bft)
23.01.2021 18:08 1,6 C 1,1 C 92 % 994,5 hPa 0,0 l/m 6,8 km/h (2 Bft) NO 44 0 min 0,0 UV-I 0 W/m 0,4 C 1,2 C 9,7 km/h (2 Bft)
23.01.2021 18:10 1,6 C 1,1 C 92 % 994,5 hPa 0,0 l/m 7,2 km/h (2 Bft) NO 49 0 min 0,0 UV-I 0 W/m 0,4 C 0,8 C 9,7 km/h (2 Bft)
23.01.2021 18:12 1,5 C 1,1 C 92 % 994,4 hPa 0,0 l/m 7,4 km/h (2 Bft) NO 55 0 min 0,0 UV-I 0 W/m 0,3 C 0,5 C 11,3 km/h (2 Bft)
23.01.2021 18:14 1,5 C 1,1 C 92 % 994,4 hPa 0,0 l/m 5,7 km/h (1 Bft) O-NO 59 0 min 0,0 UV-I 0 W/m 0,3 C 1,5 C 8,0 km/h (2 Bft)
23.01.2021 18:16 1,4 C 1,1 C 92 % 994,3 hPa 0,0 l/m 5,9 km/h (2 Bft) NO 55 0 min 0,0 UV-I 0 W/m 0,2 C 1,4 C 8,0 km/h (2 Bft)
23.01.2021 18:18 1,4 C 1,1 C 92 % 994,3 hPa 0,0 l/m 6,4 km/h (2 Bft) O-NO 60 0 min 0,0 UV-I 0 W/m 0,2 C 1,4 C 9,7 km/h (2 Bft)
23.01.2021 18:20 1,4 C 1,1 C 92 % 994,3 hPa 0,0 l/m 8,9 km/h (2 Bft) O-NO 63 0 min 0,0 UV-I 0 W/m 0,2 C -1,0 C 14,5 km/h (3 Bft)
23.01.2021 18:22 1,4 C 1,1 C 92 % 994,3 hPa 0,0 l/m 7,5 km/h (2 Bft) O-NO 57 0 min 0,0 UV-I 0 W/m 0,2 C 0,3 C 12,9 km/h (3 Bft)
23.01.2021 18:24 1,4 C 1,1 C 92 % 994,3 hPa 0,0 l/m 5,8 km/h (2 Bft) NO 55 0 min 0,0 UV-I 0 W/m 0,2 C 1,4 C 8,0 km/h (2 Bft)
23.01.2021 18:26 1,3 C 1,1 C 92 % 994,2 hPa 0,0 l/m 9,2 km/h (2 Bft) O-NO 65 0 min 0,0 UV-I 0 W/m 0,1 C -1,4 C 14,5 km/h (3 Bft)
23.01.2021 18:28 1,3 C 1,1 C 92 % 994,3 hPa 0,0 l/m 9,0 km/h (2 Bft) NO 55 0 min 0,0 UV-I 0 W/m 0,1 C -1,2 C 16,1 km/h (3 Bft)
23.01.2021 18:30 1,3 C 1,1 C 92 % 994,2 hPa 0,0 l/m 6,4 km/h (2 Bft) NO 43 0 min 0,0 UV-I 0 W/m 0,1 C 1,3 C 9,7 km/h (2 Bft)
23.01.2021 18:32 1,3 C 1,1 C 93 % 994,3 hPa 0,0 l/m 8,8 km/h (2 Bft) NO 40 0 min 0,0 UV-I 0 W/m 0,3 C -1,0 C 12,9 km/h (3 Bft)
23.01.2021 18:34 1,3 C 1,1 C 93 % 994,2 hPa 0,0 l/m 7,5 km/h (2 Bft) NO 49 0 min 0,0 UV-I 0 W/m 0,3 C 0,2 C 14,5 km/h (3 Bft)
23.01.2021 18:36 1,3 C 0,6 C 93 % 994,3 hPa 0,0 l/m 9,0 km/h (2 Bft) NO 38 0 min 0,0 UV-I 0 W/m 0,3 C -1,2 C 14,5 km/h (3 Bft)
23.01.2021 18:38 1,2 C 0,6 C 93 % 994,3 hPa 0,0 l/m 7,3 km/h (2 Bft) NO 48 0 min 0,0 UV-I 0 W/m 0,2 C 0,3 C 12,9 km/h (3 Bft)
23.01.2021 18:40 1,2 C 0,6 C 92 % 994,2 hPa 0,0 l/m 7,6 km/h (2 Bft) NO 42 0 min 0,0 UV-I 0 W/m 0,0 C -0,0 C 9,7 km/h (2 Bft)
23.01.2021 18:42 1,2 C 0,6 C 93 % 994,2 hPa 0,0 l/m 7,4 km/h (2 Bft) O-NO 57 0 min 0,0 UV-I 0 W/m 0,2 C 0,2 C 11,3 km/h (2 Bft)
23.01.2021 18:44 1,2 C 0,6 C 93 % 994,2 hPa 0,0 l/m 6,3 km/h (2 Bft) O-NO 58 0 min 0,0 UV-I 0 W/m 0,2 C 1,2 C 9,7 km/h (2 Bft)
23.01.2021 18:46 1,2 C 0,6 C 93 % 994,2 hPa 0,0 l/m 7,2 km/h (2 Bft) NO 42 0 min 0,0 UV-I 0 W/m 0,2 C 0,4 C 9,7 km/h (2 Bft)
23.01.2021 18:48 1,2 C 0,6 C 93 % 994,1 hPa 0,0 l/m 6,4 km/h (2 Bft) O-NO 70 0 min 0,0 UV-I 0 W/m 0,2 C 1,2 C 8,0 km/h (2 Bft)
23.01.2021 18:50 1,2 C 0,6 C 93 % 994,1 hPa 0,0 l/m 6,6 km/h (2 Bft) O-NO 57 0 min 0,0 UV-I 0 W/m 0,2 C 1,0 C 9,7 km/h (2 Bft)
23.01.2021 18:52 1,1 C 0,6 C 93 % 994,2 hPa 0,2 l/m 6,4 km/h (2 Bft) O-NO 68 0 min 0,0 UV-I 0 W/m 0,1 C 1,1 C 8,0 km/h (2 Bft)
23.01.2021 18:54 1,1 C 0,6 C 93 % 994,1 hPa 0,0 l/m 6,8 km/h (2 Bft) O-NO 63 0 min 0,0 UV-I 0 W/m 0,1 C 0,7 C 9,7 km/h (2 Bft)
23.01.2021 18:56 1,0 C 0,6 C 93 % 994,1 hPa 0,0 l/m 5,9 km/h (2 Bft) O-NO 65 0 min 0,0 UV-I 0 W/m -0,0 C 1,0 C 9,7 km/h (2 Bft)
23.01.2021 18:58 1,1 C 0,6 C 93 % 994,1 hPa 0,0 l/m 5,6 km/h (1 Bft) NO 55 0 min 0,0 UV-I 0 W/m 0,1 C 1,1 C 8,0 km/h (2 Bft)
23.01.2021 19:00 1,0 C 0,6 C 93 % 994,1 hPa 0,0 l/m 5,0 km/h (1 Bft) NO 56 0 min 0,0 UV-I 0 W/m -0,0 C 1,0 C 8,0 km/h (2 Bft)
23.01.2021 19:02 1,0 C 0,6 C 93 % 994,1 hPa 0,0 l/m 6,5 km/h (2 Bft) O-NO 69 0 min 0,0 UV-I 0 W/m -0,0 C 0,9 C 9,7 km/h (2 Bft)
23.01.2021 19:04 0,9 C 0,6 C 93 % 994,0 hPa 0,0 l/m 5,4 km/h (1 Bft) NO 41 0 min 0,0 UV-I 0 W/m -0,1 C 0,9 C 8,0 km/h (2 Bft)
23.01.2021 19:06 0,9 C 0,6 C 93 % 994,1 hPa 0,2 l/m 5,1 km/h (1 Bft) NO 50 0 min 0,0 UV-I 0 W/m -0,1 C 0,9 C 8,0 km/h (2 Bft)
23.01.2021 19:08 0,9 C 0,6 C 93 % 994,0 hPa 0,0 l/m 5,6 km/h (1 Bft) NO 44 0 min 0,0 UV-I 0 W/m -0,1 C 0,9 C 8,0 km/h (2 Bft)
23.01.2021 19:10 0,9 C 0,0 C 93 % 994,0 hPa 0,0 l/m 6,7 km/h (2 Bft) NO 49 0 min 0,0 UV-I 0 W/m -0,1 C 0,6 C 8,0 km/h (2 Bft)
23.01.2021 19:12 0,8 C 0,0 C 93 % 994,0 hPa 0,0 l/m 6,3 km/h (2 Bft) NO 47 0 min 0,0 UV-I 0 W/m -0,2 C 0,8 C 9,7 km/h (2 Bft)
23.01.2021 19:14 0,8 C 0,0 C 93 % 994,1 hPa 0,0 l/m 5,7 km/h (1 Bft) NO 54 0 min 0,0 UV-I 0 W/m -0,2 C 0,8 C 8,0 km/h (2 Bft)
23.01.2021 19:16 0,8 C 0,0 C 93 % 994,0 hPa 0,2 l/m 4,7 km/h (1 Bft) O-NO 59 0 min 0,0 UV-I 0 W/m -0,2 C 0,8 C 8,0 km/h (2 Bft)
23.01.2021 19:18 0,8 C 0,0 C 93 % 994,0 hPa 0,0 l/m 4,6 km/h (1 Bft) NO 39 0 min 0,0 UV-I 0 W/m -0,2 C 0,8 C 6,4 km/h (2 Bft)
23.01.2021 19:20 0,7 C 0,0 C 93 % 993,9 hPa 0,0 l/m 5,4 km/h (1 Bft) NO 40 0 min 0,0 UV-I 0 W/m -0,3 C 0,7 C 8,0 km/h (2 Bft)
23.01.2021 19:22 0,7 C 0,0 C 93 % 994,0 hPa 0,0 l/m 5,7 km/h (1 Bft) NO 52 0 min 0,0 UV-I 0 W/m -0,3 C 0,7 C 8,0 km/h (2 Bft)
23.01.2021 19:24 0,7 C 0,0 C 93 % 993,9 hPa 0,2 l/m 5,0 km/h (1 Bft) NO 47 0 min 0,0 UV-I 0 W/m -0,3 C 0,7 C 8,0 km/h (2 Bft)
23.01.2021 19:26 0,7 C 0,0 C 93 % 993,9 hPa 0,0 l/m 6,0 km/h (2 Bft) N-NO 26 0 min 0,0 UV-I 0 W/m -0,3 C 0,7 C 8,0 km/h (2 Bft)
23.01.2021 19:28 0,7 C 0,0 C 93 % 993,9 hPa 0,0 l/m 7,2 km/h (2 Bft) NO 53 0 min 0,0 UV-I 0 W/m -0,3 C -0,1 C 11,3 km/h (2 Bft)
23.01.2021 19:30 0,7 C 0,0 C 93 % 993,9 hPa 0,0 l/m 6,0 km/h (2 Bft) NO 44 0 min 0,0 UV-I 0 W/m -0,3 C 0,7 C 8,0 km/h (2 Bft)
23.01.2021 19:32 0,7 C 0,0 C 94 % 993,8 hPa 0,0 l/m 5,6 km/h (1 Bft) NO 34 0 min 0,0 UV-I 0 W/m -0,2 C 0,7 C 8,0 km/h (2 Bft)
23.01.2021 19:34 0,7 C 0,0 C 94 % 993,8 hPa 0,2 l/m 5,3 km/h (1 Bft) N-NO 33 0 min 0,0 UV-I 0 W/m -0,2 C 0,7 C 6,4 km/h (2 Bft)
23.01.2021 19:36 0,6 C 0,0 C 94 % 993,8 hPa 0,0 l/m 5,3 km/h (1 Bft) N-NO 23 0 min 0,0 UV-I 0 W/m -0,3 C 0,6 C 8,0 km/h (2 Bft)
23.01.2021 19:38 0,6 C 0,0 C 94 % 993,8 hPa 0,0 l/m 6,0 km/h (2 Bft) NO 52 0 min 0,0 UV-I 0 W/m -0,3 C 0,6 C 8,0 km/h (2 Bft)
23.01.2021 19:40 0,6 C 0,0 C 94 % 993,8 hPa 0,0 l/m 5,7 km/h (1 Bft) NO 44 0 min 0,0 UV-I 0 W/m -0,3 C 0,6 C 8,0 km/h (2 Bft)
23.01.2021 19:42 0,6 C 0,0 C 93 % 993,8 hPa 0,0 l/m 6,1 km/h (2 Bft) NO 45 0 min 0,0 UV-I 0 W/m -0,4 C 0,6 C 8,0 km/h (2 Bft)
23.01.2021 19:44 0,6 C 0,0 C 93 % 993,7 hPa 0,0 l/m 6,0 km/h (2 Bft) NO 35 0 min 0,0 UV-I 0 W/m -0,4 C 0,6 C 9,7 km/h (2 Bft)
23.01.2021 19:46 0,6 C 0,0 C 94 % 993,7 hPa 0,2 l/m 7,2 km/h (2 Bft) NO 35 0 min 0,0 UV-I 0 W/m -0,3 C -0,2 C 11,3 km/h (2 Bft)
23.01.2021 19:48 0,6 C 0,0 C 94 % 993,7 hPa 0,0 l/m 6,8 km/h (2 Bft) NO 38 0 min 0,0 UV-I 0 W/m -0,3 C 0,2 C 8,0 km/h (2 Bft)
23.01.2021 19:50 0,6 C 0,0 C 94 % 993,6 hPa 0,0 l/m 6,2 km/h (2 Bft) NO 45 0 min 0,0 UV-I 0 W/m -0,3 C 0,6 C 8,0 km/h (2 Bft)
23.01.2021 19:52 0,6 C 0,0 C 94 % 993,6 hPa 0,0 l/m 6,9 km/h (2 Bft) NO 34 0 min 0,0 UV-I 0 W/m -0,3 C 0,1 C 9,7 km/h (2 Bft)
23.01.2021 19:54 0,5 C 0,0 C 94 % 993,5 hPa 0,0 l/m 6,9 km/h (2 Bft) NO 44 0 min 0,0 UV-I 0 W/m -0,4 C -0,0 C 9,7 km/h (2 Bft)
23.01.2021 19:56 0,6 C 0,0 C 94 % 993,5 hPa 0,0 l/m 6,3 km/h (2 Bft) NO 49 0 min 0,0 UV-I 0 W/m -0,3 C 0,6 C 9,7 km/h (2 Bft)
23.01.2021 19:58 0,5 C 0,0 C 94 % 993,5 hPa 0,2 l/m 7,1 km/h (2 Bft) NO 42 0 min 0,0 UV-I 0 W/m -0,4 C -0,2 C 9,7 km/h (2 Bft)
23.01.2021 20:00 0,5 C 0,0 C 94 % 993,5 hPa 0,0 l/m 6,3 km/h (2 Bft) NO 56 0 min 0,0 UV-I 0 W/m -0,4 C 0,5 C 9,7 km/h (2 Bft)
23.01.2021 20:02 0,4 C 0,0 C 94 % 993,5 hPa 0,0 l/m 5,8 km/h (2 Bft) NO 38 0 min 0,0 UV-I 0 W/m -0,5 C 0,4 C 8,0 km/h (2 Bft)
23.01.2021 20:04 0,4 C 0,0 C 94 % 993,4 hPa 0,0 l/m 6,8 km/h (2 Bft) NO 38 0 min 0,0 UV-I 0 W/m -0,5 C 0,0 C 9,7 km/h (2 Bft)
23.01.2021 20:06 0,4 C 0,0 C 94 % 993,4 hPa 0,2 l/m 6,2 km/h (2 Bft) NO 41 0 min 0,0 UV-I 0 W/m -0,5 C 0,4 C 8,0 km/h (2 Bft)
23.01.2021 20:08 0,4 C 0,0 C 94 % 993,4 hPa 0,0 l/m 6,0 km/h (2 Bft) NO 50 0 min 0,0 UV-I 0 W/m -0,5 C 0,4 C 8,0 km/h (2 Bft)
23.01.2021 20:10 0,4 C 0,0 C 94 % 993,4 hPa 0,0 l/m 7,0 km/h (2 Bft) NO 35 0 min 0,0 UV-I 0 W/m -0,5 C -0,2 C 9,7 km/h (2 Bft)
23.01.2021 20:12 0,4 C 0,0 C 94 % 993,2 hPa 0,0 l/m 7,1 km/h (2 Bft) N-NO 30 0 min 0,0 UV-I 0 W/m -0,5 C -0,3 C 9,7 km/h (2 Bft)
23.01.2021 20:14 0,4 C 0,0 C 94 % 993,3 hPa 0,0 l/m 6,7 km/h (2 Bft) NO 38 0 min 0,0 UV-I 0 W/m -0,5 C 0,1 C 9,7 km/h (2 Bft)
23.01.2021 20:16 0,4 C 0,0 C 94 % 993,3 hPa 0,0 l/m 7,2 km/h (2 Bft) N-NO 29 0 min 0,0 UV-I 0 W/m -0,5 C -0,4 C 9,7 km/h (2 Bft)
23.01.2021 20:18 0,4 C 0,0 C 94 % 993,3 hPa 0,2 l/m 6,4 km/h (2 Bft) NO 47 0 min 0,0 UV-I 0 W/m -0,5 C 0,4 C 9,7 km/h (2 Bft)
23.01.2021 20:20 0,4 C 0,0 C 94 % 993,3 hPa 0,0 l/m 6,7 km/h (2 Bft) NO 46 0 min 0,0 UV-I 0 W/m -0,5 C 0,1 C 8,0 km/h (2 Bft)
23.01.2021 20:22 0,4 C 0,0 C 94 % 993,2 hPa 0,0 l/m 6,5 km/h (2 Bft) NO 36 0 min 0,0 UV-I 0 W/m -0,5 C 0,3 C 9,7 km/h (2 Bft)
23.01.2021 20:24 0,4 C 0,0 C 94 % 993,3 hPa 0,0 l/m 5,5 km/h (1 Bft) NO 55 0 min 0,0 UV-I 0 W/m -0,5 C 0,4 C 8,0 km/h (2 Bft)
23.01.2021 20:26 0,4 C 0,0 C 94 % 993,3 hPa 0,0 l/m 5,9 km/h (2 Bft) NO 54 0 min 0,0 UV-I 0 W/m -0,5 C 0,4 C 8,0 km/h (2 Bft)
23.01.2021 20:28 0,4 C 0,0 C 94 % 993,2 hPa 0,0 l/m 6,7 km/h (2 Bft) NO 36 0 min 0,0 UV-I 0 W/m -0,5 C 0,1 C 9,7 km/h (2 Bft)
23.01.2021 20:30 0,4 C 0,0 C 94 % 993,2 hPa 0,0 l/m 7,2 km/h (2 Bft) N-NO 32 0 min 0,0 UV-I 0 W/m -0,5 C -0,4 C 9,7 km/h (2 Bft)
23.01.2021 20:32 0,4 C 0,0 C 94 % 993,2 hPa 0,2 l/m 6,7 km/h (2 Bft) NO 44 0 min 0,0 UV-I 0 W/m -0,5 C 0,1 C 9,7 km/h (2 Bft)
23.01.2021 20:34 0,4 C 0,0 C 94 % 993,1 hPa 0,0 l/m 6,7 km/h (2 Bft) NO 44 0 min 0,0 UV-I 0 W/m -0,5 C 0,1 C 9,7 km/h (2 Bft)
23.01.2021 20:36 0,4 C 0,0 C 94 % 993,2 hPa 0,0 l/m 6,3 km/h (2 Bft) NO 49 0 min 0,0 UV-I 0 W/m -0,5 C 0,4 C 8,0 km/h (2 Bft)
23.01.2021 20:38 0,4 C 0,0 C 94 % 993,2 hPa 0,0 l/m 5,3 km/h (1 Bft) NO 46 0 min 0,0 UV-I 0 W/m -0,5 C 0,4 C 8,0 km/h (2 Bft)
23.01.2021 20:40 0,4 C 0,0 C 94 % 993,1 hPa 0,0 l/m 3,9 km/h (1 Bft) NO 43 0 min 0,0 UV-I 0 W/m -0,5 C 0,4 C 6,4 km/h (2 Bft)
23.01.2021 20:42 0,4 C 0,0 C 94 % 993,1 hPa 0,0 l/m 4,5 km/h (1 Bft) NO 40 0 min 0,0 UV-I 0 W/m -0,5 C 0,4 C 8,0 km/h (2 Bft)
23.01.2021 20:44 0,4 C 0,0 C 94 % 993,2 hPa 0,0 l/m 4,2 km/h (1 Bft) NO 52 0 min 0,0 UV-I 0 W/m -0,5 C 0,4 C 6,4 km/h (2 Bft)
23.01.2021 20:46 0,4 C 0,0 C 94 % 993,2 hPa 0,0 l/m 4,7 km/h (1 Bft) NO 49 0 min 0,0 UV-I 0 W/m -0,5 C 0,4 C 6,4 km/h (2 Bft)
23.01.2021 20:48 0,4 C 0,0 C 94 % 993,2 hPa 0,0 l/m 4,5 km/h (1 Bft) N-NO 33 0 min 0,0 UV-I 0 W/m -0,5 C 0,4 C 6,4 km/h (2 Bft)
23.01.2021 20:50 0,4 C 0,0 C 94 % 993,1 hPa 0,0 l/m 4,6 km/h (1 Bft) NO 38 0 min 0,0 UV-I 0 W/m -0,5 C 0,4 C 8,0 km/h (2 Bft)
23.01.2021 20:52 0,4 C 0,0 C 94 % 993,1 hPa 0,0 l/m 4,5 km/h (1 Bft) NO 49 0 min 0,0 UV-I 0 W/m -0,5 C 0,4 C 6,4 km/h (2 Bft)
23.01.2021 20:54 0,3 C 0,0 C 94 % 993,0 hPa 0,0 l/m 3,8 km/h (1 Bft) O-NO 59 0 min 0,0 UV-I 0 W/m -0,5 C 0,3 C 6,4 km/h (2 Bft)
23.01.2021 20:56 0,4 C 0,0 C 94 % 993,1 hPa 0,0 l/m 3,0 km/h (1 Bft) O-NO 58 0 min 0,0 UV-I 0 W/m -0,5 C 0,4 C 4,8 km/h (1 Bft)
23.01.2021 20:58 0,3 C 0,0 C 94 % 993,1 hPa 0,0 l/m 3,7 km/h (1 Bft) NO 40 0 min 0,0 UV-I 0 W/m -0,5 C 0,3 C 6,4 km/h (2 Bft)
23.01.2021 21:00 0,4 C 0,0 C 94 % 993,1 hPa 0,0 l/m 3,1 km/h (1 Bft) NO 40 0 min 0,0 UV-I 0 W/m -0,5 C 0,4 C 4,8 km/h (1 Bft)
23.01.2021 21:02 0,4 C 0,0 C 95 % 993,1 hPa 0,0 l/m 2,5 km/h (1 Bft) NO 40 0 min 0,0 UV-I 0 W/m -0,3 C 0,4 C 4,8 km/h (1 Bft)
23.01.2021 21:04 0,4 C 0,0 C 95 % 993,0 hPa 0,0 l/m 2,2 km/h (1 Bft) NO 40 0 min 0,0 UV-I 0 W/m -0,3 C 0,4 C 4,8 km/h (1 Bft)
23.01.2021 21:06 0,4 C 0,0 C 95 % 993,0 hPa 0,0 l/m 3,0 km/h (1 Bft) NO 40 0 min 0,0 UV-I 0 W/m -0,3 C 0,4 C 4,8 km/h (1 Bft)
23.01.2021 21:08 0,3 C 0,0 C 95 % 993,1 hPa 0,2 l/m 2,1 km/h (1 Bft) NO 40 0 min 0,0 UV-I 0 W/m -0,4 C 0,3 C 4,8 km/h (1 Bft)
23.01.2021 21:10 0,3 C 0,0 C 95 % 993,0 hPa 0,0 l/m 1,9 km/h (1 Bft) NO 40 0 min 0,0 UV-I 0 W/m -0,4 C 0,3 C 3,2 km/h (1 Bft)
23.01.2021 21:12 0,3 C 0,0 C 95 % 993,0 hPa 0,0 l/m 0,3 km/h (0 Bft) NO 40 0 min 0,0 UV-I 0 W/m -0,4 C 0,3 C 1,6 km/h (1 Bft)
23.01.2021 21:14 0,3 C 0,0 C 95 % 993,0 hPa 0,0 l/m 0,0 km/h (0 Bft) NO 40 0 min 0,0 UV-I 0 W/m -0,4 C 0,3 C 0,0 km/h (0 Bft)
23.01.2021 21:16 0,3 C 0,0 C 95 % 993,0 hPa 0,0 l/m 0,1 km/h (0 Bft) NO 40 0 min 0,0 UV-I 0 W/m -0,4 C 0,3 C 1,6 km/h (1 Bft)
23.01.2021 21:18 0,3 C 0,0 C 95 % 992,9 hPa 0,0 l/m 0,6 km/h (0 Bft) NO 40 0 min 0,0 UV-I 0 W/m -0,4 C 0,3 C 1,6 km/h (1 Bft)
23.01.2021 21:20 0,4 C 0,0 C 95 % 992,9 hPa 0,0 l/m 0,4 km/h (0 Bft) NO 40 0 min 0,0 UV-I 0 W/m -0,3 C 0,4 C 1,6 km/h (1 Bft)
23.01.2021 21:22 0,3 C 0,0 C 95 % 992,9 hPa 0,0 l/m 0,4 km/h (0 Bft) NO 40 0 min 0,0 UV-I 0 W/m -0,4 C 0,3 C 1,6 km/h (1 Bft)
23.01.2021 21:24 0,3 C 0,0 C 95 % 992,8 hPa 0,0 l/m 1,1 km/h (1 Bft) NO 40 0 min 0,0 UV-I 0 W/m -0,4 C 0,3 C 1,6 km/h (1 Bft)
23.01.2021 21:26 0,4 C 0,0 C 95 % 992,8 hPa 0,0 l/m 0,5 km/h (0 Bft) NO 40 0 min 0,0 UV-I 0 W/m -0,3 C 0,4 C 1,6 km/h (1 Bft)
23.01.2021 21:28 0,4 C 0,0 C 95 % 992,9 hPa 0,0 l/m 0,0 km/h (0 Bft) NO 40 0 min 0,0 UV-I 0 W/m -0,3 C 0,4 C 0,0 km/h (0 Bft)
23.01.2021 21:30 0,3 C 0,0 C 95 % 992,9 hPa 0,0 l/m 0,0 km/h (0 Bft) NO 40 0 min 0,0 UV-I 0 W/m -0,4 C 0,3 C 0,0 km/h (0 Bft)
23.01.2021 21:32 0,4 C 0,0 C 95 % 992,9 hPa 0,0 l/m 0,0 km/h (0 Bft) NO 40 0 min 0,0 UV-I 0 W/m -0,3 C 0,4 C 0,0 km/h (0 Bft)
23.01.2021 21:34 0,3 C 0,0 C 95 % 992,9 hPa 0,0 l/m 0,2 km/h (0 Bft) NO 40 0 min 0,0 UV-I 0 W/m -0,4 C 0,3 C 1,6 km/h (1 Bft)
23.01.2021 21:36 0,3 C 0,0 C 95 % 992,9 hPa 0,0 l/m 0,0 km/h (0 Bft) NO 40 0 min 0,0 UV-I 0 W/m -0,4 C 0,3 C 1,6 km/h (1 Bft)
23.01.2021 21:38 0,4 C 0,0 C 95 % 992,8 hPa 0,0 l/m 0,4 km/h (0 Bft) NO 40 0 min 0,0 UV-I 0 W/m -0,3 C 0,4 C 1,6 km/h (1 Bft)
23.01.2021 21:40 0,4 C 0,0 C 95 % 992,8 hPa 0,0 l/m 0,6 km/h (0 Bft) NO 40 0 min 0,0 UV-I 0 W/m -0,3 C 0,4 C 1,6 km/h (1 Bft)
23.01.2021 21:42 0,4 C 0,0 C 95 % 992,9 hPa 0,2 l/m 0,1 km/h (0 Bft) NO 40 0 min 0,0 UV-I 0 W/m -0,3 C 0,4 C 1,6 km/h (1 Bft)
23.01.2021 21:44 0,4 C 0,0 C 95 % 992,7 hPa 0,0 l/m 0,0 km/h (0 Bft) NO 40 0 min 0,0 UV-I 0 W/m -0,3 C 0,4 C 1,6 km/h (1 Bft)
23.01.2021 21:46 0,4 C 0,0 C 95 % 992,8 hPa 0,0 l/m 0,1 km/h (0 Bft) NO 40 0 min 0,0 UV-I 0 W/m -0,3 C 0,4 C 1,6 km/h (1 Bft)
23.01.2021 21:48 0,4 C 0,0 C 95 % 992,8 hPa 0,0 l/m 0,1 km/h (0 Bft) NO 40 0 min 0,0 UV-I 0 W/m -0,3 C 0,4 C 1,6 km/h (1 Bft)
23.01.2021 21:50 0,4 C 0,0 C 95 % 992,7 hPa 0,0 l/m 0,4 km/h (0 Bft) NO 40 0 min 0,0 UV-I 0 W/m -0,3 C 0,4 C 1,6 km/h (1 Bft)
23.01.2021 21:52 0,4 C 0,0 C 95 % 992,8 hPa 0,0 l/m 0,4 km/h (0 Bft) NO 40 0 min 0,0 UV-I 0 W/m -0,3 C 0,4 C 1,6 km/h (1 Bft)
23.01.2021 21:54 0,4 C 0,0 C 95 % 992,8 hPa 0,0 l/m 0,1 km/h (0 Bft) NO 40 0 min 0,0 UV-I 0 W/m -0,3 C 0,4 C 1,6 km/h (1 Bft)
23.01.2021 21:56 0,3 C 0,0 C 95 % 992,8 hPa 0,0 l/m 0,0 km/h (0 Bft) NO 40 0 min 0,0 UV-I 0 W/m -0,4 C 0,3 C 0,0 km/h (0 Bft)
23.01.2021 21:58 0,4 C 0,0 C 95 % 992,8 hPa 0,0 l/m 0,0 km/h (0 Bft) NO 40 0 min 0,0 UV-I 0 W/m -0,3 C 0,4 C 1,6 km/h (1 Bft)
23.01.2021 22:00 0,4 C 0,0 C 95 % 992,7 hPa 0,0 l/m 0,4 km/h (0 Bft) NO 40 0 min 0,0 UV-I 0 W/m -0,3 C 0,4 C 1,6 km/h (1 Bft)
23.01.2021 22:02 0,4 C 0,0 C 95 % 992,7 hPa 0,0 l/m 0,0 km/h (0 Bft) NO 40 0 min 0,0 UV-I 0 W/m -0,3 C 0,4 C 1,6 km/h (1 Bft)
23.01.2021 22:04 0,3 C 0,0 C 95 % 992,7 hPa 0,2 l/m 0,0 km/h (0 Bft) NO 40 0 min 0,0 UV-I 0 W/m -0,4 C 0,3 C 0,0 km/h (0 Bft)
23.01.2021 22:06 0,4 C 0,0 C 95 % 992,6 hPa 0,0 l/m 0,0 km/h (0 Bft) NO 40 0 min 0,0 UV-I 0 W/m -0,3 C 0,4 C 0,0 km/h (0 Bft)
23.01.2021 22:08 0,4 C 0,0 C 95 % 992,6 hPa 0,0 l/m 0,0 km/h (0 Bft) NO 40 0 min 0,0 UV-I 0 W/m -0,3 C 0,4 C 0,0 km/h (0 Bft)
23.01.2021 22:10 0,4 C 0,0 C 95 % 992,7 hPa 0,0 l/m 0,0 km/h (0 Bft) NO 40 0 min 0,0 UV-I 0 W/m -0,3 C 0,4 C 0,0 km/h (0 Bft)
23.01.2021 22:12 0,3 C 0,0 C 95 % 992,7 hPa 0,0 l/m 0,0 km/h (0 Bft) NO 40 0 min 0,0 UV-I 0 W/m -0,4 C 0,3 C 0,0 km/h (0 Bft)
23.01.2021 22:14 0,4 C 0,0 C 95 % 992,6 hPa 0,0 l/m 0,0 km/h (0 Bft) NO 40 0 min 0,0 UV-I 0 W/m -0,3 C 0,4 C 0,0 km/h (0 Bft)
23.01.2021 22:16 0,4 C 0,0 C 95 % 992,6 hPa 0,0 l/m 0,0 km/h (0 Bft) NO 40 0 min 0,0 UV-I 0 W/m -0,3 C 0,4 C 0,0 km/h (0 Bft)
23.01.2021 22:18 0,4 C 0,0 C 95 % 992,7 hPa 0,0 l/m 0,0 km/h (0 Bft) NO 40 0 min 0,0 UV-I 0 W/m -0,3 C 0,4 C 0,0 km/h (0 Bft)
23.01.2021 22:20 0,4 C 0,0 C 95 % 992,6 hPa 0,0 l/m 0,0 km/h (0 Bft) NO 40 0 min 0,0 UV-I 0 W/m -0,3 C 0,4 C 0,0 km/h (0 Bft)
23.01.2021 22:22 0,4 C 0,0 C 95 % 992,5 hPa 0,2 l/m 0,0 km/h (0 Bft) NO 40 0 min 0,0 UV-I 0 W/m -0,3 C 0,4 C 0,0 km/h (0 Bft)
23.01.2021 22:24 0,4 C 0,0 C 95 % 992,5 hPa 0,0 l/m 0,0 km/h (0 Bft) NO 54 0 min 0,0 UV-I 0 W/m -0,3 C 0,4 C 0,0 km/h (0 Bft)
23.01.2021 22:26 0,4 C 0,0 C 95 % 992,5 hPa 0,0 l/m 0,0 km/h (0 Bft) O-NO 58 0 min 0,0 UV-I 0 W/m -0,3 C 0,4 C 0,0 km/h (0 Bft)
23.01.2021 22:28 0,4 C 0,0 C 95 % 992,5 hPa 0,0 l/m 0,0 km/h (0 Bft) O-NO 61 0 min 0,0 UV-I 0 W/m -0,3 C 0,4 C 0,0 km/h (0 Bft)
23.01.2021 22:30 0,4 C 0,0 C 95 % 992,5 hPa 0,0 l/m 0,0 km/h (0 Bft) O-NO 62 0 min 0,0 UV-I 0 W/m -0,3 C 0,4 C 0,0 km/h (0 Bft)
23.01.2021 22:32 0,4 C 0,0 C 95 % 992,5 hPa 0,0 l/m 0,0 km/h (0 Bft) O-NO 63 0 min 0,0 UV-I 0 W/m -0,3 C 0,4 C 0,0 km/h (0 Bft)
23.01.2021 22:34 0,4 C 0,0 C 95 % 992,6 hPa 0,0 l/m 0,0 km/h (0 Bft) O-SO 111 0 min 0,0 UV-I 0 W/m -0,3 C 0,4 C 0,0 km/h (0 Bft)
23.01.2021 22:36 0,3 C 0,0 C 95 % 992,5 hPa 0,0 l/m 0,0 km/h (0 Bft) O-SO 112 0 min 0,0 UV-I 0 W/m -0,4 C 0,3 C 0,0 km/h (0 Bft)
23.01.2021 22:38 0,4 C 0,0 C 95 % 992,5 hPa 0,0 l/m 0,0 km/h (0 Bft) O-SO 112 0 min 0,0 UV-I 0 W/m -0,3 C 0,4 C 0,0 km/h (0 Bft)
23.01.2021 22:40 0,3 C 0,0 C 95 % 992,5 hPa 0,0 l/m 0,0 km/h (0 Bft) O-SO 112 0 min 0,0 UV-I 0 W/m -0,4 C 0,3 C 0,0 km/h (0 Bft)
23.01.2021 22:42 0,4 C 0,0 C 95 % 992,5 hPa 0,0 l/m 0,0 km/h (0 Bft) O-SO 112 0 min 0,0 UV-I 0 W/m -0,3 C 0,4 C 0,0 km/h (0 Bft)
23.01.2021 22:44 0,4 C 0,0 C 95 % 992,6 hPa 0,0 l/m 0,0 km/h (0 Bft) O-SO 112 0 min 0,0 UV-I 0 W/m -0,3 C 0,4 C 0,0 km/h (0 Bft)
23.01.2021 22:46 0,4 C 0,0 C 95 % 992,5 hPa 0,0 l/m 0,0 km/h (0 Bft) O-SO 112 0 min 0,0 UV-I 0 W/m -0,3 C 0,4 C 0,0 km/h (0 Bft)
23.01.2021 22:48 0,4 C 0,0 C 95 % 992,5 hPa 0,0 l/m 0,0 km/h (0 Bft) O-SO 112 0 min 0,0 UV-I 0 W/m -0,3 C 0,4 C 0,0 km/h (0 Bft)
23.01.2021 22:50 0,4 C 0,0 C 95 % 992,5 hPa 0,0 l/m 0,0 km/h (0 Bft) O-SO 114 0 min 0,0 UV-I 0 W/m -0,3 C 0,4 C 0,0 km/h (0 Bft)
23.01.2021 22:52 0,4 C 0,0 C 95 % 992,5 hPa 0,0 l/m 0,0 km/h (0 Bft) O-SO 117 0 min 0,0 UV-I 0 W/m -0,3 C 0,4 C 0,0 km/h (0 Bft)
23.01.2021 22:54 0,3 C 0,0 C 95 % 992,5 hPa 0,0 l/m 0,0 km/h (0 Bft) SO 126 0 min 0,0 UV-I 0 W/m -0,4 C 0,3 C 0,0 km/h (0 Bft)
23.01.2021 22:56 0,3 C 0,0 C 95 % 992,5 hPa 0,0 l/m 1,6 km/h (1 Bft) S-SO 164 0 min 0,0 UV-I 0 W/m -0,4 C 0,3 C 3,2 km/h (1 Bft)
23.01.2021 22:58 0,3 C 0,0 C 95 % 992,5 hPa 0,0 l/m 2,9 km/h (1 Bft) S-SW 198 0 min 0,0 UV-I 0 W/m -0,4 C 0,3 C 6,4 km/h (2 Bft)
23.01.2021 23:00 0,4 C 0,0 C 95 % 992,5 hPa 0,0 l/m 2,9 km/h (1 Bft) S 184 0 min 0,0 UV-I 0 W/m -0,3 C 0,4 C 4,8 km/h (1 Bft)
23.01.2021 23:02 0,4 C 0,0 C 95 % 992,5 hPa 0,0 l/m 2,4 km/h (1 Bft) S 186 0 min 0,0 UV-I 0 W/m -0,3 C 0,4 C 4,8 km/h (1 Bft)
23.01.2021 23:04 0,4 C 0,0 C 95 % 992,5 hPa 0,0 l/m 2,9 km/h (1 Bft) S 180 0 min 0,0 UV-I 0 W/m -0,3 C 0,4 C 8,0 km/h (2 Bft)
23.01.2021 23:06 0,4 C 0,0 C 95 % 992,5 hPa 0,0 l/m 2,7 km/h (1 Bft) S 188 0 min 0,0 UV-I 0 W/m -0,3 C 0,4 C 4,8 km/h (1 Bft)
23.01.2021 23:08 0,3 C 0,0 C 95 % 992,4 hPa 0,0 l/m 3,8 km/h (1 Bft) S-SW 201 0 min 0,0 UV-I 0 W/m -0,4 C 0,3 C 6,4 km/h (2 Bft)
23.01.2021 23:10 0,3 C 0,0 C 95 % 992,4 hPa 0,0 l/m 3,1 km/h (1 Bft) S-SW 200 0 min 0,0 UV-I 0 W/m -0,4 C 0,3 C 4,8 km/h (1 Bft)
23.01.2021 23:12 0,3 C 0,0 C 95 % 992,4 hPa 0,0 l/m 3,4 km/h (1 Bft) S-SW 206 0 min 0,0 UV-I 0 W/m -0,4 C 0,3 C 4,8 km/h (1 Bft)
23.01.2021 23:14 0,3 C 0,0 C 95 % 992,4 hPa 0,0 l/m 3,2 km/h (1 Bft) S-SW 200 0 min 0,0 UV-I 0 W/m -0,4 C 0,3 C 4,8 km/h (1 Bft)
23.01.2021 23:16 0,4 C 0,0 C 95 % 992,5 hPa 0,0 l/m 4,2 km/h (1 Bft) S-SW 202 0 min 0,0 UV-I 0 W/m -0,3 C 0,4 C 6,4 km/h (2 Bft)
23.01.2021 23:18 0,3 C 0,0 C 95 % 992,4 hPa 0,0 l/m 4,3 km/h (1 Bft) S 177 0 min 0,0 UV-I 0 W/m -0,4 C 0,3 C 8,0 km/h (2 Bft)
23.01.2021 23:20 0,3 C 0,0 C 95 % 992,4 hPa 0,0 l/m 3,6 km/h (1 Bft) S 179 0 min 0,0 UV-I 0 W/m -0,4 C 0,3 C 6,4 km/h (2 Bft)
23.01.2021 23:22 0,3 C 0,0 C 95 % 992,4 hPa 0,0 l/m 4,1 km/h (1 Bft) S-SW 194 0 min 0,0 UV-I 0 W/m -0,4 C 0,3 C 8,0 km/h (2 Bft)
23.01.2021 23:24 0,3 C 0,0 C 95 % 992,5 hPa 0,0 l/m 5,2 km/h (1 Bft) S-SW 206 0 min 0,0 UV-I 0 W/m -0,4 C 0,3 C 9,7 km/h (2 Bft)
23.01.2021 23:26 0,3 C 0,0 C 95 % 992,4 hPa 0,0 l/m 6,3 km/h (2 Bft) SW 214 0 min 0,0 UV-I 0 W/m -0,4 C 0,3 C 9,7 km/h (2 Bft)
23.01.2021 23:28 0,3 C 0,0 C 95 % 992,4 hPa 0,0 l/m 5,1 km/h (1 Bft) S-SW 211 0 min 0,0 UV-I 0 W/m -0,4 C 0,3 C 8,0 km/h (2 Bft)
23.01.2021 23:30 0,3 C 0,0 C 95 % 992,4 hPa 0,0 l/m 6,1 km/h (2 Bft) SW 223 0 min 0,0 UV-I 0 W/m -0,4 C 0,3 C 11,3 km/h (2 Bft)
23.01.2021 23:32 0,3 C 0,0 C 95 % 992,4 hPa 0,0 l/m 5,2 km/h (1 Bft) SW 217 0 min 0,0 UV-I 0 W/m -0,4 C 0,3 C 9,7 km/h (2 Bft)
23.01.2021 23:34 0,3 C 0,0 C 95 % 992,3 hPa 0,2 l/m 6,3 km/h (2 Bft) S-SW 194 0 min 0,0 UV-I 0 W/m -0,4 C 0,3 C 9,7 km/h (2 Bft)
23.01.2021 23:36 0,3 C 0,0 C 95 % 992,4 hPa 0,0 l/m 5,7 km/h (1 Bft) S-SW 204 0 min 0,0 UV-I 0 W/m -0,4 C 0,3 C 8,0 km/h (2 Bft)
23.01.2021 23:38 0,3 C 0,0 C 95 % 992,4 hPa 0,0 l/m 3,9 km/h (1 Bft) S-SW 211 0 min 0,0 UV-I 0 W/m -0,4 C 0,3 C 6,4 km/h (2 Bft)
23.01.2021 23:40 0,3 C 0,0 C 95 % 992,4 hPa 0,0 l/m 5,1 km/h (1 Bft) S-SW 201 0 min 0,0 UV-I 0 W/m -0,4 C 0,3 C 8,0 km/h (2 Bft)
23.01.2021 23:41 0,3 C 0,0 C 95 % 992,4 hPa 0,0 l/m 6,4 km/h (2 Bft) S-SW 202 0 min 0,0 UV-I 0 W/m -0,4 C 0,3 C 8,0 km/h (2 Bft)
23.01.2021 23:42 0,3 C 0,0 C 95 % 992,4 hPa 0,0 l/m 6,4 km/h (2 Bft) S-SW 202 0 min 0,0 UV-I 0 W/m -0,4 C 0,3 C 8,0 km/h (2 Bft)
23.01.2021 23:43 0,3 C 0,0 C 95 % 992,4 hPa 0,0 l/m 4,8 km/h (1 Bft) S-SW 202 0 min 0,0 UV-I 0 W/m -0,4 C 0,3 C 8,0 km/h (2 Bft)
23.01.2021 23:44 0,3 C 0,0 C 95 % 992,4 hPa 0,0 l/m 4,8 km/h (1 Bft) SW 225 0 min 0,0 UV-I 0 W/m -0,4 C 0,3 C 8,0 km/h (2 Bft)
23.01.2021 23:46 0,3 C 0,0 C 95 % 992,4 hPa 0,0 l/m 7,0 km/h (2 Bft) S-SW 203 0 min 0,0 UV-I 0 W/m -0,4 C -0,3 C 9,7 km/h (2 Bft)
23.01.2021 23:48 0,3 C 0,0 C 95 % 992,5 hPa 0,0 l/m 7,4 km/h (2 Bft) SW 215 0 min 0,0 UV-I 0 W/m -0,4 C -0,7 C 9,7 km/h (2 Bft)
23.01.2021 23:50 0,3 C 0,0 C 95 % 992,5 hPa 0,0 l/m 6,3 km/h (2 Bft) S 189 0 min 0,0 UV-I 0 W/m -0,4 C 0,3 C 9,7 km/h (2 Bft)
23.01.2021 23:52 0,3 C 0,0 C 95 % 992,5 hPa 0,0 l/m 5,6 km/h (1 Bft) S-SW 192 0 min 0,0 UV-I 0 W/m -0,4 C 0,3 C 9,7 km/h (2 Bft)
23.01.2021 23:54 0,3 C 0,0 C 95 % 992,4 hPa 0,0 l/m 5,9 km/h (2 Bft) SW 214 0 min 0,0 UV-I 0 W/m -0,4 C 0,3 C 8,0 km/h (2 Bft)
23.01.2021 23:56 0,3 C 0,0 C 95 % 992,5 hPa 0,0 l/m 5,5 km/h (1 Bft) S-SW 208 0 min 0,0 UV-I 0 W/m -0,4 C 0,3 C 8,0 km/h (2 Bft)
23.01.2021 23:58 0,3 C 0,0 C 95 % 992,4 hPa 0,0 l/m 5,7 km/h (1 Bft) SW 217 0 min 0,0 UV-I 0 W/m -0,4 C 0,3 C 9,7 km/h (2 Bft)
23.01.2021 23:59 0,3 C 0,0 C 95 % 992,4 hPa 0,0 l/m 6,4 km/h (2 Bft) SW 225 0 min 0,0 UV-I 0 W/m -0,4 C 0,3 C 8,0 km/h (2 Bft)
_ Min-Zeit 01:30 00:24 13:44 23:34 - 21:14 - - - - - 00:36 03:17 21:14
Minimum _ -0,7 C -1,7 C 87 % 992,3 hPa - 0,0 km/h (0 Bft) - - - - - -1,3 C -8,4 C 0,0 km/h (0 Bft)
_ Max-Zeit 13:42 13:38 01:27 02:46 18:52 03:17 - - 10:54 12:30 13:38 11:06 13:38 06:07
Maximum _ 2,6 C 6,1 C 96 % 1000,3 hPa 0,2 l/m 17,7 km/h
S-SW (3 Bft)
- - 2 min 1,0 UV-I 294 W/m 0,9 C 2,4 C 30,6 km/h
S (5 Bft)
Durchschnitt _ 1,0 C 0,9 C 93 % 997,0 hPa #3,0 l/m 7,8 km/h (2 Bft) S-SW - #28 min. 0,6 UV-I 95 W/m 0,0 C -1,1 C 11,7 km/h (2 Bft)